<?xml version="1.0" encoding="UTF-8" standalone="no" ?>
<gpx xmlns="http://www.topografix.com/GPX/1/1" xmlns:xsi="http://www.w3.org/2001/XMLSchema-instance" xsi:schemaLocation="http://www.topografix.com/GPX/1/1 http://www.topografix.com/GPX/1/1/gpx.xsd" version="1.1" creator="VisuGPX - https://www.visugpx.com">
  <metadata>
    <name>Grotte de Plaisir Fontaine, Vallée de la Brême, Bonnevaux-le-Prieuré</name>
    <desc><![CDATA[Randonnée effectuée le 16 novembre 2017.
L'indice IBP d'effort est de 62, (suivant l'échelle de la FFRP) un score compris entre 51 et 75 correspond au niveau 3 qualifié de "PEU DIFFICILE". La randonnée pédestre nécessite un certain engagement physique qui reste toutefois mesuré. Ce niveau correspond à des randonnées pédestres modérées.
]]></desc>
  </metadata>
  <trk>
    <name><![CDATA[16 nov. 2017 à 09:20:51]]></name>
    <cmt><![CDATA[16 nov. 2017 à 09:20:51]]></cmt>
    <trkseg>
      <trkpt lat="47.13763" lon="6.15808">
        <ele>389</ele>
        <time>2017-11-16T08:20:52Z</time>
      </trkpt>
      <trkpt lat="47.13771" lon="6.15811">
        <ele>397</ele>
        <time>2017-11-16T08:22:49Z</time>
      </trkpt>
      <trkpt lat="47.1377" lon="6.1581">
        <ele>390</ele>
        <time>2017-11-16T08:23:53Z</time>
      </trkpt>
      <trkpt lat="47.13763" lon="6.15817">
        <ele>386</ele>
        <time>2017-11-16T08:26:03Z</time>
      </trkpt>
      <trkpt lat="47.13761" lon="6.15823">
        <ele>385</ele>
        <time>2017-11-16T08:26:07Z</time>
      </trkpt>
      <trkpt lat="47.1376" lon="6.15838">
        <ele>381</ele>
        <time>2017-11-16T08:26:16Z</time>
      </trkpt>
      <trkpt lat="47.1376" lon="6.15846">
        <ele>381</ele>
        <time>2017-11-16T08:26:21Z</time>
      </trkpt>
      <trkpt lat="47.13764" lon="6.15854">
        <ele>382</ele>
        <time>2017-11-16T08:26:37Z</time>
      </trkpt>
      <trkpt lat="47.13763" lon="6.15861">
        <ele>382</ele>
        <time>2017-11-16T08:26:41Z</time>
      </trkpt>
      <trkpt lat="47.13763" lon="6.15869">
        <ele>382</ele>
        <time>2017-11-16T08:26:45Z</time>
      </trkpt>
      <trkpt lat="47.13765" lon="6.15884">
        <ele>382</ele>
        <time>2017-11-16T08:26:54Z</time>
      </trkpt>
      <trkpt lat="47.13769" lon="6.15907">
        <ele>381</ele>
        <time>2017-11-16T08:27:07Z</time>
      </trkpt>
      <trkpt lat="47.1378" lon="6.15933">
        <ele>384</ele>
        <time>2017-11-16T08:27:26Z</time>
      </trkpt>
      <trkpt lat="47.13789" lon="6.1595">
        <ele>385</ele>
        <time>2017-11-16T08:27:42Z</time>
      </trkpt>
      <trkpt lat="47.1381" lon="6.15981">
        <ele>388</ele>
        <time>2017-11-16T08:28:10Z</time>
      </trkpt>
      <trkpt lat="47.13816" lon="6.15993">
        <ele>390</ele>
        <time>2017-11-16T08:28:19Z</time>
      </trkpt>
      <trkpt lat="47.13827" lon="6.16008">
        <ele>391</ele>
        <time>2017-11-16T08:28:34Z</time>
      </trkpt>
      <trkpt lat="47.13837" lon="6.16025">
        <ele>394</ele>
        <time>2017-11-16T08:28:51Z</time>
      </trkpt>
      <trkpt lat="47.13842" lon="6.1603">
        <ele>395</ele>
        <time>2017-11-16T08:28:57Z</time>
      </trkpt>
      <trkpt lat="47.13848" lon="6.16041">
        <ele>398</ele>
        <time>2017-11-16T08:29:08Z</time>
      </trkpt>
      <trkpt lat="47.13856" lon="6.16049">
        <ele>400</ele>
        <time>2017-11-16T08:29:21Z</time>
      </trkpt>
      <trkpt lat="47.13861" lon="6.1605">
        <ele>401</ele>
        <time>2017-11-16T08:29:28Z</time>
      </trkpt>
      <trkpt lat="47.13873" lon="6.16045">
        <ele>404</ele>
        <time>2017-11-16T08:29:49Z</time>
      </trkpt>
      <trkpt lat="47.13882" lon="6.16049">
        <ele>407</ele>
        <time>2017-11-16T08:30:00Z</time>
      </trkpt>
      <trkpt lat="47.13886" lon="6.16057">
        <ele>410</ele>
        <time>2017-11-16T08:30:18Z</time>
      </trkpt>
      <trkpt lat="47.13893" lon="6.16066">
        <ele>411</ele>
        <time>2017-11-16T08:30:31Z</time>
      </trkpt>
      <trkpt lat="47.13897" lon="6.16078">
        <ele>413</ele>
        <time>2017-11-16T08:30:40Z</time>
      </trkpt>
      <trkpt lat="47.13902" lon="6.16106">
        <ele>416</ele>
        <time>2017-11-16T08:31:04Z</time>
      </trkpt>
      <trkpt lat="47.13905" lon="6.16112">
        <ele>416</ele>
        <time>2017-11-16T08:31:09Z</time>
      </trkpt>
      <trkpt lat="47.13905" lon="6.16119">
        <ele>417</ele>
        <time>2017-11-16T08:31:14Z</time>
      </trkpt>
      <trkpt lat="47.13905" lon="6.16126">
        <ele>417</ele>
        <time>2017-11-16T08:31:19Z</time>
      </trkpt>
      <trkpt lat="47.13914" lon="6.16143">
        <ele>417</ele>
        <time>2017-11-16T08:31:35Z</time>
      </trkpt>
      <trkpt lat="47.13923" lon="6.16171">
        <ele>419</ele>
        <time>2017-11-16T08:31:55Z</time>
      </trkpt>
      <trkpt lat="47.13924" lon="6.16177">
        <ele>420</ele>
        <time>2017-11-16T08:32:00Z</time>
      </trkpt>
      <trkpt lat="47.13926" lon="6.16185">
        <ele>420</ele>
        <time>2017-11-16T08:32:05Z</time>
      </trkpt>
      <trkpt lat="47.13928" lon="6.16191">
        <ele>421</ele>
        <time>2017-11-16T08:32:09Z</time>
      </trkpt>
      <trkpt lat="47.13929" lon="6.16205">
        <ele>421</ele>
        <time>2017-11-16T08:32:20Z</time>
      </trkpt>
      <trkpt lat="47.13928" lon="6.16218">
        <ele>421</ele>
        <time>2017-11-16T08:32:29Z</time>
      </trkpt>
      <trkpt lat="47.1393" lon="6.16232">
        <ele>421</ele>
        <time>2017-11-16T08:32:38Z</time>
      </trkpt>
      <trkpt lat="47.1393" lon="6.16255">
        <ele>419</ele>
        <time>2017-11-16T08:32:54Z</time>
      </trkpt>
      <trkpt lat="47.13931" lon="6.16261">
        <ele>419</ele>
        <time>2017-11-16T08:33:00Z</time>
      </trkpt>
      <trkpt lat="47.13935" lon="6.16282">
        <ele>420</ele>
        <time>2017-11-16T08:33:18Z</time>
      </trkpt>
      <trkpt lat="47.13938" lon="6.16288">
        <ele>421</ele>
        <time>2017-11-16T08:33:23Z</time>
      </trkpt>
      <trkpt lat="47.13941" lon="6.16293">
        <ele>422</ele>
        <time>2017-11-16T08:33:29Z</time>
      </trkpt>
      <trkpt lat="47.13943" lon="6.16307">
        <ele>424</ele>
        <time>2017-11-16T08:33:45Z</time>
      </trkpt>
      <trkpt lat="47.13943" lon="6.16314">
        <ele>426</ele>
        <time>2017-11-16T08:33:52Z</time>
      </trkpt>
      <trkpt lat="47.13949" lon="6.16302">
        <ele>426</ele>
        <time>2017-11-16T08:37:56Z</time>
      </trkpt>
      <trkpt lat="47.13942" lon="6.16291">
        <ele>425</ele>
        <time>2017-11-16T08:39:35Z</time>
      </trkpt>
      <trkpt lat="47.13935" lon="6.16266">
        <ele>423</ele>
        <time>2017-11-16T08:39:57Z</time>
      </trkpt>
      <trkpt lat="47.13931" lon="6.16253">
        <ele>422</ele>
        <time>2017-11-16T08:40:07Z</time>
      </trkpt>
      <trkpt lat="47.13931" lon="6.16239">
        <ele>423</ele>
        <time>2017-11-16T08:40:16Z</time>
      </trkpt>
      <trkpt lat="47.13928" lon="6.16206">
        <ele>421</ele>
        <time>2017-11-16T08:40:53Z</time>
      </trkpt>
      <trkpt lat="47.13926" lon="6.16152">
        <ele>423</ele>
        <time>2017-11-16T08:41:33Z</time>
      </trkpt>
      <trkpt lat="47.13927" lon="6.16133">
        <ele>424</ele>
        <time>2017-11-16T08:42:02Z</time>
      </trkpt>
      <trkpt lat="47.13922" lon="6.16122">
        <ele>424</ele>
        <time>2017-11-16T08:42:15Z</time>
      </trkpt>
      <trkpt lat="47.13919" lon="6.16095">
        <ele>425</ele>
        <time>2017-11-16T08:42:45Z</time>
      </trkpt>
      <trkpt lat="47.13923" lon="6.16069">
        <ele>425</ele>
        <time>2017-11-16T08:43:17Z</time>
      </trkpt>
      <trkpt lat="47.13927" lon="6.16079">
        <ele>428</ele>
        <time>2017-11-16T08:43:42Z</time>
      </trkpt>
      <trkpt lat="47.13931" lon="6.16075">
        <ele>429</ele>
        <time>2017-11-16T08:43:50Z</time>
      </trkpt>
      <trkpt lat="47.1393" lon="6.1606">
        <ele>435</ele>
        <time>2017-11-16T08:44:16Z</time>
      </trkpt>
      <trkpt lat="47.13934" lon="6.16057">
        <ele>437</ele>
        <time>2017-11-16T08:44:24Z</time>
      </trkpt>
      <trkpt lat="47.13937" lon="6.16052">
        <ele>439</ele>
        <time>2017-11-16T08:44:43Z</time>
      </trkpt>
      <trkpt lat="47.13944" lon="6.16057">
        <ele>442</ele>
        <time>2017-11-16T08:45:08Z</time>
      </trkpt>
      <trkpt lat="47.13947" lon="6.16071">
        <ele>446</ele>
        <time>2017-11-16T08:45:20Z</time>
      </trkpt>
      <trkpt lat="47.13949" lon="6.16084">
        <ele>449</ele>
        <time>2017-11-16T08:45:32Z</time>
      </trkpt>
      <trkpt lat="47.13951" lon="6.1609">
        <ele>451</ele>
        <time>2017-11-16T08:45:39Z</time>
      </trkpt>
      <trkpt lat="47.13955" lon="6.16095">
        <ele>452</ele>
        <time>2017-11-16T08:45:45Z</time>
      </trkpt>
      <trkpt lat="47.1396" lon="6.16107">
        <ele>455</ele>
        <time>2017-11-16T08:45:56Z</time>
      </trkpt>
      <trkpt lat="47.13964" lon="6.16111">
        <ele>457</ele>
        <time>2017-11-16T08:46:02Z</time>
      </trkpt>
      <trkpt lat="47.13971" lon="6.16121">
        <ele>458</ele>
        <time>2017-11-16T08:46:13Z</time>
      </trkpt>
      <trkpt lat="47.13973" lon="6.16128">
        <ele>458</ele>
        <time>2017-11-16T08:46:19Z</time>
      </trkpt>
      <trkpt lat="47.13976" lon="6.16134">
        <ele>460</ele>
        <time>2017-11-16T08:46:25Z</time>
      </trkpt>
      <trkpt lat="47.13983" lon="6.16144">
        <ele>461</ele>
        <time>2017-11-16T08:46:37Z</time>
      </trkpt>
      <trkpt lat="47.13984" lon="6.16151">
        <ele>461</ele>
        <time>2017-11-16T08:46:43Z</time>
      </trkpt>
      <trkpt lat="47.13987" lon="6.16164">
        <ele>461</ele>
        <time>2017-11-16T08:46:55Z</time>
      </trkpt>
      <trkpt lat="47.13991" lon="6.16176">
        <ele>462</ele>
        <time>2017-11-16T08:47:12Z</time>
      </trkpt>
      <trkpt lat="47.13998" lon="6.16178">
        <ele>465</ele>
        <time>2017-11-16T08:47:26Z</time>
      </trkpt>
      <trkpt lat="47.14001" lon="6.16173">
        <ele>465</ele>
        <time>2017-11-16T08:47:31Z</time>
      </trkpt>
      <trkpt lat="47.14" lon="6.16166">
        <ele>465</ele>
        <time>2017-11-16T08:47:37Z</time>
      </trkpt>
      <trkpt lat="47.14" lon="6.16159">
        <ele>464</ele>
        <time>2017-11-16T08:47:43Z</time>
      </trkpt>
      <trkpt lat="47.14" lon="6.16152">
        <ele>464</ele>
        <time>2017-11-16T08:47:50Z</time>
      </trkpt>
      <trkpt lat="47.13999" lon="6.16146">
        <ele>464</ele>
        <time>2017-11-16T08:47:56Z</time>
      </trkpt>
      <trkpt lat="47.13996" lon="6.16116">
        <ele>468</ele>
        <time>2017-11-16T08:48:20Z</time>
      </trkpt>
      <trkpt lat="47.13997" lon="6.16109">
        <ele>469</ele>
        <time>2017-11-16T08:48:26Z</time>
      </trkpt>
      <trkpt lat="47.13996" lon="6.16094">
        <ele>472</ele>
        <time>2017-11-16T08:48:40Z</time>
      </trkpt>
      <trkpt lat="47.13997" lon="6.16087">
        <ele>473</ele>
        <time>2017-11-16T08:48:48Z</time>
      </trkpt>
      <trkpt lat="47.14" lon="6.16082">
        <ele>474</ele>
        <time>2017-11-16T08:48:57Z</time>
      </trkpt>
      <trkpt lat="47.14004" lon="6.16079">
        <ele>477</ele>
        <time>2017-11-16T08:49:05Z</time>
      </trkpt>
      <trkpt lat="47.14008" lon="6.16085">
        <ele>478</ele>
        <time>2017-11-16T08:49:13Z</time>
      </trkpt>
      <trkpt lat="47.14012" lon="6.16086">
        <ele>478</ele>
        <time>2017-11-16T08:49:17Z</time>
      </trkpt>
      <trkpt lat="47.1402" lon="6.16094">
        <ele>480</ele>
        <time>2017-11-16T08:49:28Z</time>
      </trkpt>
      <trkpt lat="47.14041" lon="6.16125">
        <ele>488</ele>
        <time>2017-11-16T08:49:58Z</time>
      </trkpt>
      <trkpt lat="47.14056" lon="6.16176">
        <ele>494</ele>
        <time>2017-11-16T08:50:38Z</time>
      </trkpt>
      <trkpt lat="47.14062" lon="6.16187">
        <ele>494</ele>
        <time>2017-11-16T08:50:49Z</time>
      </trkpt>
      <trkpt lat="47.14069" lon="6.16197">
        <ele>496</ele>
        <time>2017-11-16T08:51:02Z</time>
      </trkpt>
      <trkpt lat="47.14074" lon="6.16211">
        <ele>497</ele>
        <time>2017-11-16T08:51:28Z</time>
      </trkpt>
      <trkpt lat="47.14077" lon="6.16223">
        <ele>498</ele>
        <time>2017-11-16T08:51:40Z</time>
      </trkpt>
      <trkpt lat="47.14081" lon="6.16235">
        <ele>498</ele>
        <time>2017-11-16T08:51:50Z</time>
      </trkpt>
      <trkpt lat="47.1409" lon="6.16242">
        <ele>499</ele>
        <time>2017-11-16T08:52:02Z</time>
      </trkpt>
      <trkpt lat="47.14097" lon="6.16252">
        <ele>499</ele>
        <time>2017-11-16T08:52:16Z</time>
      </trkpt>
      <trkpt lat="47.14099" lon="6.16259">
        <ele>499</ele>
        <time>2017-11-16T08:52:21Z</time>
      </trkpt>
      <trkpt lat="47.141" lon="6.16266">
        <ele>499</ele>
        <time>2017-11-16T08:52:28Z</time>
      </trkpt>
      <trkpt lat="47.141" lon="6.16281">
        <ele>499</ele>
        <time>2017-11-16T08:52:38Z</time>
      </trkpt>
      <trkpt lat="47.14102" lon="6.16295">
        <ele>499</ele>
        <time>2017-11-16T08:52:48Z</time>
      </trkpt>
      <trkpt lat="47.141" lon="6.16317">
        <ele>500</ele>
        <time>2017-11-16T08:53:05Z</time>
      </trkpt>
      <trkpt lat="47.14097" lon="6.16326">
        <ele>500</ele>
        <time>2017-11-16T08:53:16Z</time>
      </trkpt>
      <trkpt lat="47.14087" lon="6.16341">
        <ele>501</ele>
        <time>2017-11-16T08:53:31Z</time>
      </trkpt>
      <trkpt lat="47.14083" lon="6.16346">
        <ele>502</ele>
        <time>2017-11-16T08:53:36Z</time>
      </trkpt>
      <trkpt lat="47.1408" lon="6.16351">
        <ele>502</ele>
        <time>2017-11-16T08:53:42Z</time>
      </trkpt>
      <trkpt lat="47.14073" lon="6.16362">
        <ele>503</ele>
        <time>2017-11-16T08:53:52Z</time>
      </trkpt>
      <trkpt lat="47.14069" lon="6.16366">
        <ele>503</ele>
        <time>2017-11-16T08:53:58Z</time>
      </trkpt>
      <trkpt lat="47.14049" lon="6.164">
        <ele>506</ele>
        <time>2017-11-16T08:54:28Z</time>
      </trkpt>
      <trkpt lat="47.14033" lon="6.16435">
        <ele>506</ele>
        <time>2017-11-16T08:54:58Z</time>
      </trkpt>
      <trkpt lat="47.14029" lon="6.1644">
        <ele>507</ele>
        <time>2017-11-16T08:55:04Z</time>
      </trkpt>
      <trkpt lat="47.14024" lon="6.16451">
        <ele>508</ele>
        <time>2017-11-16T08:55:20Z</time>
      </trkpt>
      <trkpt lat="47.14016" lon="6.16461">
        <ele>510</ele>
        <time>2017-11-16T08:55:31Z</time>
      </trkpt>
      <trkpt lat="47.14011" lon="6.16464">
        <ele>510</ele>
        <time>2017-11-16T08:55:37Z</time>
      </trkpt>
      <trkpt lat="47.13997" lon="6.16472">
        <ele>512</ele>
        <time>2017-11-16T08:55:50Z</time>
      </trkpt>
      <trkpt lat="47.13994" lon="6.16476">
        <ele>512</ele>
        <time>2017-11-16T08:55:54Z</time>
      </trkpt>
      <trkpt lat="47.13977" lon="6.16489">
        <ele>514</ele>
        <time>2017-11-16T08:56:15Z</time>
      </trkpt>
      <trkpt lat="47.13971" lon="6.16492">
        <ele>514</ele>
        <time>2017-11-16T08:56:20Z</time>
      </trkpt>
      <trkpt lat="47.13967" lon="6.16497">
        <ele>514</ele>
        <time>2017-11-16T08:56:24Z</time>
      </trkpt>
      <trkpt lat="47.13955" lon="6.16509">
        <ele>514</ele>
        <time>2017-11-16T08:56:37Z</time>
      </trkpt>
      <trkpt lat="47.1394" lon="6.16529">
        <ele>518</ele>
        <time>2017-11-16T08:56:57Z</time>
      </trkpt>
      <trkpt lat="47.13936" lon="6.16531">
        <ele>519</ele>
        <time>2017-11-16T08:57:06Z</time>
      </trkpt>
      <trkpt lat="47.13931" lon="6.16531">
        <ele>519</ele>
        <time>2017-11-16T08:57:12Z</time>
      </trkpt>
      <trkpt lat="47.13926" lon="6.1653">
        <ele>521</ele>
        <time>2017-11-16T08:57:19Z</time>
      </trkpt>
      <trkpt lat="47.13922" lon="6.16529">
        <ele>521</ele>
        <time>2017-11-16T08:57:25Z</time>
      </trkpt>
      <trkpt lat="47.13892" lon="6.16524">
        <ele>519</ele>
        <time>2017-11-16T08:57:56Z</time>
      </trkpt>
      <trkpt lat="47.13878" lon="6.16521">
        <ele>517</ele>
        <time>2017-11-16T08:58:09Z</time>
      </trkpt>
      <trkpt lat="47.13859" lon="6.16506">
        <ele>516</ele>
        <time>2017-11-16T08:58:28Z</time>
      </trkpt>
      <trkpt lat="47.13855" lon="6.16506">
        <ele>516</ele>
        <time>2017-11-16T08:58:34Z</time>
      </trkpt>
      <trkpt lat="47.1385" lon="6.16502">
        <ele>515</ele>
        <time>2017-11-16T08:58:39Z</time>
      </trkpt>
      <trkpt lat="47.13841" lon="6.16494">
        <ele>516</ele>
        <time>2017-11-16T08:58:51Z</time>
      </trkpt>
      <trkpt lat="47.13837" lon="6.16488">
        <ele>516</ele>
        <time>2017-11-16T08:58:56Z</time>
      </trkpt>
      <trkpt lat="47.13834" lon="6.16483">
        <ele>516</ele>
        <time>2017-11-16T08:59:00Z</time>
      </trkpt>
      <trkpt lat="47.13818" lon="6.16464">
        <ele>516</ele>
        <time>2017-11-16T08:59:17Z</time>
      </trkpt>
      <trkpt lat="47.13814" lon="6.16459">
        <ele>515</ele>
        <time>2017-11-16T08:59:22Z</time>
      </trkpt>
      <trkpt lat="47.13808" lon="6.16447">
        <ele>515</ele>
        <time>2017-11-16T08:59:30Z</time>
      </trkpt>
      <trkpt lat="47.13793" lon="6.16426">
        <ele>518</ele>
        <time>2017-11-16T08:59:50Z</time>
      </trkpt>
      <trkpt lat="47.13778" lon="6.16406">
        <ele>517</ele>
        <time>2017-11-16T09:00:06Z</time>
      </trkpt>
      <trkpt lat="47.13775" lon="6.164">
        <ele>517</ele>
        <time>2017-11-16T09:00:11Z</time>
      </trkpt>
      <trkpt lat="47.13771" lon="6.16394">
        <ele>517</ele>
        <time>2017-11-16T09:00:16Z</time>
      </trkpt>
      <trkpt lat="47.13768" lon="6.16387">
        <ele>516</ele>
        <time>2017-11-16T09:00:21Z</time>
      </trkpt>
      <trkpt lat="47.13754" lon="6.16365">
        <ele>518</ele>
        <time>2017-11-16T09:00:41Z</time>
      </trkpt>
      <trkpt lat="47.13735" lon="6.16329">
        <ele>518</ele>
        <time>2017-11-16T09:01:06Z</time>
      </trkpt>
      <trkpt lat="47.13733" lon="6.16323">
        <ele>518</ele>
        <time>2017-11-16T09:01:10Z</time>
      </trkpt>
      <trkpt lat="47.13725" lon="6.16312">
        <ele>519</ele>
        <time>2017-11-16T09:01:20Z</time>
      </trkpt>
      <trkpt lat="47.13722" lon="6.16306">
        <ele>519</ele>
        <time>2017-11-16T09:01:25Z</time>
      </trkpt>
      <trkpt lat="47.13713" lon="6.16288">
        <ele>519</ele>
        <time>2017-11-16T09:01:39Z</time>
      </trkpt>
      <trkpt lat="47.13712" lon="6.16282">
        <ele>519</ele>
        <time>2017-11-16T09:01:44Z</time>
      </trkpt>
      <trkpt lat="47.13709" lon="6.16276">
        <ele>520</ele>
        <time>2017-11-16T09:01:49Z</time>
      </trkpt>
      <trkpt lat="47.137" lon="6.16259">
        <ele>519</ele>
        <time>2017-11-16T09:02:03Z</time>
      </trkpt>
      <trkpt lat="47.13695" lon="6.16257">
        <ele>519</ele>
        <time>2017-11-16T09:02:08Z</time>
      </trkpt>
      <trkpt lat="47.13679" lon="6.16228">
        <ele>515</ele>
        <time>2017-11-16T09:02:33Z</time>
      </trkpt>
      <trkpt lat="47.13668" lon="6.16205">
        <ele>513</ele>
        <time>2017-11-16T09:02:50Z</time>
      </trkpt>
      <trkpt lat="47.13661" lon="6.16196">
        <ele>513</ele>
        <time>2017-11-16T09:03:01Z</time>
      </trkpt>
      <trkpt lat="47.13659" lon="6.16189">
        <ele>513</ele>
        <time>2017-11-16T09:03:06Z</time>
      </trkpt>
      <trkpt lat="47.13652" lon="6.16178">
        <ele>513</ele>
        <time>2017-11-16T09:03:14Z</time>
      </trkpt>
      <trkpt lat="47.13648" lon="6.16173">
        <ele>513</ele>
        <time>2017-11-16T09:03:18Z</time>
      </trkpt>
      <trkpt lat="47.13645" lon="6.16168">
        <ele>513</ele>
        <time>2017-11-16T09:03:23Z</time>
      </trkpt>
      <trkpt lat="47.13638" lon="6.16157">
        <ele>512</ele>
        <time>2017-11-16T09:03:33Z</time>
      </trkpt>
      <trkpt lat="47.13635" lon="6.1615">
        <ele>512</ele>
        <time>2017-11-16T09:03:39Z</time>
      </trkpt>
      <trkpt lat="47.13629" lon="6.1614">
        <ele>512</ele>
        <time>2017-11-16T09:03:51Z</time>
      </trkpt>
      <trkpt lat="47.13617" lon="6.16115">
        <ele>513</ele>
        <time>2017-11-16T09:04:07Z</time>
      </trkpt>
      <trkpt lat="47.13603" lon="6.16092">
        <ele>512</ele>
        <time>2017-11-16T09:04:27Z</time>
      </trkpt>
      <trkpt lat="47.136" lon="6.16087">
        <ele>512</ele>
        <time>2017-11-16T09:04:32Z</time>
      </trkpt>
      <trkpt lat="47.13597" lon="6.16082">
        <ele>512</ele>
        <time>2017-11-16T09:04:37Z</time>
      </trkpt>
      <trkpt lat="47.13576" lon="6.1605">
        <ele>514</ele>
        <time>2017-11-16T09:05:08Z</time>
      </trkpt>
      <trkpt lat="47.13573" lon="6.16045">
        <ele>515</ele>
        <time>2017-11-16T09:05:13Z</time>
      </trkpt>
      <trkpt lat="47.13554" lon="6.16012">
        <ele>517</ele>
        <time>2017-11-16T09:05:40Z</time>
      </trkpt>
      <trkpt lat="47.13551" lon="6.16007">
        <ele>518</ele>
        <time>2017-11-16T09:05:45Z</time>
      </trkpt>
      <trkpt lat="47.13548" lon="6.16001">
        <ele>518</ele>
        <time>2017-11-16T09:05:50Z</time>
      </trkpt>
      <trkpt lat="47.13538" lon="6.15985">
        <ele>518</ele>
        <time>2017-11-16T09:06:03Z</time>
      </trkpt>
      <trkpt lat="47.13535" lon="6.15978">
        <ele>518</ele>
        <time>2017-11-16T09:06:07Z</time>
      </trkpt>
      <trkpt lat="47.13532" lon="6.15973">
        <ele>518</ele>
        <time>2017-11-16T09:06:11Z</time>
      </trkpt>
      <trkpt lat="47.1352" lon="6.1596">
        <ele>519</ele>
        <time>2017-11-16T09:06:30Z</time>
      </trkpt>
      <trkpt lat="47.13515" lon="6.15958">
        <ele>520</ele>
        <time>2017-11-16T09:06:36Z</time>
      </trkpt>
      <trkpt lat="47.13511" lon="6.15961">
        <ele>520</ele>
        <time>2017-11-16T09:06:44Z</time>
      </trkpt>
      <trkpt lat="47.13507" lon="6.15965">
        <ele>520</ele>
        <time>2017-11-16T09:06:50Z</time>
      </trkpt>
      <trkpt lat="47.13502" lon="6.15968">
        <ele>520</ele>
        <time>2017-11-16T09:06:58Z</time>
      </trkpt>
      <trkpt lat="47.13499" lon="6.15974">
        <ele>519</ele>
        <time>2017-11-16T09:07:02Z</time>
      </trkpt>
      <trkpt lat="47.13499" lon="6.1598">
        <ele>519</ele>
        <time>2017-11-16T09:07:06Z</time>
      </trkpt>
      <trkpt lat="47.13494" lon="6.16002">
        <ele>520</ele>
        <time>2017-11-16T09:07:25Z</time>
      </trkpt>
      <trkpt lat="47.13499" lon="6.16002">
        <ele>523</ele>
        <time>2017-11-16T09:08:14Z</time>
      </trkpt>
      <trkpt lat="47.13506" lon="6.16003">
        <ele>527</ele>
        <time>2017-11-16T09:08:50Z</time>
      </trkpt>
      <trkpt lat="47.13512" lon="6.16001">
        <ele>533</ele>
        <time>2017-11-16T09:09:21Z</time>
      </trkpt>
      <trkpt lat="47.1351" lon="6.15994">
        <ele>534</ele>
        <time>2017-11-16T09:09:45Z</time>
      </trkpt>
      <trkpt lat="47.13512" lon="6.15986">
        <ele>533</ele>
        <time>2017-11-16T09:10:00Z</time>
      </trkpt>
      <trkpt lat="47.13507" lon="6.15987">
        <ele>531</ele>
        <time>2017-11-16T09:13:30Z</time>
      </trkpt>
      <trkpt lat="47.13509" lon="6.15911">
        <ele>516</ele>
        <time>2017-11-16T09:19:44Z</time>
      </trkpt>
      <trkpt lat="47.1351" lon="6.15904">
        <ele>516</ele>
        <time>2017-11-16T09:19:51Z</time>
      </trkpt>
      <trkpt lat="47.13509" lon="6.15896">
        <ele>515</ele>
        <time>2017-11-16T09:19:57Z</time>
      </trkpt>
      <trkpt lat="47.13505" lon="6.15883">
        <ele>512</ele>
        <time>2017-11-16T09:20:09Z</time>
      </trkpt>
      <trkpt lat="47.13505" lon="6.15876">
        <ele>511</ele>
        <time>2017-11-16T09:20:13Z</time>
      </trkpt>
      <trkpt lat="47.135" lon="6.15863">
        <ele>508</ele>
        <time>2017-11-16T09:20:24Z</time>
      </trkpt>
      <trkpt lat="47.135" lon="6.15855">
        <ele>507</ele>
        <time>2017-11-16T09:20:30Z</time>
      </trkpt>
      <trkpt lat="47.13497" lon="6.15849">
        <ele>506</ele>
        <time>2017-11-16T09:20:37Z</time>
      </trkpt>
      <trkpt lat="47.13496" lon="6.15841">
        <ele>505</ele>
        <time>2017-11-16T09:20:42Z</time>
      </trkpt>
      <trkpt lat="47.13497" lon="6.15834">
        <ele>504</ele>
        <time>2017-11-16T09:20:47Z</time>
      </trkpt>
      <trkpt lat="47.13499" lon="6.15827">
        <ele>503</ele>
        <time>2017-11-16T09:20:52Z</time>
      </trkpt>
      <trkpt lat="47.13496" lon="6.1579">
        <ele>498</ele>
        <time>2017-11-16T09:21:18Z</time>
      </trkpt>
      <trkpt lat="47.13499" lon="6.15776">
        <ele>497</ele>
        <time>2017-11-16T09:21:28Z</time>
      </trkpt>
      <trkpt lat="47.13498" lon="6.15768">
        <ele>495</ele>
        <time>2017-11-16T09:21:33Z</time>
      </trkpt>
      <trkpt lat="47.13497" lon="6.15761">
        <ele>494</ele>
        <time>2017-11-16T09:21:38Z</time>
      </trkpt>
      <trkpt lat="47.13496" lon="6.15739">
        <ele>493</ele>
        <time>2017-11-16T09:21:52Z</time>
      </trkpt>
      <trkpt lat="47.13494" lon="6.15732">
        <ele>493</ele>
        <time>2017-11-16T09:21:58Z</time>
      </trkpt>
      <trkpt lat="47.13494" lon="6.15725">
        <ele>493</ele>
        <time>2017-11-16T09:22:02Z</time>
      </trkpt>
      <trkpt lat="47.13492" lon="6.15717">
        <ele>492</ele>
        <time>2017-11-16T09:22:07Z</time>
      </trkpt>
      <trkpt lat="47.13492" lon="6.15702">
        <ele>492</ele>
        <time>2017-11-16T09:22:17Z</time>
      </trkpt>
      <trkpt lat="47.13493" lon="6.15695">
        <ele>491</ele>
        <time>2017-11-16T09:22:21Z</time>
      </trkpt>
      <trkpt lat="47.13493" lon="6.15688">
        <ele>491</ele>
        <time>2017-11-16T09:22:26Z</time>
      </trkpt>
      <trkpt lat="47.1349" lon="6.15682">
        <ele>490</ele>
        <time>2017-11-16T09:22:32Z</time>
      </trkpt>
      <trkpt lat="47.13488" lon="6.15667">
        <ele>487</ele>
        <time>2017-11-16T09:22:42Z</time>
      </trkpt>
      <trkpt lat="47.13485" lon="6.15662">
        <ele>486</ele>
        <time>2017-11-16T09:22:47Z</time>
      </trkpt>
      <trkpt lat="47.13482" lon="6.15658">
        <ele>485</ele>
        <time>2017-11-16T09:22:52Z</time>
      </trkpt>
      <trkpt lat="47.13481" lon="6.15651">
        <ele>485</ele>
        <time>2017-11-16T09:22:59Z</time>
      </trkpt>
      <trkpt lat="47.1348" lon="6.15642">
        <ele>484</ele>
        <time>2017-11-16T09:23:19Z</time>
      </trkpt>
      <trkpt lat="47.13481" lon="6.15641">
        <ele>485</ele>
        <time>2017-11-16T09:26:49Z</time>
      </trkpt>
      <trkpt lat="47.13486" lon="6.15639">
        <ele>485</ele>
        <time>2017-11-16T09:26:55Z</time>
      </trkpt>
      <trkpt lat="47.13485" lon="6.15628">
        <ele>482</ele>
        <time>2017-11-16T09:27:07Z</time>
      </trkpt>
      <trkpt lat="47.13489" lon="6.1562">
        <ele>480</ele>
        <time>2017-11-16T09:27:20Z</time>
      </trkpt>
      <trkpt lat="47.1349" lon="6.15613">
        <ele>480</ele>
        <time>2017-11-16T09:27:25Z</time>
      </trkpt>
      <trkpt lat="47.13488" lon="6.15606">
        <ele>480</ele>
        <time>2017-11-16T09:27:31Z</time>
      </trkpt>
      <trkpt lat="47.13488" lon="6.15605">
        <ele>481</ele>
        <time>2017-11-16T09:29:55Z</time>
      </trkpt>
      <trkpt lat="47.13487" lon="6.15614">
        <ele>481</ele>
        <time>2017-11-16T09:30:28Z</time>
      </trkpt>
      <trkpt lat="47.13485" lon="6.15621">
        <ele>481</ele>
        <time>2017-11-16T09:30:36Z</time>
      </trkpt>
      <trkpt lat="47.13485" lon="6.1563">
        <ele>481</ele>
        <time>2017-11-16T09:30:47Z</time>
      </trkpt>
      <trkpt lat="47.13484" lon="6.15636">
        <ele>480</ele>
        <time>2017-11-16T09:30:52Z</time>
      </trkpt>
      <trkpt lat="47.1348" lon="6.1564">
        <ele>481</ele>
        <time>2017-11-16T09:30:59Z</time>
      </trkpt>
      <trkpt lat="47.13479" lon="6.15647">
        <ele>481</ele>
        <time>2017-11-16T09:31:04Z</time>
      </trkpt>
      <trkpt lat="47.1348" lon="6.15654">
        <ele>482</ele>
        <time>2017-11-16T09:31:09Z</time>
      </trkpt>
      <trkpt lat="47.13484" lon="6.15659">
        <ele>483</ele>
        <time>2017-11-16T09:31:15Z</time>
      </trkpt>
      <trkpt lat="47.13488" lon="6.15663">
        <ele>483</ele>
        <time>2017-11-16T09:31:21Z</time>
      </trkpt>
      <trkpt lat="47.1349" lon="6.1567">
        <ele>483</ele>
        <time>2017-11-16T09:31:26Z</time>
      </trkpt>
      <trkpt lat="47.13491" lon="6.15676">
        <ele>482</ele>
        <time>2017-11-16T09:31:31Z</time>
      </trkpt>
      <trkpt lat="47.13494" lon="6.15683">
        <ele>482</ele>
        <time>2017-11-16T09:31:36Z</time>
      </trkpt>
      <trkpt lat="47.13495" lon="6.15689">
        <ele>482</ele>
        <time>2017-11-16T09:31:42Z</time>
      </trkpt>
      <trkpt lat="47.13494" lon="6.15704">
        <ele>481</ele>
        <time>2017-11-16T09:31:54Z</time>
      </trkpt>
      <trkpt lat="47.13494" lon="6.15711">
        <ele>482</ele>
        <time>2017-11-16T09:32:00Z</time>
      </trkpt>
      <trkpt lat="47.13496" lon="6.15718">
        <ele>483</ele>
        <time>2017-11-16T09:32:06Z</time>
      </trkpt>
      <trkpt lat="47.13497" lon="6.15748">
        <ele>487</ele>
        <time>2017-11-16T09:32:26Z</time>
      </trkpt>
      <trkpt lat="47.13499" lon="6.15754">
        <ele>488</ele>
        <time>2017-11-16T09:32:32Z</time>
      </trkpt>
      <trkpt lat="47.13499" lon="6.15769">
        <ele>490</ele>
        <time>2017-11-16T09:32:42Z</time>
      </trkpt>
      <trkpt lat="47.13497" lon="6.15777">
        <ele>491</ele>
        <time>2017-11-16T09:32:48Z</time>
      </trkpt>
      <trkpt lat="47.13497" lon="6.15784">
        <ele>491</ele>
        <time>2017-11-16T09:32:54Z</time>
      </trkpt>
      <trkpt lat="47.13498" lon="6.15791">
        <ele>492</ele>
        <time>2017-11-16T09:32:59Z</time>
      </trkpt>
      <trkpt lat="47.13498" lon="6.15797">
        <ele>492</ele>
        <time>2017-11-16T09:33:04Z</time>
      </trkpt>
      <trkpt lat="47.13498" lon="6.15805">
        <ele>492</ele>
        <time>2017-11-16T09:33:10Z</time>
      </trkpt>
      <trkpt lat="47.13497" lon="6.15812">
        <ele>493</ele>
        <time>2017-11-16T09:33:14Z</time>
      </trkpt>
      <trkpt lat="47.13497" lon="6.15819">
        <ele>494</ele>
        <time>2017-11-16T09:33:19Z</time>
      </trkpt>
      <trkpt lat="47.13497" lon="6.15826">
        <ele>494</ele>
        <time>2017-11-16T09:33:24Z</time>
      </trkpt>
      <trkpt lat="47.13496" lon="6.15833">
        <ele>493</ele>
        <time>2017-11-16T09:33:30Z</time>
      </trkpt>
      <trkpt lat="47.13494" lon="6.15839">
        <ele>494</ele>
        <time>2017-11-16T09:33:34Z</time>
      </trkpt>
      <trkpt lat="47.13494" lon="6.15846">
        <ele>494</ele>
        <time>2017-11-16T09:33:39Z</time>
      </trkpt>
      <trkpt lat="47.13496" lon="6.15852">
        <ele>495</ele>
        <time>2017-11-16T09:33:44Z</time>
      </trkpt>
      <trkpt lat="47.13496" lon="6.1586">
        <ele>496</ele>
        <time>2017-11-16T09:33:50Z</time>
      </trkpt>
      <trkpt lat="47.13497" lon="6.15867">
        <ele>496</ele>
        <time>2017-11-16T09:33:57Z</time>
      </trkpt>
      <trkpt lat="47.13497" lon="6.15874">
        <ele>498</ele>
        <time>2017-11-16T09:34:03Z</time>
      </trkpt>
      <trkpt lat="47.13499" lon="6.15882">
        <ele>498</ele>
        <time>2017-11-16T09:34:09Z</time>
      </trkpt>
      <trkpt lat="47.13501" lon="6.15887">
        <ele>498</ele>
        <time>2017-11-16T09:34:15Z</time>
      </trkpt>
      <trkpt lat="47.13504" lon="6.15901">
        <ele>501</ele>
        <time>2017-11-16T09:34:30Z</time>
      </trkpt>
      <trkpt lat="47.13512" lon="6.15919">
        <ele>506</ele>
        <time>2017-11-16T09:34:56Z</time>
      </trkpt>
      <trkpt lat="47.13516" lon="6.15924">
        <ele>506</ele>
        <time>2017-11-16T09:35:05Z</time>
      </trkpt>
      <trkpt lat="47.13518" lon="6.1593">
        <ele>507</ele>
        <time>2017-11-16T09:35:10Z</time>
      </trkpt>
      <trkpt lat="47.1352" lon="6.15937">
        <ele>507</ele>
        <time>2017-11-16T09:35:15Z</time>
      </trkpt>
      <trkpt lat="47.13526" lon="6.15947">
        <ele>509</ele>
        <time>2017-11-16T09:35:28Z</time>
      </trkpt>
      <trkpt lat="47.13527" lon="6.15954">
        <ele>511</ele>
        <time>2017-11-16T09:35:34Z</time>
      </trkpt>
      <trkpt lat="47.13527" lon="6.15961">
        <ele>512</ele>
        <time>2017-11-16T09:35:42Z</time>
      </trkpt>
      <trkpt lat="47.13529" lon="6.15974">
        <ele>515</ele>
        <time>2017-11-16T09:36:29Z</time>
      </trkpt>
      <trkpt lat="47.1353" lon="6.15981">
        <ele>516</ele>
        <time>2017-11-16T09:36:35Z</time>
      </trkpt>
      <trkpt lat="47.13535" lon="6.15988">
        <ele>519</ele>
        <time>2017-11-16T09:36:46Z</time>
      </trkpt>
      <trkpt lat="47.13534" lon="6.16002">
        <ele>521</ele>
        <time>2017-11-16T09:36:56Z</time>
      </trkpt>
      <trkpt lat="47.13538" lon="6.16007">
        <ele>524</ele>
        <time>2017-11-16T09:37:06Z</time>
      </trkpt>
      <trkpt lat="47.13541" lon="6.16013">
        <ele>524</ele>
        <time>2017-11-16T09:37:12Z</time>
      </trkpt>
      <trkpt lat="47.13543" lon="6.1602">
        <ele>525</ele>
        <time>2017-11-16T09:37:18Z</time>
      </trkpt>
      <trkpt lat="47.13549" lon="6.16025">
        <ele>526</ele>
        <time>2017-11-16T09:37:26Z</time>
      </trkpt>
      <trkpt lat="47.13549" lon="6.16032">
        <ele>527</ele>
        <time>2017-11-16T09:37:33Z</time>
      </trkpt>
      <trkpt lat="47.13548" lon="6.16039">
        <ele>527</ele>
        <time>2017-11-16T09:37:40Z</time>
      </trkpt>
      <trkpt lat="47.13551" lon="6.16062">
        <ele>526</ele>
        <time>2017-11-16T09:38:01Z</time>
      </trkpt>
      <trkpt lat="47.13552" lon="6.1607">
        <ele>527</ele>
        <time>2017-11-16T09:38:07Z</time>
      </trkpt>
      <trkpt lat="47.13553" lon="6.16077">
        <ele>527</ele>
        <time>2017-11-16T09:38:13Z</time>
      </trkpt>
      <trkpt lat="47.13553" lon="6.16085">
        <ele>528</ele>
        <time>2017-11-16T09:38:20Z</time>
      </trkpt>
      <trkpt lat="47.13554" lon="6.16092">
        <ele>528</ele>
        <time>2017-11-16T09:38:26Z</time>
      </trkpt>
      <trkpt lat="47.13555" lon="6.161">
        <ele>528</ele>
        <time>2017-11-16T09:38:32Z</time>
      </trkpt>
      <trkpt lat="47.1356" lon="6.16113">
        <ele>529</ele>
        <time>2017-11-16T09:38:42Z</time>
      </trkpt>
      <trkpt lat="47.13562" lon="6.1612">
        <ele>529</ele>
        <time>2017-11-16T09:38:49Z</time>
      </trkpt>
      <trkpt lat="47.13564" lon="6.16126">
        <ele>529</ele>
        <time>2017-11-16T09:38:54Z</time>
      </trkpt>
      <trkpt lat="47.13569" lon="6.1614">
        <ele>530</ele>
        <time>2017-11-16T09:39:04Z</time>
      </trkpt>
      <trkpt lat="47.13569" lon="6.16148">
        <ele>531</ele>
        <time>2017-11-16T09:39:08Z</time>
      </trkpt>
      <trkpt lat="47.13571" lon="6.16155">
        <ele>532</ele>
        <time>2017-11-16T09:39:13Z</time>
      </trkpt>
      <trkpt lat="47.13576" lon="6.16159">
        <ele>532</ele>
        <time>2017-11-16T09:39:18Z</time>
      </trkpt>
      <trkpt lat="47.13582" lon="6.1617">
        <ele>533</ele>
        <time>2017-11-16T09:39:29Z</time>
      </trkpt>
      <trkpt lat="47.1359" lon="6.16206">
        <ele>534</ele>
        <time>2017-11-16T09:39:50Z</time>
      </trkpt>
      <trkpt lat="47.13592" lon="6.16212">
        <ele>536</ele>
        <time>2017-11-16T09:39:55Z</time>
      </trkpt>
      <trkpt lat="47.13594" lon="6.16219">
        <ele>536</ele>
        <time>2017-11-16T09:40:00Z</time>
      </trkpt>
      <trkpt lat="47.13596" lon="6.16227">
        <ele>536</ele>
        <time>2017-11-16T09:40:04Z</time>
      </trkpt>
      <trkpt lat="47.13596" lon="6.16234">
        <ele>536</ele>
        <time>2017-11-16T09:40:08Z</time>
      </trkpt>
      <trkpt lat="47.13599" lon="6.1624">
        <ele>536</ele>
        <time>2017-11-16T09:40:12Z</time>
      </trkpt>
      <trkpt lat="47.13601" lon="6.16247">
        <ele>536</ele>
        <time>2017-11-16T09:40:17Z</time>
      </trkpt>
      <trkpt lat="47.13607" lon="6.1626">
        <ele>538</ele>
        <time>2017-11-16T09:40:27Z</time>
      </trkpt>
      <trkpt lat="47.1361" lon="6.16274">
        <ele>540</ele>
        <time>2017-11-16T09:40:35Z</time>
      </trkpt>
      <trkpt lat="47.13611" lon="6.16281">
        <ele>540</ele>
        <time>2017-11-16T09:40:40Z</time>
      </trkpt>
      <trkpt lat="47.13613" lon="6.16288">
        <ele>539</ele>
        <time>2017-11-16T09:40:46Z</time>
      </trkpt>
      <trkpt lat="47.13614" lon="6.16296">
        <ele>539</ele>
        <time>2017-11-16T09:40:52Z</time>
      </trkpt>
      <trkpt lat="47.13618" lon="6.1633">
        <ele>540</ele>
        <time>2017-11-16T09:41:13Z</time>
      </trkpt>
      <trkpt lat="47.13617" lon="6.16345">
        <ele>539</ele>
        <time>2017-11-16T09:41:20Z</time>
      </trkpt>
      <trkpt lat="47.13617" lon="6.16375">
        <ele>539</ele>
        <time>2017-11-16T09:41:36Z</time>
      </trkpt>
      <trkpt lat="47.13618" lon="6.16387">
        <ele>538</ele>
        <time>2017-11-16T09:41:44Z</time>
      </trkpt>
      <trkpt lat="47.13614" lon="6.16426">
        <ele>535</ele>
        <time>2017-11-16T09:42:04Z</time>
      </trkpt>
      <trkpt lat="47.13612" lon="6.16457">
        <ele>536</ele>
        <time>2017-11-16T09:42:20Z</time>
      </trkpt>
      <trkpt lat="47.13612" lon="6.16465">
        <ele>535</ele>
        <time>2017-11-16T09:42:24Z</time>
      </trkpt>
      <trkpt lat="47.13612" lon="6.16472">
        <ele>535</ele>
        <time>2017-11-16T09:42:28Z</time>
      </trkpt>
      <trkpt lat="47.13611" lon="6.16488">
        <ele>534</ele>
        <time>2017-11-16T09:42:36Z</time>
      </trkpt>
      <trkpt lat="47.13609" lon="6.16526">
        <ele>535</ele>
        <time>2017-11-16T09:42:56Z</time>
      </trkpt>
      <trkpt lat="47.13607" lon="6.16534">
        <ele>535</ele>
        <time>2017-11-16T09:43:00Z</time>
      </trkpt>
      <trkpt lat="47.13606" lon="6.16541">
        <ele>535</ele>
        <time>2017-11-16T09:43:04Z</time>
      </trkpt>
      <trkpt lat="47.13605" lon="6.16548">
        <ele>534</ele>
        <time>2017-11-16T09:43:08Z</time>
      </trkpt>
      <trkpt lat="47.13604" lon="6.16563">
        <ele>535</ele>
        <time>2017-11-16T09:43:16Z</time>
      </trkpt>
      <trkpt lat="47.13604" lon="6.1657">
        <ele>535</ele>
        <time>2017-11-16T09:43:21Z</time>
      </trkpt>
      <trkpt lat="47.13602" lon="6.16598">
        <ele>536</ele>
        <time>2017-11-16T09:43:48Z</time>
      </trkpt>
      <trkpt lat="47.13601" lon="6.16609">
        <ele>535</ele>
        <time>2017-11-16T09:45:01Z</time>
      </trkpt>
      <trkpt lat="47.13601" lon="6.16617">
        <ele>535</ele>
        <time>2017-11-16T09:45:06Z</time>
      </trkpt>
      <trkpt lat="47.13599" lon="6.16624">
        <ele>535</ele>
        <time>2017-11-16T09:45:11Z</time>
      </trkpt>
      <trkpt lat="47.13597" lon="6.16631">
        <ele>535</ele>
        <time>2017-11-16T09:45:15Z</time>
      </trkpt>
      <trkpt lat="47.13593" lon="6.1665">
        <ele>535</ele>
        <time>2017-11-16T09:45:48Z</time>
      </trkpt>
      <trkpt lat="47.1359" lon="6.16665">
        <ele>534</ele>
        <time>2017-11-16T09:45:56Z</time>
      </trkpt>
      <trkpt lat="47.13587" lon="6.16688">
        <ele>534</ele>
        <time>2017-11-16T09:46:09Z</time>
      </trkpt>
      <trkpt lat="47.13587" lon="6.16695">
        <ele>534</ele>
        <time>2017-11-16T09:46:13Z</time>
      </trkpt>
      <trkpt lat="47.13586" lon="6.16702">
        <ele>533</ele>
        <time>2017-11-16T09:46:19Z</time>
      </trkpt>
      <trkpt lat="47.13587" lon="6.16709">
        <ele>533</ele>
        <time>2017-11-16T09:46:23Z</time>
      </trkpt>
      <trkpt lat="47.13586" lon="6.16725">
        <ele>533</ele>
        <time>2017-11-16T09:46:32Z</time>
      </trkpt>
      <trkpt lat="47.13583" lon="6.16748">
        <ele>533</ele>
        <time>2017-11-16T09:46:44Z</time>
      </trkpt>
      <trkpt lat="47.13581" lon="6.1677">
        <ele>532</ele>
        <time>2017-11-16T09:46:57Z</time>
      </trkpt>
      <trkpt lat="47.13579" lon="6.16778">
        <ele>533</ele>
        <time>2017-11-16T09:47:01Z</time>
      </trkpt>
      <trkpt lat="47.13578" lon="6.16786">
        <ele>533</ele>
        <time>2017-11-16T09:47:05Z</time>
      </trkpt>
      <trkpt lat="47.13576" lon="6.16802">
        <ele>532</ele>
        <time>2017-11-16T09:47:13Z</time>
      </trkpt>
      <trkpt lat="47.13575" lon="6.16809">
        <ele>531</ele>
        <time>2017-11-16T09:47:17Z</time>
      </trkpt>
      <trkpt lat="47.13574" lon="6.16817">
        <ele>531</ele>
        <time>2017-11-16T09:47:21Z</time>
      </trkpt>
      <trkpt lat="47.13574" lon="6.16825">
        <ele>530</ele>
        <time>2017-11-16T09:47:25Z</time>
      </trkpt>
      <trkpt lat="47.13574" lon="6.16833">
        <ele>530</ele>
        <time>2017-11-16T09:47:29Z</time>
      </trkpt>
      <trkpt lat="47.13572" lon="6.16842">
        <ele>530</ele>
        <time>2017-11-16T09:47:34Z</time>
      </trkpt>
      <trkpt lat="47.13569" lon="6.16849">
        <ele>529</ele>
        <time>2017-11-16T09:47:38Z</time>
      </trkpt>
      <trkpt lat="47.13567" lon="6.16855">
        <ele>529</ele>
        <time>2017-11-16T09:47:42Z</time>
      </trkpt>
      <trkpt lat="47.13562" lon="6.16868">
        <ele>528</ele>
        <time>2017-11-16T09:47:52Z</time>
      </trkpt>
      <trkpt lat="47.13559" lon="6.16875">
        <ele>528</ele>
        <time>2017-11-16T09:47:56Z</time>
      </trkpt>
      <trkpt lat="47.13556" lon="6.16881">
        <ele>529</ele>
        <time>2017-11-16T09:47:59Z</time>
      </trkpt>
      <trkpt lat="47.13552" lon="6.16888">
        <ele>529</ele>
        <time>2017-11-16T09:48:03Z</time>
      </trkpt>
      <trkpt lat="47.13545" lon="6.16898">
        <ele>529</ele>
        <time>2017-11-16T09:48:11Z</time>
      </trkpt>
      <trkpt lat="47.1354" lon="6.16902">
        <ele>529</ele>
        <time>2017-11-16T09:48:15Z</time>
      </trkpt>
      <trkpt lat="47.1353" lon="6.16907">
        <ele>530</ele>
        <time>2017-11-16T09:48:23Z</time>
      </trkpt>
      <trkpt lat="47.13509" lon="6.16912">
        <ele>531</ele>
        <time>2017-11-16T09:48:41Z</time>
      </trkpt>
      <trkpt lat="47.13499" lon="6.16917">
        <ele>531</ele>
        <time>2017-11-16T09:48:49Z</time>
      </trkpt>
      <trkpt lat="47.13489" lon="6.16918">
        <ele>531</ele>
        <time>2017-11-16T09:48:57Z</time>
      </trkpt>
      <trkpt lat="47.13474" lon="6.16922">
        <ele>532</ele>
        <time>2017-11-16T09:49:12Z</time>
      </trkpt>
      <trkpt lat="47.13464" lon="6.16925">
        <ele>533</ele>
        <time>2017-11-16T09:49:20Z</time>
      </trkpt>
      <trkpt lat="47.13445" lon="6.16926">
        <ele>532</ele>
        <time>2017-11-16T09:49:40Z</time>
      </trkpt>
      <trkpt lat="47.13439" lon="6.16926">
        <ele>533</ele>
        <time>2017-11-16T09:49:45Z</time>
      </trkpt>
      <trkpt lat="47.13435" lon="6.16924">
        <ele>533</ele>
        <time>2017-11-16T09:49:49Z</time>
      </trkpt>
      <trkpt lat="47.1343" lon="6.16921">
        <ele>534</ele>
        <time>2017-11-16T09:49:53Z</time>
      </trkpt>
      <trkpt lat="47.13411" lon="6.16908">
        <ele>533</ele>
        <time>2017-11-16T09:50:09Z</time>
      </trkpt>
      <trkpt lat="47.13407" lon="6.16903">
        <ele>533</ele>
        <time>2017-11-16T09:50:14Z</time>
      </trkpt>
      <trkpt lat="47.13403" lon="6.16898">
        <ele>533</ele>
        <time>2017-11-16T09:50:18Z</time>
      </trkpt>
      <trkpt lat="47.13398" lon="6.16896">
        <ele>533</ele>
        <time>2017-11-16T09:50:22Z</time>
      </trkpt>
      <trkpt lat="47.13394" lon="6.16891">
        <ele>533</ele>
        <time>2017-11-16T09:50:27Z</time>
      </trkpt>
      <trkpt lat="47.13386" lon="6.16883">
        <ele>535</ele>
        <time>2017-11-16T09:50:37Z</time>
      </trkpt>
      <trkpt lat="47.13374" lon="6.16874">
        <ele>535</ele>
        <time>2017-11-16T09:50:59Z</time>
      </trkpt>
      <trkpt lat="47.13373" lon="6.16867">
        <ele>535</ele>
        <time>2017-11-16T09:51:06Z</time>
      </trkpt>
      <trkpt lat="47.13366" lon="6.16873">
        <ele>536</ele>
        <time>2017-11-16T09:52:01Z</time>
      </trkpt>
      <trkpt lat="47.13363" lon="6.1688">
        <ele>535</ele>
        <time>2017-11-16T09:52:06Z</time>
      </trkpt>
      <trkpt lat="47.13363" lon="6.16881">
        <ele>537</ele>
        <time>2017-11-16T09:52:29Z</time>
      </trkpt>
      <trkpt lat="47.13368" lon="6.16883">
        <ele>537</ele>
        <time>2017-11-16T09:52:33Z</time>
      </trkpt>
      <trkpt lat="47.13373" lon="6.16882">
        <ele>537</ele>
        <time>2017-11-16T09:52:45Z</time>
      </trkpt>
      <trkpt lat="47.13378" lon="6.16882">
        <ele>538</ele>
        <time>2017-11-16T09:52:49Z</time>
      </trkpt>
      <trkpt lat="47.13379" lon="6.16876">
        <ele>537</ele>
        <time>2017-11-16T09:53:06Z</time>
      </trkpt>
      <trkpt lat="47.13374" lon="6.16874">
        <ele>537</ele>
        <time>2017-11-16T09:53:10Z</time>
      </trkpt>
      <trkpt lat="47.13372" lon="6.16867">
        <ele>535</ele>
        <time>2017-11-16T09:53:17Z</time>
      </trkpt>
      <trkpt lat="47.13378" lon="6.16853">
        <ele>534</ele>
        <time>2017-11-16T09:53:26Z</time>
      </trkpt>
      <trkpt lat="47.13379" lon="6.16851">
        <ele>534</ele>
        <time>2017-11-16T09:53:43Z</time>
      </trkpt>
      <trkpt lat="47.13383" lon="6.16865">
        <ele>533</ele>
        <time>2017-11-16T09:53:55Z</time>
      </trkpt>
      <trkpt lat="47.1338" lon="6.16859">
        <ele>533</ele>
        <time>2017-11-16T09:53:57Z</time>
      </trkpt>
      <trkpt lat="47.13378" lon="6.16866">
        <ele>532</ele>
        <time>2017-11-16T09:55:04Z</time>
      </trkpt>
      <trkpt lat="47.13374" lon="6.16874">
        <ele>535</ele>
        <time>2017-11-16T09:55:21Z</time>
      </trkpt>
      <trkpt lat="47.13377" lon="6.1688">
        <ele>536</ele>
        <time>2017-11-16T09:55:27Z</time>
      </trkpt>
      <trkpt lat="47.13392" lon="6.16889">
        <ele>533</ele>
        <time>2017-11-16T09:55:39Z</time>
      </trkpt>
      <trkpt lat="47.13404" lon="6.16902">
        <ele>533</ele>
        <time>2017-11-16T09:55:51Z</time>
      </trkpt>
      <trkpt lat="47.13417" lon="6.16914">
        <ele>533</ele>
        <time>2017-11-16T09:56:03Z</time>
      </trkpt>
      <trkpt lat="47.13421" lon="6.16919">
        <ele>533</ele>
        <time>2017-11-16T09:56:07Z</time>
      </trkpt>
      <trkpt lat="47.13427" lon="6.16929">
        <ele>534</ele>
        <time>2017-11-16T09:56:14Z</time>
      </trkpt>
      <trkpt lat="47.13431" lon="6.16933">
        <ele>534</ele>
        <time>2017-11-16T09:56:18Z</time>
      </trkpt>
      <trkpt lat="47.13436" lon="6.16938">
        <ele>534</ele>
        <time>2017-11-16T09:56:22Z</time>
      </trkpt>
      <trkpt lat="47.1344" lon="6.16941">
        <ele>535</ele>
        <time>2017-11-16T09:56:26Z</time>
      </trkpt>
      <trkpt lat="47.13452" lon="6.16953">
        <ele>535</ele>
        <time>2017-11-16T09:56:36Z</time>
      </trkpt>
      <trkpt lat="47.13456" lon="6.16958">
        <ele>534</ele>
        <time>2017-11-16T09:56:40Z</time>
      </trkpt>
      <trkpt lat="47.13473" lon="6.16978">
        <ele>535</ele>
        <time>2017-11-16T09:56:56Z</time>
      </trkpt>
      <trkpt lat="47.1348" lon="6.16989">
        <ele>535</ele>
        <time>2017-11-16T09:57:05Z</time>
      </trkpt>
      <trkpt lat="47.13484" lon="6.16992">
        <ele>535</ele>
        <time>2017-11-16T09:57:09Z</time>
      </trkpt>
      <trkpt lat="47.13492" lon="6.17">
        <ele>536</ele>
        <time>2017-11-16T09:57:16Z</time>
      </trkpt>
      <trkpt lat="47.13505" lon="6.17014">
        <ele>537</ele>
        <time>2017-11-16T09:57:27Z</time>
      </trkpt>
      <trkpt lat="47.1351" lon="6.17018">
        <ele>536</ele>
        <time>2017-11-16T09:57:31Z</time>
      </trkpt>
      <trkpt lat="47.13515" lon="6.17021">
        <ele>536</ele>
        <time>2017-11-16T09:57:35Z</time>
      </trkpt>
      <trkpt lat="47.13527" lon="6.17034">
        <ele>536</ele>
        <time>2017-11-16T09:57:46Z</time>
      </trkpt>
      <trkpt lat="47.13535" lon="6.17042">
        <ele>536</ele>
        <time>2017-11-16T09:57:54Z</time>
      </trkpt>
      <trkpt lat="47.1354" lon="6.17046">
        <ele>537</ele>
        <time>2017-11-16T09:57:58Z</time>
      </trkpt>
      <trkpt lat="47.13561" lon="6.17068">
        <ele>538</ele>
        <time>2017-11-16T09:58:18Z</time>
      </trkpt>
      <trkpt lat="47.13564" lon="6.17075">
        <ele>538</ele>
        <time>2017-11-16T09:58:22Z</time>
      </trkpt>
      <trkpt lat="47.13573" lon="6.17081">
        <ele>538</ele>
        <time>2017-11-16T09:58:30Z</time>
      </trkpt>
      <trkpt lat="47.13581" lon="6.17089">
        <ele>540</ele>
        <time>2017-11-16T09:58:38Z</time>
      </trkpt>
      <trkpt lat="47.13588" lon="6.17099">
        <ele>541</ele>
        <time>2017-11-16T09:58:48Z</time>
      </trkpt>
      <trkpt lat="47.13592" lon="6.17104">
        <ele>542</ele>
        <time>2017-11-16T09:58:56Z</time>
      </trkpt>
      <trkpt lat="47.13599" lon="6.17109">
        <ele>542</ele>
        <time>2017-11-16T09:59:08Z</time>
      </trkpt>
      <trkpt lat="47.13603" lon="6.17115">
        <ele>542</ele>
        <time>2017-11-16T09:59:13Z</time>
      </trkpt>
      <trkpt lat="47.13607" lon="6.17119">
        <ele>543</ele>
        <time>2017-11-16T09:59:17Z</time>
      </trkpt>
      <trkpt lat="47.13623" lon="6.17138">
        <ele>544</ele>
        <time>2017-11-16T09:59:32Z</time>
      </trkpt>
      <trkpt lat="47.13628" lon="6.17142">
        <ele>544</ele>
        <time>2017-11-16T09:59:36Z</time>
      </trkpt>
      <trkpt lat="47.13633" lon="6.17145">
        <ele>545</ele>
        <time>2017-11-16T09:59:40Z</time>
      </trkpt>
      <trkpt lat="47.13653" lon="6.17158">
        <ele>545</ele>
        <time>2017-11-16T09:59:56Z</time>
      </trkpt>
      <trkpt lat="47.13664" lon="6.1716">
        <ele>545</ele>
        <time>2017-11-16T10:00:04Z</time>
      </trkpt>
      <trkpt lat="47.13674" lon="6.17162">
        <ele>545</ele>
        <time>2017-11-16T10:00:12Z</time>
      </trkpt>
      <trkpt lat="47.1368" lon="6.17163">
        <ele>546</ele>
        <time>2017-11-16T10:00:16Z</time>
      </trkpt>
      <trkpt lat="47.13685" lon="6.17163">
        <ele>546</ele>
        <time>2017-11-16T10:00:20Z</time>
      </trkpt>
      <trkpt lat="47.13701" lon="6.17166">
        <ele>546</ele>
        <time>2017-11-16T10:00:32Z</time>
      </trkpt>
      <trkpt lat="47.13706" lon="6.17164">
        <ele>546</ele>
        <time>2017-11-16T10:00:37Z</time>
      </trkpt>
      <trkpt lat="47.13741" lon="6.1716">
        <ele>549</ele>
        <time>2017-11-16T10:01:05Z</time>
      </trkpt>
      <trkpt lat="47.13776" lon="6.17153">
        <ele>548</ele>
        <time>2017-11-16T10:01:31Z</time>
      </trkpt>
      <trkpt lat="47.13781" lon="6.17154">
        <ele>547</ele>
        <time>2017-11-16T10:01:35Z</time>
      </trkpt>
      <trkpt lat="47.13791" lon="6.17151">
        <ele>548</ele>
        <time>2017-11-16T10:01:43Z</time>
      </trkpt>
      <trkpt lat="47.13831" lon="6.17143">
        <ele>548</ele>
        <time>2017-11-16T10:02:16Z</time>
      </trkpt>
      <trkpt lat="47.13842" lon="6.17141">
        <ele>548</ele>
        <time>2017-11-16T10:02:25Z</time>
      </trkpt>
      <trkpt lat="47.13856" lon="6.1714">
        <ele>545</ele>
        <time>2017-11-16T10:02:37Z</time>
      </trkpt>
      <trkpt lat="47.13861" lon="6.17141">
        <ele>544</ele>
        <time>2017-11-16T10:02:41Z</time>
      </trkpt>
      <trkpt lat="47.13865" lon="6.17143">
        <ele>543</ele>
        <time>2017-11-16T10:02:45Z</time>
      </trkpt>
      <trkpt lat="47.13873" lon="6.17145">
        <ele>543</ele>
        <time>2017-11-16T10:02:58Z</time>
      </trkpt>
      <trkpt lat="47.13911" lon="6.17168">
        <ele>541</ele>
        <time>2017-11-16T10:03:30Z</time>
      </trkpt>
      <trkpt lat="47.13925" lon="6.17177">
        <ele>541</ele>
        <time>2017-11-16T10:03:42Z</time>
      </trkpt>
      <trkpt lat="47.1393" lon="6.1718">
        <ele>541</ele>
        <time>2017-11-16T10:03:46Z</time>
      </trkpt>
      <trkpt lat="47.13942" lon="6.17188">
        <ele>542</ele>
        <time>2017-11-16T10:03:55Z</time>
      </trkpt>
      <trkpt lat="47.13971" lon="6.17205">
        <ele>539</ele>
        <time>2017-11-16T10:04:18Z</time>
      </trkpt>
      <trkpt lat="47.13989" lon="6.17216">
        <ele>540</ele>
        <time>2017-11-16T10:04:33Z</time>
      </trkpt>
      <trkpt lat="47.13993" lon="6.1722">
        <ele>540</ele>
        <time>2017-11-16T10:04:37Z</time>
      </trkpt>
      <trkpt lat="47.14004" lon="6.17238">
        <ele>540</ele>
        <time>2017-11-16T10:04:49Z</time>
      </trkpt>
      <trkpt lat="47.14006" lon="6.17244">
        <ele>540</ele>
        <time>2017-11-16T10:04:53Z</time>
      </trkpt>
      <trkpt lat="47.14009" lon="6.17251">
        <ele>540</ele>
        <time>2017-11-16T10:04:57Z</time>
      </trkpt>
      <trkpt lat="47.14012" lon="6.17257">
        <ele>540</ele>
        <time>2017-11-16T10:05:01Z</time>
      </trkpt>
      <trkpt lat="47.14015" lon="6.17265">
        <ele>540</ele>
        <time>2017-11-16T10:05:05Z</time>
      </trkpt>
      <trkpt lat="47.14025" lon="6.17302">
        <ele>540</ele>
        <time>2017-11-16T10:05:26Z</time>
      </trkpt>
      <trkpt lat="47.14026" lon="6.1731">
        <ele>540</ele>
        <time>2017-11-16T10:05:30Z</time>
      </trkpt>
      <trkpt lat="47.14031" lon="6.17356">
        <ele>540</ele>
        <time>2017-11-16T10:05:54Z</time>
      </trkpt>
      <trkpt lat="47.14035" lon="6.17377">
        <ele>538</ele>
        <time>2017-11-16T10:06:05Z</time>
      </trkpt>
      <trkpt lat="47.14037" lon="6.17394">
        <ele>538</ele>
        <time>2017-11-16T10:06:13Z</time>
      </trkpt>
      <trkpt lat="47.1404" lon="6.17417">
        <ele>537</ele>
        <time>2017-11-16T10:06:25Z</time>
      </trkpt>
      <trkpt lat="47.14041" lon="6.17426">
        <ele>537</ele>
        <time>2017-11-16T10:06:29Z</time>
      </trkpt>
      <trkpt lat="47.14043" lon="6.17432">
        <ele>537</ele>
        <time>2017-11-16T10:06:33Z</time>
      </trkpt>
      <trkpt lat="47.14054" lon="6.17459">
        <ele>537</ele>
        <time>2017-11-16T10:06:49Z</time>
      </trkpt>
      <trkpt lat="47.14057" lon="6.17465">
        <ele>537</ele>
        <time>2017-11-16T10:06:53Z</time>
      </trkpt>
      <trkpt lat="47.14059" lon="6.1747">
        <ele>536</ele>
        <time>2017-11-16T10:06:57Z</time>
      </trkpt>
      <trkpt lat="47.14061" lon="6.17476">
        <ele>536</ele>
        <time>2017-11-16T10:07:01Z</time>
      </trkpt>
      <trkpt lat="47.14062" lon="6.17483">
        <ele>536</ele>
        <time>2017-11-16T10:07:04Z</time>
      </trkpt>
      <trkpt lat="47.14084" lon="6.17539">
        <ele>539</ele>
        <time>2017-11-16T10:07:35Z</time>
      </trkpt>
      <trkpt lat="47.14092" lon="6.1756">
        <ele>540</ele>
        <time>2017-11-16T10:07:47Z</time>
      </trkpt>
      <trkpt lat="47.141" lon="6.17581">
        <ele>543</ele>
        <time>2017-11-16T10:07:59Z</time>
      </trkpt>
      <trkpt lat="47.14103" lon="6.17587">
        <ele>543</ele>
        <time>2017-11-16T10:08:03Z</time>
      </trkpt>
      <trkpt lat="47.14127" lon="6.1764">
        <ele>541</ele>
        <time>2017-11-16T10:08:35Z</time>
      </trkpt>
      <trkpt lat="47.14132" lon="6.17663">
        <ele>541</ele>
        <time>2017-11-16T10:08:47Z</time>
      </trkpt>
      <trkpt lat="47.1414" lon="6.17691">
        <ele>539</ele>
        <time>2017-11-16T10:09:03Z</time>
      </trkpt>
      <trkpt lat="47.14152" lon="6.17724">
        <ele>540</ele>
        <time>2017-11-16T10:09:25Z</time>
      </trkpt>
      <trkpt lat="47.14154" lon="6.17731">
        <ele>540</ele>
        <time>2017-11-16T10:09:29Z</time>
      </trkpt>
      <trkpt lat="47.14159" lon="6.17744">
        <ele>539</ele>
        <time>2017-11-16T10:09:37Z</time>
      </trkpt>
      <trkpt lat="47.14175" lon="6.17784">
        <ele>539</ele>
        <time>2017-11-16T10:10:01Z</time>
      </trkpt>
      <trkpt lat="47.14178" lon="6.1779">
        <ele>538</ele>
        <time>2017-11-16T10:10:05Z</time>
      </trkpt>
      <trkpt lat="47.1418" lon="6.17797">
        <ele>538</ele>
        <time>2017-11-16T10:10:09Z</time>
      </trkpt>
      <trkpt lat="47.14194" lon="6.17833">
        <ele>540</ele>
        <time>2017-11-16T10:10:29Z</time>
      </trkpt>
      <trkpt lat="47.14197" lon="6.17841">
        <ele>541</ele>
        <time>2017-11-16T10:10:36Z</time>
      </trkpt>
      <trkpt lat="47.14214" lon="6.17879">
        <ele>541</ele>
        <time>2017-11-16T10:11:00Z</time>
      </trkpt>
      <trkpt lat="47.14225" lon="6.17897">
        <ele>543</ele>
        <time>2017-11-16T10:11:12Z</time>
      </trkpt>
      <trkpt lat="47.14231" lon="6.1791">
        <ele>543</ele>
        <time>2017-11-16T10:11:20Z</time>
      </trkpt>
      <trkpt lat="47.14237" lon="6.17921">
        <ele>542</ele>
        <time>2017-11-16T10:11:28Z</time>
      </trkpt>
      <trkpt lat="47.14253" lon="6.17952">
        <ele>543</ele>
        <time>2017-11-16T10:11:48Z</time>
      </trkpt>
      <trkpt lat="47.14258" lon="6.17964">
        <ele>543</ele>
        <time>2017-11-16T10:11:56Z</time>
      </trkpt>
      <trkpt lat="47.14273" lon="6.17994">
        <ele>544</ele>
        <time>2017-11-16T10:12:16Z</time>
      </trkpt>
      <trkpt lat="47.14295" lon="6.18036">
        <ele>545</ele>
        <time>2017-11-16T10:12:43Z</time>
      </trkpt>
      <trkpt lat="47.14315" lon="6.18071">
        <ele>545</ele>
        <time>2017-11-16T10:13:07Z</time>
      </trkpt>
      <trkpt lat="47.14317" lon="6.18079">
        <ele>545</ele>
        <time>2017-11-16T10:13:11Z</time>
      </trkpt>
      <trkpt lat="47.14318" lon="6.18085">
        <ele>546</ele>
        <time>2017-11-16T10:13:14Z</time>
      </trkpt>
      <trkpt lat="47.14317" lon="6.18101">
        <ele>545</ele>
        <time>2017-11-16T10:13:22Z</time>
      </trkpt>
      <trkpt lat="47.14315" lon="6.18116">
        <ele>545</ele>
        <time>2017-11-16T10:13:30Z</time>
      </trkpt>
      <trkpt lat="47.14313" lon="6.18123">
        <ele>546</ele>
        <time>2017-11-16T10:13:34Z</time>
      </trkpt>
      <trkpt lat="47.14302" lon="6.18149">
        <ele>544</ele>
        <time>2017-11-16T10:13:50Z</time>
      </trkpt>
      <trkpt lat="47.14299" lon="6.18155">
        <ele>543</ele>
        <time>2017-11-16T10:13:54Z</time>
      </trkpt>
      <trkpt lat="47.14295" lon="6.1816">
        <ele>544</ele>
        <time>2017-11-16T10:13:59Z</time>
      </trkpt>
      <trkpt lat="47.1429" lon="6.18165">
        <ele>543</ele>
        <time>2017-11-16T10:14:04Z</time>
      </trkpt>
      <trkpt lat="47.14286" lon="6.18167">
        <ele>543</ele>
        <time>2017-11-16T10:14:08Z</time>
      </trkpt>
      <trkpt lat="47.14281" lon="6.18166">
        <ele>543</ele>
        <time>2017-11-16T10:14:14Z</time>
      </trkpt>
      <trkpt lat="47.14281" lon="6.18167">
        <ele>543</ele>
        <time>2017-11-16T10:15:18Z</time>
      </trkpt>
      <trkpt lat="47.14281" lon="6.18175">
        <ele>543</ele>
        <time>2017-11-16T10:15:24Z</time>
      </trkpt>
      <trkpt lat="47.14278" lon="6.18181">
        <ele>543</ele>
        <time>2017-11-16T10:15:30Z</time>
      </trkpt>
      <trkpt lat="47.1427" lon="6.18192">
        <ele>542</ele>
        <time>2017-11-16T10:15:38Z</time>
      </trkpt>
      <trkpt lat="47.14263" lon="6.18201">
        <ele>542</ele>
        <time>2017-11-16T10:15:46Z</time>
      </trkpt>
      <trkpt lat="47.14259" lon="6.18205">
        <ele>541</ele>
        <time>2017-11-16T10:15:50Z</time>
      </trkpt>
      <trkpt lat="47.14255" lon="6.18209">
        <ele>541</ele>
        <time>2017-11-16T10:15:54Z</time>
      </trkpt>
      <trkpt lat="47.14252" lon="6.18214">
        <ele>540</ele>
        <time>2017-11-16T10:15:58Z</time>
      </trkpt>
      <trkpt lat="47.14249" lon="6.18219">
        <ele>540</ele>
        <time>2017-11-16T10:16:02Z</time>
      </trkpt>
      <trkpt lat="47.14249" lon="6.18227">
        <ele>540</ele>
        <time>2017-11-16T10:16:07Z</time>
      </trkpt>
      <trkpt lat="47.14251" lon="6.18234">
        <ele>540</ele>
        <time>2017-11-16T10:16:11Z</time>
      </trkpt>
      <trkpt lat="47.14253" lon="6.1824">
        <ele>541</ele>
        <time>2017-11-16T10:16:15Z</time>
      </trkpt>
      <trkpt lat="47.14263" lon="6.18266">
        <ele>540</ele>
        <time>2017-11-16T10:16:32Z</time>
      </trkpt>
      <trkpt lat="47.14267" lon="6.18271">
        <ele>540</ele>
        <time>2017-11-16T10:16:37Z</time>
      </trkpt>
      <trkpt lat="47.14273" lon="6.18282">
        <ele>540</ele>
        <time>2017-11-16T10:16:48Z</time>
      </trkpt>
      <trkpt lat="47.1428" lon="6.18312">
        <ele>541</ele>
        <time>2017-11-16T10:17:03Z</time>
      </trkpt>
      <trkpt lat="47.14281" lon="6.1832">
        <ele>540</ele>
        <time>2017-11-16T10:17:07Z</time>
      </trkpt>
      <trkpt lat="47.14282" lon="6.18328">
        <ele>540</ele>
        <time>2017-11-16T10:17:11Z</time>
      </trkpt>
      <trkpt lat="47.14284" lon="6.18336">
        <ele>540</ele>
        <time>2017-11-16T10:17:15Z</time>
      </trkpt>
      <trkpt lat="47.1429" lon="6.18373">
        <ele>542</ele>
        <time>2017-11-16T10:17:34Z</time>
      </trkpt>
      <trkpt lat="47.14298" lon="6.18392">
        <ele>541</ele>
        <time>2017-11-16T10:17:46Z</time>
      </trkpt>
      <trkpt lat="47.14301" lon="6.18397">
        <ele>541</ele>
        <time>2017-11-16T10:17:50Z</time>
      </trkpt>
      <trkpt lat="47.14309" lon="6.18406">
        <ele>540</ele>
        <time>2017-11-16T10:18:00Z</time>
      </trkpt>
      <trkpt lat="47.1431" lon="6.18413">
        <ele>538</ele>
        <time>2017-11-16T10:18:05Z</time>
      </trkpt>
      <trkpt lat="47.14308" lon="6.1842">
        <ele>537</ele>
        <time>2017-11-16T10:18:09Z</time>
      </trkpt>
      <trkpt lat="47.14308" lon="6.18427">
        <ele>537</ele>
        <time>2017-11-16T10:18:13Z</time>
      </trkpt>
      <trkpt lat="47.14317" lon="6.1847">
        <ele>538</ele>
        <time>2017-11-16T10:18:37Z</time>
      </trkpt>
      <trkpt lat="47.14324" lon="6.18491">
        <ele>540</ele>
        <time>2017-11-16T10:18:49Z</time>
      </trkpt>
      <trkpt lat="47.14327" lon="6.18498">
        <ele>541</ele>
        <time>2017-11-16T10:18:53Z</time>
      </trkpt>
      <trkpt lat="47.14334" lon="6.18507">
        <ele>541</ele>
        <time>2017-11-16T10:19:01Z</time>
      </trkpt>
      <trkpt lat="47.1435" lon="6.18537">
        <ele>543</ele>
        <time>2017-11-16T10:19:21Z</time>
      </trkpt>
      <trkpt lat="47.14353" lon="6.18542">
        <ele>543</ele>
        <time>2017-11-16T10:19:25Z</time>
      </trkpt>
      <trkpt lat="47.14364" lon="6.18556">
        <ele>545</ele>
        <time>2017-11-16T10:19:37Z</time>
      </trkpt>
      <trkpt lat="47.14367" lon="6.18561">
        <ele>545</ele>
        <time>2017-11-16T10:19:41Z</time>
      </trkpt>
      <trkpt lat="47.14377" lon="6.18576">
        <ele>544</ele>
        <time>2017-11-16T10:19:53Z</time>
      </trkpt>
      <trkpt lat="47.14382" lon="6.1858">
        <ele>544</ele>
        <time>2017-11-16T10:19:57Z</time>
      </trkpt>
      <trkpt lat="47.14386" lon="6.18585">
        <ele>544</ele>
        <time>2017-11-16T10:20:01Z</time>
      </trkpt>
      <trkpt lat="47.1441" lon="6.18632">
        <ele>546</ele>
        <time>2017-11-16T10:20:33Z</time>
      </trkpt>
      <trkpt lat="47.14426" lon="6.1867">
        <ele>547</ele>
        <time>2017-11-16T10:20:58Z</time>
      </trkpt>
      <trkpt lat="47.14436" lon="6.18696">
        <ele>550</ele>
        <time>2017-11-16T10:21:14Z</time>
      </trkpt>
      <trkpt lat="47.14439" lon="6.18702">
        <ele>550</ele>
        <time>2017-11-16T10:21:18Z</time>
      </trkpt>
      <trkpt lat="47.14459" lon="6.18752">
        <ele>552</ele>
        <time>2017-11-16T10:21:50Z</time>
      </trkpt>
      <trkpt lat="47.14471" lon="6.18773">
        <ele>550</ele>
        <time>2017-11-16T10:22:06Z</time>
      </trkpt>
      <trkpt lat="47.14474" lon="6.18779">
        <ele>550</ele>
        <time>2017-11-16T10:22:10Z</time>
      </trkpt>
      <trkpt lat="47.14479" lon="6.18792">
        <ele>551</ele>
        <time>2017-11-16T10:22:18Z</time>
      </trkpt>
      <trkpt lat="47.14487" lon="6.18811">
        <ele>551</ele>
        <time>2017-11-16T10:22:30Z</time>
      </trkpt>
      <trkpt lat="47.14492" lon="6.18825">
        <ele>552</ele>
        <time>2017-11-16T10:22:38Z</time>
      </trkpt>
      <trkpt lat="47.145" lon="6.18843">
        <ele>552</ele>
        <time>2017-11-16T10:22:50Z</time>
      </trkpt>
      <trkpt lat="47.14508" lon="6.18862">
        <ele>551</ele>
        <time>2017-11-16T10:23:03Z</time>
      </trkpt>
      <trkpt lat="47.14514" lon="6.18875">
        <ele>551</ele>
        <time>2017-11-16T10:23:11Z</time>
      </trkpt>
      <trkpt lat="47.14519" lon="6.18889">
        <ele>552</ele>
        <time>2017-11-16T10:23:19Z</time>
      </trkpt>
      <trkpt lat="47.14522" lon="6.18895">
        <ele>551</ele>
        <time>2017-11-16T10:23:23Z</time>
      </trkpt>
      <trkpt lat="47.1453" lon="6.18915">
        <ele>553</ele>
        <time>2017-11-16T10:23:36Z</time>
      </trkpt>
      <trkpt lat="47.14532" lon="6.18922">
        <ele>553</ele>
        <time>2017-11-16T10:23:41Z</time>
      </trkpt>
      <trkpt lat="47.14535" lon="6.18929">
        <ele>553</ele>
        <time>2017-11-16T10:23:47Z</time>
      </trkpt>
      <trkpt lat="47.1454" lon="6.18941">
        <ele>553</ele>
        <time>2017-11-16T10:23:55Z</time>
      </trkpt>
      <trkpt lat="47.14542" lon="6.18948">
        <ele>553</ele>
        <time>2017-11-16T10:23:59Z</time>
      </trkpt>
      <trkpt lat="47.14544" lon="6.18954">
        <ele>553</ele>
        <time>2017-11-16T10:24:03Z</time>
      </trkpt>
      <trkpt lat="47.14551" lon="6.18973">
        <ele>554</ele>
        <time>2017-11-16T10:24:16Z</time>
      </trkpt>
      <trkpt lat="47.14554" lon="6.18981">
        <ele>554</ele>
        <time>2017-11-16T10:24:21Z</time>
      </trkpt>
      <trkpt lat="47.14558" lon="6.18993">
        <ele>553</ele>
        <time>2017-11-16T10:24:30Z</time>
      </trkpt>
      <trkpt lat="47.14562" lon="6.19006">
        <ele>553</ele>
        <time>2017-11-16T10:24:39Z</time>
      </trkpt>
      <trkpt lat="47.14565" lon="6.19012">
        <ele>552</ele>
        <time>2017-11-16T10:24:43Z</time>
      </trkpt>
      <trkpt lat="47.14569" lon="6.19027">
        <ele>553</ele>
        <time>2017-11-16T10:24:51Z</time>
      </trkpt>
      <trkpt lat="47.14579" lon="6.19051">
        <ele>552</ele>
        <time>2017-11-16T10:25:09Z</time>
      </trkpt>
      <trkpt lat="47.14585" lon="6.19066">
        <ele>553</ele>
        <time>2017-11-16T10:25:30Z</time>
      </trkpt>
      <trkpt lat="47.14589" lon="6.1908">
        <ele>552</ele>
        <time>2017-11-16T10:25:39Z</time>
      </trkpt>
      <trkpt lat="47.14596" lon="6.19082">
        <ele>553</ele>
        <time>2017-11-16T10:26:01Z</time>
      </trkpt>
      <trkpt lat="47.14602" lon="6.19085">
        <ele>552</ele>
        <time>2017-11-16T10:26:23Z</time>
      </trkpt>
      <trkpt lat="47.14608" lon="6.19085">
        <ele>551</ele>
        <time>2017-11-16T10:26:28Z</time>
      </trkpt>
      <trkpt lat="47.14612" lon="6.19088">
        <ele>551</ele>
        <time>2017-11-16T10:26:32Z</time>
      </trkpt>
      <trkpt lat="47.14646" lon="6.19109">
        <ele>549</ele>
        <time>2017-11-16T10:27:04Z</time>
      </trkpt>
      <trkpt lat="47.14655" lon="6.19114">
        <ele>548</ele>
        <time>2017-11-16T10:27:12Z</time>
      </trkpt>
      <trkpt lat="47.14671" lon="6.19119">
        <ele>548</ele>
        <time>2017-11-16T10:27:26Z</time>
      </trkpt>
      <trkpt lat="47.14681" lon="6.19122">
        <ele>549</ele>
        <time>2017-11-16T10:27:34Z</time>
      </trkpt>
      <trkpt lat="47.1469" lon="6.19116">
        <ele>551</ele>
        <time>2017-11-16T10:27:43Z</time>
      </trkpt>
      <trkpt lat="47.14695" lon="6.19116">
        <ele>552</ele>
        <time>2017-11-16T10:27:47Z</time>
      </trkpt>
      <trkpt lat="47.14699" lon="6.19113">
        <ele>552</ele>
        <time>2017-11-16T10:27:53Z</time>
      </trkpt>
      <trkpt lat="47.14701" lon="6.19105">
        <ele>552</ele>
        <time>2017-11-16T10:27:59Z</time>
      </trkpt>
      <trkpt lat="47.14702" lon="6.19098">
        <ele>552</ele>
        <time>2017-11-16T10:28:03Z</time>
      </trkpt>
      <trkpt lat="47.14701" lon="6.1909">
        <ele>554</ele>
        <time>2017-11-16T10:28:07Z</time>
      </trkpt>
      <trkpt lat="47.14702" lon="6.19083">
        <ele>555</ele>
        <time>2017-11-16T10:28:11Z</time>
      </trkpt>
      <trkpt lat="47.14704" lon="6.19078">
        <ele>556</ele>
        <time>2017-11-16T10:28:16Z</time>
      </trkpt>
      <trkpt lat="47.14708" lon="6.19073">
        <ele>556</ele>
        <time>2017-11-16T10:28:22Z</time>
      </trkpt>
      <trkpt lat="47.14708" lon="6.19059">
        <ele>558</ele>
        <time>2017-11-16T10:29:11Z</time>
      </trkpt>
      <trkpt lat="47.14712" lon="6.19062">
        <ele>558</ele>
        <time>2017-11-16T10:29:34Z</time>
      </trkpt>
      <trkpt lat="47.14709" lon="6.19069">
        <ele>558</ele>
        <time>2017-11-16T10:29:39Z</time>
      </trkpt>
      <trkpt lat="47.14712" lon="6.19074">
        <ele>558</ele>
        <time>2017-11-16T10:29:54Z</time>
      </trkpt>
      <trkpt lat="47.14721" lon="6.19075">
        <ele>559</ele>
        <time>2017-11-16T10:31:56Z</time>
      </trkpt>
      <trkpt lat="47.1473" lon="6.1908">
        <ele>560</ele>
        <time>2017-11-16T10:32:06Z</time>
      </trkpt>
      <trkpt lat="47.14736" lon="6.1908">
        <ele>560</ele>
        <time>2017-11-16T10:32:10Z</time>
      </trkpt>
      <trkpt lat="47.14745" lon="6.19083">
        <ele>560</ele>
        <time>2017-11-16T10:32:17Z</time>
      </trkpt>
      <trkpt lat="47.14759" lon="6.19097">
        <ele>561</ele>
        <time>2017-11-16T10:32:29Z</time>
      </trkpt>
      <trkpt lat="47.14772" lon="6.19109">
        <ele>560</ele>
        <time>2017-11-16T10:32:41Z</time>
      </trkpt>
      <trkpt lat="47.14789" lon="6.19119">
        <ele>560</ele>
        <time>2017-11-16T10:32:57Z</time>
      </trkpt>
      <trkpt lat="47.14799" lon="6.19123">
        <ele>560</ele>
        <time>2017-11-16T10:33:07Z</time>
      </trkpt>
      <trkpt lat="47.14807" lon="6.19119">
        <ele>560</ele>
        <time>2017-11-16T10:33:14Z</time>
      </trkpt>
      <trkpt lat="47.14821" lon="6.19115">
        <ele>558</ele>
        <time>2017-11-16T10:33:25Z</time>
      </trkpt>
      <trkpt lat="47.14826" lon="6.19116">
        <ele>558</ele>
        <time>2017-11-16T10:33:29Z</time>
      </trkpt>
      <trkpt lat="47.14835" lon="6.19119">
        <ele>558</ele>
        <time>2017-11-16T10:33:36Z</time>
      </trkpt>
      <trkpt lat="47.1484" lon="6.19118">
        <ele>558</ele>
        <time>2017-11-16T10:33:40Z</time>
      </trkpt>
      <trkpt lat="47.14869" lon="6.19131">
        <ele>557</ele>
        <time>2017-11-16T10:34:07Z</time>
      </trkpt>
      <trkpt lat="47.14873" lon="6.1913">
        <ele>557</ele>
        <time>2017-11-16T10:34:10Z</time>
      </trkpt>
      <trkpt lat="47.14882" lon="6.19136">
        <ele>558</ele>
        <time>2017-11-16T10:34:19Z</time>
      </trkpt>
      <trkpt lat="47.14888" lon="6.19137">
        <ele>558</ele>
        <time>2017-11-16T10:34:26Z</time>
      </trkpt>
      <trkpt lat="47.14893" lon="6.19137">
        <ele>560</ele>
        <time>2017-11-16T10:34:32Z</time>
      </trkpt>
      <trkpt lat="47.14898" lon="6.19139">
        <ele>560</ele>
        <time>2017-11-16T10:34:37Z</time>
      </trkpt>
      <trkpt lat="47.14901" lon="6.19144">
        <ele>560</ele>
        <time>2017-11-16T10:34:42Z</time>
      </trkpt>
      <trkpt lat="47.14905" lon="6.19149">
        <ele>561</ele>
        <time>2017-11-16T10:35:57Z</time>
      </trkpt>
      <trkpt lat="47.1491" lon="6.19153">
        <ele>560</ele>
        <time>2017-11-16T10:36:02Z</time>
      </trkpt>
      <trkpt lat="47.14909" lon="6.19151">
        <ele>558</ele>
        <time>2017-11-16T10:36:25Z</time>
      </trkpt>
      <trkpt lat="47.14904" lon="6.19149">
        <ele>557</ele>
        <time>2017-11-16T10:36:31Z</time>
      </trkpt>
      <trkpt lat="47.14911" lon="6.19157">
        <ele>558</ele>
        <time>2017-11-16T10:36:58Z</time>
      </trkpt>
      <trkpt lat="47.14911" lon="6.19164">
        <ele>559</ele>
        <time>2017-11-16T10:37:06Z</time>
      </trkpt>
      <trkpt lat="47.14913" lon="6.19179">
        <ele>559</ele>
        <time>2017-11-16T10:37:14Z</time>
      </trkpt>
      <trkpt lat="47.14912" lon="6.19187">
        <ele>558</ele>
        <time>2017-11-16T10:37:19Z</time>
      </trkpt>
      <trkpt lat="47.14914" lon="6.19197">
        <ele>558</ele>
        <time>2017-11-16T10:37:23Z</time>
      </trkpt>
      <trkpt lat="47.14914" lon="6.19204">
        <ele>558</ele>
        <time>2017-11-16T10:37:26Z</time>
      </trkpt>
      <trkpt lat="47.14913" lon="6.19212">
        <ele>558</ele>
        <time>2017-11-16T10:37:29Z</time>
      </trkpt>
      <trkpt lat="47.14913" lon="6.19225">
        <ele>559</ele>
        <time>2017-11-16T10:37:35Z</time>
      </trkpt>
      <trkpt lat="47.14912" lon="6.19233">
        <ele>560</ele>
        <time>2017-11-16T10:37:39Z</time>
      </trkpt>
      <trkpt lat="47.14913" lon="6.19249">
        <ele>560</ele>
        <time>2017-11-16T10:37:46Z</time>
      </trkpt>
      <trkpt lat="47.14913" lon="6.19256">
        <ele>560</ele>
        <time>2017-11-16T10:37:50Z</time>
      </trkpt>
      <trkpt lat="47.14914" lon="6.19271">
        <ele>559</ele>
        <time>2017-11-16T10:37:58Z</time>
      </trkpt>
      <trkpt lat="47.14913" lon="6.19278">
        <ele>559</ele>
        <time>2017-11-16T10:38:01Z</time>
      </trkpt>
      <trkpt lat="47.14915" lon="6.19294">
        <ele>559</ele>
        <time>2017-11-16T10:38:09Z</time>
      </trkpt>
      <trkpt lat="47.14914" lon="6.19302">
        <ele>559</ele>
        <time>2017-11-16T10:38:13Z</time>
      </trkpt>
      <trkpt lat="47.14913" lon="6.1931">
        <ele>559</ele>
        <time>2017-11-16T10:38:17Z</time>
      </trkpt>
      <trkpt lat="47.14913" lon="6.19316">
        <ele>560</ele>
        <time>2017-11-16T10:38:20Z</time>
      </trkpt>
      <trkpt lat="47.14912" lon="6.19324">
        <ele>561</ele>
        <time>2017-11-16T10:38:24Z</time>
      </trkpt>
      <trkpt lat="47.14908" lon="6.19329">
        <ele>562</ele>
        <time>2017-11-16T10:38:28Z</time>
      </trkpt>
      <trkpt lat="47.14906" lon="6.19336">
        <ele>563</ele>
        <time>2017-11-16T10:38:34Z</time>
      </trkpt>
      <trkpt lat="47.14904" lon="6.19342">
        <ele>563</ele>
        <time>2017-11-16T10:38:38Z</time>
      </trkpt>
      <trkpt lat="47.14903" lon="6.1935">
        <ele>563</ele>
        <time>2017-11-16T10:38:42Z</time>
      </trkpt>
      <trkpt lat="47.14899" lon="6.19387">
        <ele>559</ele>
        <time>2017-11-16T10:39:00Z</time>
      </trkpt>
      <trkpt lat="47.14899" lon="6.19416">
        <ele>555</ele>
        <time>2017-11-16T10:39:16Z</time>
      </trkpt>
      <trkpt lat="47.14895" lon="6.19439">
        <ele>551</ele>
        <time>2017-11-16T10:39:32Z</time>
      </trkpt>
      <trkpt lat="47.14894" lon="6.19462">
        <ele>550</ele>
        <time>2017-11-16T10:39:44Z</time>
      </trkpt>
      <trkpt lat="47.14892" lon="6.19477">
        <ele>550</ele>
        <time>2017-11-16T10:39:52Z</time>
      </trkpt>
      <trkpt lat="47.14892" lon="6.19484">
        <ele>550</ele>
        <time>2017-11-16T10:39:56Z</time>
      </trkpt>
      <trkpt lat="47.14891" lon="6.19491">
        <ele>550</ele>
        <time>2017-11-16T10:40:00Z</time>
      </trkpt>
      <trkpt lat="47.14886" lon="6.19511">
        <ele>551</ele>
        <time>2017-11-16T10:40:13Z</time>
      </trkpt>
      <trkpt lat="47.14884" lon="6.19518">
        <ele>551</ele>
        <time>2017-11-16T10:40:16Z</time>
      </trkpt>
      <trkpt lat="47.14883" lon="6.19526">
        <ele>551</ele>
        <time>2017-11-16T10:40:20Z</time>
      </trkpt>
      <trkpt lat="47.14881" lon="6.19533">
        <ele>550</ele>
        <time>2017-11-16T10:40:25Z</time>
      </trkpt>
      <trkpt lat="47.14876" lon="6.19552">
        <ele>549</ele>
        <time>2017-11-16T10:40:39Z</time>
      </trkpt>
      <trkpt lat="47.14876" lon="6.19559">
        <ele>549</ele>
        <time>2017-11-16T10:40:43Z</time>
      </trkpt>
      <trkpt lat="47.14882" lon="6.19588">
        <ele>548</ele>
        <time>2017-11-16T10:41:02Z</time>
      </trkpt>
      <trkpt lat="47.14883" lon="6.19597">
        <ele>547</ele>
        <time>2017-11-16T10:41:18Z</time>
      </trkpt>
      <trkpt lat="47.14883" lon="6.19613">
        <ele>547</ele>
        <time>2017-11-16T10:41:29Z</time>
      </trkpt>
      <trkpt lat="47.14885" lon="6.19619">
        <ele>547</ele>
        <time>2017-11-16T10:41:33Z</time>
      </trkpt>
      <trkpt lat="47.14885" lon="6.19643">
        <ele>546</ele>
        <time>2017-11-16T10:41:55Z</time>
      </trkpt>
      <trkpt lat="47.14886" lon="6.19657">
        <ele>546</ele>
        <time>2017-11-16T10:42:02Z</time>
      </trkpt>
      <trkpt lat="47.14882" lon="6.19672">
        <ele>547</ele>
        <time>2017-11-16T10:42:09Z</time>
      </trkpt>
      <trkpt lat="47.1488" lon="6.19685">
        <ele>547</ele>
        <time>2017-11-16T10:42:17Z</time>
      </trkpt>
      <trkpt lat="47.14881" lon="6.19691">
        <ele>547</ele>
        <time>2017-11-16T10:42:21Z</time>
      </trkpt>
      <trkpt lat="47.1488" lon="6.19698">
        <ele>547</ele>
        <time>2017-11-16T10:42:25Z</time>
      </trkpt>
      <trkpt lat="47.14867" lon="6.19738">
        <ele>540</ele>
        <time>2017-11-16T10:42:59Z</time>
      </trkpt>
      <trkpt lat="47.14852" lon="6.19805">
        <ele>537</ele>
        <time>2017-11-16T10:43:33Z</time>
      </trkpt>
      <trkpt lat="47.14852" lon="6.19818">
        <ele>536</ele>
        <time>2017-11-16T10:43:41Z</time>
      </trkpt>
      <trkpt lat="47.14851" lon="6.19825">
        <ele>536</ele>
        <time>2017-11-16T10:43:46Z</time>
      </trkpt>
      <trkpt lat="47.14849" lon="6.19839">
        <ele>537</ele>
        <time>2017-11-16T10:43:55Z</time>
      </trkpt>
      <trkpt lat="47.14846" lon="6.19862">
        <ele>536</ele>
        <time>2017-11-16T10:44:07Z</time>
      </trkpt>
      <trkpt lat="47.14845" lon="6.1987">
        <ele>536</ele>
        <time>2017-11-16T10:44:12Z</time>
      </trkpt>
      <trkpt lat="47.14844" lon="6.19878">
        <ele>536</ele>
        <time>2017-11-16T10:44:16Z</time>
      </trkpt>
      <trkpt lat="47.14845" lon="6.19893">
        <ele>536</ele>
        <time>2017-11-16T10:44:24Z</time>
      </trkpt>
      <trkpt lat="47.14846" lon="6.199">
        <ele>536</ele>
        <time>2017-11-16T10:44:28Z</time>
      </trkpt>
      <trkpt lat="47.14852" lon="6.19922">
        <ele>536</ele>
        <time>2017-11-16T10:44:40Z</time>
      </trkpt>
      <trkpt lat="47.14855" lon="6.19928">
        <ele>536</ele>
        <time>2017-11-16T10:44:44Z</time>
      </trkpt>
      <trkpt lat="47.14863" lon="6.19973">
        <ele>536</ele>
        <time>2017-11-16T10:45:08Z</time>
      </trkpt>
      <trkpt lat="47.14866" lon="6.20012">
        <ele>538</ele>
        <time>2017-11-16T10:45:28Z</time>
      </trkpt>
      <trkpt lat="47.14864" lon="6.20025">
        <ele>539</ele>
        <time>2017-11-16T10:45:38Z</time>
      </trkpt>
      <trkpt lat="47.14859" lon="6.20038">
        <ele>541</ele>
        <time>2017-11-16T10:45:45Z</time>
      </trkpt>
      <trkpt lat="47.14834" lon="6.20083">
        <ele>544</ele>
        <time>2017-11-16T10:46:16Z</time>
      </trkpt>
      <trkpt lat="47.14817" lon="6.20114">
        <ele>546</ele>
        <time>2017-11-16T10:46:36Z</time>
      </trkpt>
      <trkpt lat="47.14808" lon="6.20131">
        <ele>547</ele>
        <time>2017-11-16T10:46:48Z</time>
      </trkpt>
      <trkpt lat="47.14785" lon="6.20178">
        <ele>551</ele>
        <time>2017-11-16T10:47:21Z</time>
      </trkpt>
      <trkpt lat="47.14773" lon="6.20211">
        <ele>555</ele>
        <time>2017-11-16T10:47:42Z</time>
      </trkpt>
      <trkpt lat="47.14757" lon="6.20233">
        <ele>558</ele>
        <time>2017-11-16T10:47:58Z</time>
      </trkpt>
      <trkpt lat="47.14734" lon="6.20269">
        <ele>559</ele>
        <time>2017-11-16T10:48:22Z</time>
      </trkpt>
      <trkpt lat="47.14733" lon="6.20276">
        <ele>557</ele>
        <time>2017-11-16T10:48:25Z</time>
      </trkpt>
      <trkpt lat="47.14737" lon="6.20299">
        <ele>554</ele>
        <time>2017-11-16T10:48:36Z</time>
      </trkpt>
      <trkpt lat="47.14739" lon="6.20307">
        <ele>553</ele>
        <time>2017-11-16T10:48:40Z</time>
      </trkpt>
      <trkpt lat="47.14745" lon="6.20327">
        <ele>552</ele>
        <time>2017-11-16T10:48:52Z</time>
      </trkpt>
      <trkpt lat="47.14747" lon="6.20334">
        <ele>553</ele>
        <time>2017-11-16T10:48:56Z</time>
      </trkpt>
      <trkpt lat="47.14748" lon="6.20341">
        <ele>553</ele>
        <time>2017-11-16T10:49:00Z</time>
      </trkpt>
      <trkpt lat="47.14751" lon="6.20364">
        <ele>551</ele>
        <time>2017-11-16T10:49:13Z</time>
      </trkpt>
      <trkpt lat="47.14747" lon="6.20401">
        <ele>553</ele>
        <time>2017-11-16T10:49:34Z</time>
      </trkpt>
      <trkpt lat="47.1475" lon="6.20415">
        <ele>554</ele>
        <time>2017-11-16T10:49:42Z</time>
      </trkpt>
      <trkpt lat="47.14751" lon="6.20432">
        <ele>554</ele>
        <time>2017-11-16T10:49:50Z</time>
      </trkpt>
      <trkpt lat="47.14754" lon="6.20447">
        <ele>553</ele>
        <time>2017-11-16T10:49:58Z</time>
      </trkpt>
      <trkpt lat="47.14754" lon="6.20455">
        <ele>554</ele>
        <time>2017-11-16T10:50:02Z</time>
      </trkpt>
      <trkpt lat="47.14755" lon="6.20462">
        <ele>554</ele>
        <time>2017-11-16T10:50:06Z</time>
      </trkpt>
      <trkpt lat="47.14756" lon="6.20477">
        <ele>554</ele>
        <time>2017-11-16T10:50:14Z</time>
      </trkpt>
      <trkpt lat="47.14761" lon="6.20515">
        <ele>554</ele>
        <time>2017-11-16T10:50:34Z</time>
      </trkpt>
      <trkpt lat="47.14762" lon="6.20523">
        <ele>554</ele>
        <time>2017-11-16T10:50:38Z</time>
      </trkpt>
      <trkpt lat="47.14765" lon="6.20529">
        <ele>554</ele>
        <time>2017-11-16T10:50:43Z</time>
      </trkpt>
      <trkpt lat="47.14771" lon="6.20543">
        <ele>551</ele>
        <time>2017-11-16T10:50:53Z</time>
      </trkpt>
      <trkpt lat="47.14774" lon="6.20548">
        <ele>551</ele>
        <time>2017-11-16T10:50:57Z</time>
      </trkpt>
      <trkpt lat="47.14778" lon="6.20552">
        <ele>550</ele>
        <time>2017-11-16T10:51:01Z</time>
      </trkpt>
      <trkpt lat="47.14783" lon="6.20553">
        <ele>550</ele>
        <time>2017-11-16T10:51:06Z</time>
      </trkpt>
      <trkpt lat="47.14789" lon="6.20559">
        <ele>550</ele>
        <time>2017-11-16T10:51:19Z</time>
      </trkpt>
      <trkpt lat="47.14794" lon="6.20564">
        <ele>550</ele>
        <time>2017-11-16T10:51:23Z</time>
      </trkpt>
      <trkpt lat="47.14803" lon="6.2057">
        <ele>549</ele>
        <time>2017-11-16T10:51:31Z</time>
      </trkpt>
      <trkpt lat="47.14807" lon="6.20575">
        <ele>548</ele>
        <time>2017-11-16T10:51:36Z</time>
      </trkpt>
      <trkpt lat="47.1481" lon="6.20581">
        <ele>548</ele>
        <time>2017-11-16T10:51:40Z</time>
      </trkpt>
      <trkpt lat="47.14821" lon="6.20598">
        <ele>549</ele>
        <time>2017-11-16T10:51:52Z</time>
      </trkpt>
      <trkpt lat="47.14826" lon="6.20611">
        <ele>549</ele>
        <time>2017-11-16T10:52:01Z</time>
      </trkpt>
      <trkpt lat="47.14829" lon="6.20617">
        <ele>549</ele>
        <time>2017-11-16T10:52:05Z</time>
      </trkpt>
      <trkpt lat="47.1483" lon="6.20631">
        <ele>550</ele>
        <time>2017-11-16T10:52:14Z</time>
      </trkpt>
      <trkpt lat="47.14833" lon="6.20645">
        <ele>551</ele>
        <time>2017-11-16T10:52:22Z</time>
      </trkpt>
      <trkpt lat="47.14834" lon="6.20653">
        <ele>551</ele>
        <time>2017-11-16T10:52:26Z</time>
      </trkpt>
      <trkpt lat="47.14832" lon="6.20692">
        <ele>550</ele>
        <time>2017-11-16T10:52:44Z</time>
      </trkpt>
      <trkpt lat="47.14831" lon="6.20737">
        <ele>548</ele>
        <time>2017-11-16T10:53:08Z</time>
      </trkpt>
      <trkpt lat="47.14833" lon="6.20744">
        <ele>548</ele>
        <time>2017-11-16T10:53:13Z</time>
      </trkpt>
      <trkpt lat="47.14837" lon="6.20767">
        <ele>547</ele>
        <time>2017-11-16T10:53:26Z</time>
      </trkpt>
      <trkpt lat="47.14854" lon="6.20806">
        <ele>546</ele>
        <time>2017-11-16T10:53:50Z</time>
      </trkpt>
      <trkpt lat="47.14864" lon="6.20824">
        <ele>546</ele>
        <time>2017-11-16T10:54:02Z</time>
      </trkpt>
      <trkpt lat="47.14876" lon="6.2084">
        <ele>545</ele>
        <time>2017-11-16T10:54:14Z</time>
      </trkpt>
      <trkpt lat="47.14881" lon="6.20844">
        <ele>544</ele>
        <time>2017-11-16T10:54:18Z</time>
      </trkpt>
      <trkpt lat="47.14901" lon="6.20869">
        <ele>544</ele>
        <time>2017-11-16T10:54:38Z</time>
      </trkpt>
      <trkpt lat="47.14908" lon="6.2088">
        <ele>543</ele>
        <time>2017-11-16T10:54:48Z</time>
      </trkpt>
      <trkpt lat="47.14911" lon="6.20886">
        <ele>543</ele>
        <time>2017-11-16T10:54:52Z</time>
      </trkpt>
      <trkpt lat="47.14916" lon="6.209">
        <ele>541</ele>
        <time>2017-11-16T10:55:07Z</time>
      </trkpt>
      <trkpt lat="47.14918" lon="6.20914">
        <ele>541</ele>
        <time>2017-11-16T10:55:15Z</time>
      </trkpt>
      <trkpt lat="47.14919" lon="6.20923">
        <ele>541</ele>
        <time>2017-11-16T10:55:19Z</time>
      </trkpt>
      <trkpt lat="47.1492" lon="6.2093">
        <ele>541</ele>
        <time>2017-11-16T10:55:23Z</time>
      </trkpt>
      <trkpt lat="47.14921" lon="6.20938">
        <ele>541</ele>
        <time>2017-11-16T10:55:27Z</time>
      </trkpt>
      <trkpt lat="47.14923" lon="6.20953">
        <ele>541</ele>
        <time>2017-11-16T10:55:35Z</time>
      </trkpt>
      <trkpt lat="47.14924" lon="6.2096">
        <ele>540</ele>
        <time>2017-11-16T10:55:40Z</time>
      </trkpt>
      <trkpt lat="47.14926" lon="6.20983">
        <ele>538</ele>
        <time>2017-11-16T10:55:54Z</time>
      </trkpt>
      <trkpt lat="47.14925" lon="6.2099">
        <ele>537</ele>
        <time>2017-11-16T10:55:58Z</time>
      </trkpt>
      <trkpt lat="47.14922" lon="6.21003">
        <ele>537</ele>
        <time>2017-11-16T10:56:06Z</time>
      </trkpt>
      <trkpt lat="47.14912" lon="6.21037">
        <ele>538</ele>
        <time>2017-11-16T10:56:25Z</time>
      </trkpt>
      <trkpt lat="47.14903" lon="6.21055">
        <ele>538</ele>
        <time>2017-11-16T10:56:38Z</time>
      </trkpt>
      <trkpt lat="47.14899" lon="6.21057">
        <ele>538</ele>
        <time>2017-11-16T10:56:41Z</time>
      </trkpt>
      <trkpt lat="47.14895" lon="6.21063">
        <ele>538</ele>
        <time>2017-11-16T10:56:45Z</time>
      </trkpt>
      <trkpt lat="47.14893" lon="6.21071">
        <ele>538</ele>
        <time>2017-11-16T10:56:49Z</time>
      </trkpt>
      <trkpt lat="47.14888" lon="6.21092">
        <ele>539</ele>
        <time>2017-11-16T10:57:01Z</time>
      </trkpt>
      <trkpt lat="47.14886" lon="6.21107">
        <ele>540</ele>
        <time>2017-11-16T10:57:10Z</time>
      </trkpt>
      <trkpt lat="47.14884" lon="6.21131">
        <ele>538</ele>
        <time>2017-11-16T10:57:22Z</time>
      </trkpt>
      <trkpt lat="47.14882" lon="6.21167">
        <ele>537</ele>
        <time>2017-11-16T10:57:42Z</time>
      </trkpt>
      <trkpt lat="47.1488" lon="6.21174">
        <ele>537</ele>
        <time>2017-11-16T10:57:47Z</time>
      </trkpt>
      <trkpt lat="47.14873" lon="6.21184">
        <ele>537</ele>
        <time>2017-11-16T10:57:55Z</time>
      </trkpt>
      <trkpt lat="47.14854" lon="6.2121">
        <ele>534</ele>
        <time>2017-11-16T10:58:17Z</time>
      </trkpt>
      <trkpt lat="47.1485" lon="6.21222">
        <ele>533</ele>
        <time>2017-11-16T10:58:27Z</time>
      </trkpt>
      <trkpt lat="47.14847" lon="6.2123">
        <ele>533</ele>
        <time>2017-11-16T10:58:31Z</time>
      </trkpt>
      <trkpt lat="47.14846" lon="6.21237">
        <ele>533</ele>
        <time>2017-11-16T10:58:36Z</time>
      </trkpt>
      <trkpt lat="47.14845" lon="6.21253">
        <ele>532</ele>
        <time>2017-11-16T10:58:45Z</time>
      </trkpt>
      <trkpt lat="47.14844" lon="6.21268">
        <ele>532</ele>
        <time>2017-11-16T10:58:53Z</time>
      </trkpt>
      <trkpt lat="47.14841" lon="6.21289">
        <ele>532</ele>
        <time>2017-11-16T10:59:05Z</time>
      </trkpt>
      <trkpt lat="47.1484" lon="6.21296">
        <ele>532</ele>
        <time>2017-11-16T10:59:09Z</time>
      </trkpt>
      <trkpt lat="47.14841" lon="6.2132">
        <ele>532</ele>
        <time>2017-11-16T10:59:21Z</time>
      </trkpt>
      <trkpt lat="47.14841" lon="6.21328">
        <ele>533</ele>
        <time>2017-11-16T10:59:24Z</time>
      </trkpt>
      <trkpt lat="47.14841" lon="6.21336">
        <ele>533</ele>
        <time>2017-11-16T10:59:28Z</time>
      </trkpt>
      <trkpt lat="47.1484" lon="6.21343">
        <ele>532</ele>
        <time>2017-11-16T10:59:32Z</time>
      </trkpt>
      <trkpt lat="47.14838" lon="6.21351">
        <ele>532</ele>
        <time>2017-11-16T10:59:36Z</time>
      </trkpt>
      <trkpt lat="47.14834" lon="6.21356">
        <ele>533</ele>
        <time>2017-11-16T10:59:40Z</time>
      </trkpt>
      <trkpt lat="47.14828" lon="6.21358">
        <ele>533</ele>
        <time>2017-11-16T10:59:45Z</time>
      </trkpt>
      <trkpt lat="47.14823" lon="6.2136">
        <ele>534</ele>
        <time>2017-11-16T10:59:50Z</time>
      </trkpt>
      <trkpt lat="47.14818" lon="6.21359">
        <ele>534</ele>
        <time>2017-11-16T10:59:55Z</time>
      </trkpt>
      <trkpt lat="47.14813" lon="6.21355">
        <ele>534</ele>
        <time>2017-11-16T11:00:00Z</time>
      </trkpt>
      <trkpt lat="47.14809" lon="6.21352">
        <ele>534</ele>
        <time>2017-11-16T11:00:04Z</time>
      </trkpt>
      <trkpt lat="47.14804" lon="6.2135">
        <ele>535</ele>
        <time>2017-11-16T11:00:09Z</time>
      </trkpt>
      <trkpt lat="47.14798" lon="6.2135">
        <ele>535</ele>
        <time>2017-11-16T11:00:15Z</time>
      </trkpt>
      <trkpt lat="47.14789" lon="6.21346">
        <ele>535</ele>
        <time>2017-11-16T11:00:24Z</time>
      </trkpt>
      <trkpt lat="47.14766" lon="6.21357">
        <ele>535</ele>
        <time>2017-11-16T11:00:45Z</time>
      </trkpt>
      <trkpt lat="47.14761" lon="6.2136">
        <ele>535</ele>
        <time>2017-11-16T11:00:51Z</time>
      </trkpt>
      <trkpt lat="47.14752" lon="6.21367">
        <ele>535</ele>
        <time>2017-11-16T11:01:04Z</time>
      </trkpt>
      <trkpt lat="47.14746" lon="6.21366">
        <ele>535</ele>
        <time>2017-11-16T11:01:22Z</time>
      </trkpt>
      <trkpt lat="47.14737" lon="6.21365">
        <ele>536</ele>
        <time>2017-11-16T11:01:30Z</time>
      </trkpt>
      <trkpt lat="47.14716" lon="6.21359">
        <ele>536</ele>
        <time>2017-11-16T11:01:48Z</time>
      </trkpt>
      <trkpt lat="47.14707" lon="6.21355">
        <ele>537</ele>
        <time>2017-11-16T11:01:58Z</time>
      </trkpt>
      <trkpt lat="47.14699" lon="6.21346">
        <ele>539</ele>
        <time>2017-11-16T11:02:07Z</time>
      </trkpt>
      <trkpt lat="47.14697" lon="6.2134">
        <ele>539</ele>
        <time>2017-11-16T11:02:12Z</time>
      </trkpt>
      <trkpt lat="47.14693" lon="6.21326">
        <ele>540</ele>
        <time>2017-11-16T11:02:22Z</time>
      </trkpt>
      <trkpt lat="47.14691" lon="6.21319">
        <ele>540</ele>
        <time>2017-11-16T11:02:26Z</time>
      </trkpt>
      <trkpt lat="47.14688" lon="6.21304">
        <ele>541</ele>
        <time>2017-11-16T11:02:36Z</time>
      </trkpt>
      <trkpt lat="47.14686" lon="6.21297">
        <ele>541</ele>
        <time>2017-11-16T11:02:40Z</time>
      </trkpt>
      <trkpt lat="47.14685" lon="6.21291">
        <ele>541</ele>
        <time>2017-11-16T11:02:44Z</time>
      </trkpt>
      <trkpt lat="47.14683" lon="6.21284">
        <ele>541</ele>
        <time>2017-11-16T11:02:49Z</time>
      </trkpt>
      <trkpt lat="47.14674" lon="6.21266">
        <ele>542</ele>
        <time>2017-11-16T11:03:03Z</time>
      </trkpt>
      <trkpt lat="47.14666" lon="6.21257">
        <ele>542</ele>
        <time>2017-11-16T11:03:12Z</time>
      </trkpt>
      <trkpt lat="47.14657" lon="6.21252">
        <ele>543</ele>
        <time>2017-11-16T11:03:20Z</time>
      </trkpt>
      <trkpt lat="47.14651" lon="6.21252">
        <ele>543</ele>
        <time>2017-11-16T11:03:24Z</time>
      </trkpt>
      <trkpt lat="47.14648" lon="6.21259">
        <ele>543</ele>
        <time>2017-11-16T11:03:29Z</time>
      </trkpt>
      <trkpt lat="47.14648" lon="6.21266">
        <ele>543</ele>
        <time>2017-11-16T11:03:34Z</time>
      </trkpt>
      <trkpt lat="47.14644" lon="6.21308">
        <ele>546</ele>
        <time>2017-11-16T11:04:02Z</time>
      </trkpt>
      <trkpt lat="47.14641" lon="6.21313">
        <ele>546</ele>
        <time>2017-11-16T11:04:22Z</time>
      </trkpt>
      <trkpt lat="47.14638" lon="6.21318">
        <ele>546</ele>
        <time>2017-11-16T11:04:29Z</time>
      </trkpt>
      <trkpt lat="47.14638" lon="6.21325">
        <ele>545</ele>
        <time>2017-11-16T11:04:49Z</time>
      </trkpt>
      <trkpt lat="47.14637" lon="6.21332">
        <ele>544</ele>
        <time>2017-11-16T11:04:54Z</time>
      </trkpt>
      <trkpt lat="47.14636" lon="6.21329">
        <ele>544</ele>
        <time>2017-11-16T11:05:46Z</time>
      </trkpt>
      <trkpt lat="47.14636" lon="6.21321">
        <ele>543</ele>
        <time>2017-11-16T11:06:04Z</time>
      </trkpt>
      <trkpt lat="47.14637" lon="6.21314">
        <ele>542</ele>
        <time>2017-11-16T11:06:09Z</time>
      </trkpt>
      <trkpt lat="47.14641" lon="6.21309">
        <ele>541</ele>
        <time>2017-11-16T11:06:15Z</time>
      </trkpt>
      <trkpt lat="47.1464" lon="6.21348">
        <ele>547</ele>
        <time>2017-11-16T11:42:58Z</time>
      </trkpt>
      <trkpt lat="47.1464" lon="6.21356">
        <ele>546</ele>
        <time>2017-11-16T11:43:02Z</time>
      </trkpt>
      <trkpt lat="47.14643" lon="6.21392">
        <ele>546</ele>
        <time>2017-11-16T11:43:25Z</time>
      </trkpt>
      <trkpt lat="47.14644" lon="6.21401">
        <ele>545</ele>
        <time>2017-11-16T11:43:30Z</time>
      </trkpt>
      <trkpt lat="47.14645" lon="6.21416">
        <ele>545</ele>
        <time>2017-11-16T11:43:38Z</time>
      </trkpt>
      <trkpt lat="47.14648" lon="6.21431">
        <ele>545</ele>
        <time>2017-11-16T11:43:47Z</time>
      </trkpt>
      <trkpt lat="47.1465" lon="6.21437">
        <ele>545</ele>
        <time>2017-11-16T11:43:51Z</time>
      </trkpt>
      <trkpt lat="47.14659" lon="6.21455">
        <ele>546</ele>
        <time>2017-11-16T11:44:04Z</time>
      </trkpt>
      <trkpt lat="47.14661" lon="6.21461">
        <ele>546</ele>
        <time>2017-11-16T11:44:08Z</time>
      </trkpt>
      <trkpt lat="47.14664" lon="6.21466">
        <ele>546</ele>
        <time>2017-11-16T11:44:12Z</time>
      </trkpt>
      <trkpt lat="47.14667" lon="6.21471">
        <ele>546</ele>
        <time>2017-11-16T11:44:16Z</time>
      </trkpt>
      <trkpt lat="47.14691" lon="6.21509">
        <ele>547</ele>
        <time>2017-11-16T11:44:46Z</time>
      </trkpt>
      <trkpt lat="47.14697" lon="6.21519">
        <ele>547</ele>
        <time>2017-11-16T11:44:54Z</time>
      </trkpt>
      <trkpt lat="47.147" lon="6.21526">
        <ele>547</ele>
        <time>2017-11-16T11:44:59Z</time>
      </trkpt>
      <trkpt lat="47.14699" lon="6.21535">
        <ele>547</ele>
        <time>2017-11-16T11:45:03Z</time>
      </trkpt>
      <trkpt lat="47.14689" lon="6.21569">
        <ele>548</ele>
        <time>2017-11-16T11:45:24Z</time>
      </trkpt>
      <trkpt lat="47.14687" lon="6.2159">
        <ele>549</ele>
        <time>2017-11-16T11:45:34Z</time>
      </trkpt>
      <trkpt lat="47.14683" lon="6.21619">
        <ele>549</ele>
        <time>2017-11-16T11:45:50Z</time>
      </trkpt>
      <trkpt lat="47.14682" lon="6.21626">
        <ele>548</ele>
        <time>2017-11-16T11:45:54Z</time>
      </trkpt>
      <trkpt lat="47.14677" lon="6.21649">
        <ele>551</ele>
        <time>2017-11-16T11:46:06Z</time>
      </trkpt>
      <trkpt lat="47.14669" lon="6.21668">
        <ele>551</ele>
        <time>2017-11-16T11:46:18Z</time>
      </trkpt>
      <trkpt lat="47.14659" lon="6.21684">
        <ele>551</ele>
        <time>2017-11-16T11:46:31Z</time>
      </trkpt>
      <trkpt lat="47.14656" lon="6.21691">
        <ele>551</ele>
        <time>2017-11-16T11:46:35Z</time>
      </trkpt>
      <trkpt lat="47.14651" lon="6.21703">
        <ele>552</ele>
        <time>2017-11-16T11:46:43Z</time>
      </trkpt>
      <trkpt lat="47.14637" lon="6.21739">
        <ele>552</ele>
        <time>2017-11-16T11:47:17Z</time>
      </trkpt>
      <trkpt lat="47.14633" lon="6.21753">
        <ele>550</ele>
        <time>2017-11-16T11:47:25Z</time>
      </trkpt>
      <trkpt lat="47.14613" lon="6.21787">
        <ele>548</ele>
        <time>2017-11-16T11:47:50Z</time>
      </trkpt>
      <trkpt lat="47.14609" lon="6.21792">
        <ele>548</ele>
        <time>2017-11-16T11:47:54Z</time>
      </trkpt>
      <trkpt lat="47.146" lon="6.21804">
        <ele>549</ele>
        <time>2017-11-16T11:48:04Z</time>
      </trkpt>
      <trkpt lat="47.14593" lon="6.21816">
        <ele>550</ele>
        <time>2017-11-16T11:48:13Z</time>
      </trkpt>
      <trkpt lat="47.14568" lon="6.21845">
        <ele>553</ele>
        <time>2017-11-16T11:48:44Z</time>
      </trkpt>
      <trkpt lat="47.14564" lon="6.21847">
        <ele>553</ele>
        <time>2017-11-16T11:48:48Z</time>
      </trkpt>
      <trkpt lat="47.14531" lon="6.21871">
        <ele>558</ele>
        <time>2017-11-16T11:49:21Z</time>
      </trkpt>
      <trkpt lat="47.14493" lon="6.21885">
        <ele>560</ele>
        <time>2017-11-16T11:49:53Z</time>
      </trkpt>
      <trkpt lat="47.14455" lon="6.219">
        <ele>558</ele>
        <time>2017-11-16T11:50:25Z</time>
      </trkpt>
      <trkpt lat="47.14445" lon="6.21903">
        <ele>558</ele>
        <time>2017-11-16T11:50:34Z</time>
      </trkpt>
      <trkpt lat="47.14411" lon="6.21912">
        <ele>560</ele>
        <time>2017-11-16T11:51:05Z</time>
      </trkpt>
      <trkpt lat="47.14392" lon="6.21918">
        <ele>560</ele>
        <time>2017-11-16T11:51:21Z</time>
      </trkpt>
      <trkpt lat="47.14378" lon="6.21927">
        <ele>561</ele>
        <time>2017-11-16T11:51:33Z</time>
      </trkpt>
      <trkpt lat="47.14365" lon="6.2194">
        <ele>562</ele>
        <time>2017-11-16T11:51:45Z</time>
      </trkpt>
      <trkpt lat="47.14357" lon="6.21949">
        <ele>562</ele>
        <time>2017-11-16T11:51:53Z</time>
      </trkpt>
      <trkpt lat="47.14323" lon="6.21979">
        <ele>564</ele>
        <time>2017-11-16T11:52:25Z</time>
      </trkpt>
      <trkpt lat="47.14318" lon="6.21983">
        <ele>564</ele>
        <time>2017-11-16T11:52:29Z</time>
      </trkpt>
      <trkpt lat="47.14295" lon="6.21996">
        <ele>565</ele>
        <time>2017-11-16T11:52:50Z</time>
      </trkpt>
      <trkpt lat="47.1429" lon="6.21996">
        <ele>565</ele>
        <time>2017-11-16T11:52:54Z</time>
      </trkpt>
      <trkpt lat="47.1426" lon="6.21994">
        <ele>562</ele>
        <time>2017-11-16T11:53:18Z</time>
      </trkpt>
      <trkpt lat="47.1424" lon="6.21997">
        <ele>560</ele>
        <time>2017-11-16T11:53:34Z</time>
      </trkpt>
      <trkpt lat="47.14235" lon="6.21996">
        <ele>560</ele>
        <time>2017-11-16T11:53:38Z</time>
      </trkpt>
      <trkpt lat="47.14228" lon="6.21986">
        <ele>560</ele>
        <time>2017-11-16T11:53:46Z</time>
      </trkpt>
      <trkpt lat="47.14215" lon="6.21962">
        <ele>561</ele>
        <time>2017-11-16T11:54:03Z</time>
      </trkpt>
      <trkpt lat="47.14211" lon="6.21958">
        <ele>561</ele>
        <time>2017-11-16T11:54:07Z</time>
      </trkpt>
      <trkpt lat="47.14206" lon="6.21955">
        <ele>562</ele>
        <time>2017-11-16T11:54:12Z</time>
      </trkpt>
      <trkpt lat="47.14201" lon="6.21955">
        <ele>562</ele>
        <time>2017-11-16T11:54:16Z</time>
      </trkpt>
      <trkpt lat="47.14191" lon="6.2195">
        <ele>564</ele>
        <time>2017-11-16T11:54:24Z</time>
      </trkpt>
      <trkpt lat="47.14185" lon="6.21946">
        <ele>564</ele>
        <time>2017-11-16T11:54:28Z</time>
      </trkpt>
      <trkpt lat="47.14176" lon="6.21943">
        <ele>566</ele>
        <time>2017-11-16T11:54:38Z</time>
      </trkpt>
      <trkpt lat="47.14168" lon="6.21943">
        <ele>565</ele>
        <time>2017-11-16T11:54:47Z</time>
      </trkpt>
      <trkpt lat="47.14162" lon="6.21942">
        <ele>566</ele>
        <time>2017-11-16T11:54:51Z</time>
      </trkpt>
      <trkpt lat="47.14152" lon="6.21945">
        <ele>566</ele>
        <time>2017-11-16T11:54:59Z</time>
      </trkpt>
      <trkpt lat="47.14148" lon="6.21948">
        <ele>566</ele>
        <time>2017-11-16T11:55:03Z</time>
      </trkpt>
      <trkpt lat="47.14137" lon="6.21946">
        <ele>567</ele>
        <time>2017-11-16T11:55:11Z</time>
      </trkpt>
      <trkpt lat="47.14101" lon="6.21957">
        <ele>570</ele>
        <time>2017-11-16T11:55:47Z</time>
      </trkpt>
      <trkpt lat="47.14092" lon="6.2196">
        <ele>571</ele>
        <time>2017-11-16T11:55:56Z</time>
      </trkpt>
      <trkpt lat="47.14082" lon="6.21959">
        <ele>571</ele>
        <time>2017-11-16T11:56:06Z</time>
      </trkpt>
      <trkpt lat="47.14064" lon="6.21962">
        <ele>574</ele>
        <time>2017-11-16T11:56:24Z</time>
      </trkpt>
      <trkpt lat="47.14027" lon="6.2198">
        <ele>577</ele>
        <time>2017-11-16T11:56:58Z</time>
      </trkpt>
      <trkpt lat="47.14017" lon="6.21981">
        <ele>577</ele>
        <time>2017-11-16T11:57:09Z</time>
      </trkpt>
      <trkpt lat="47.14015" lon="6.2199">
        <ele>580</ele>
        <time>2017-11-16T11:57:39Z</time>
      </trkpt>
      <trkpt lat="47.14008" lon="6.21991">
        <ele>580</ele>
        <time>2017-11-16T12:00:00Z</time>
      </trkpt>
      <trkpt lat="47.13996" lon="6.21989">
        <ele>583</ele>
        <time>2017-11-16T12:00:08Z</time>
      </trkpt>
      <trkpt lat="47.13984" lon="6.21988">
        <ele>584</ele>
        <time>2017-11-16T12:00:18Z</time>
      </trkpt>
      <trkpt lat="47.1398" lon="6.21991">
        <ele>584</ele>
        <time>2017-11-16T12:00:22Z</time>
      </trkpt>
      <trkpt lat="47.13976" lon="6.21996">
        <ele>584</ele>
        <time>2017-11-16T12:00:26Z</time>
      </trkpt>
      <trkpt lat="47.13971" lon="6.22">
        <ele>584</ele>
        <time>2017-11-16T12:00:30Z</time>
      </trkpt>
      <trkpt lat="47.1396" lon="6.22002">
        <ele>583</ele>
        <time>2017-11-16T12:00:38Z</time>
      </trkpt>
      <trkpt lat="47.13953" lon="6.22003">
        <ele>583</ele>
        <time>2017-11-16T12:00:51Z</time>
      </trkpt>
      <trkpt lat="47.13935" lon="6.22012">
        <ele>581</ele>
        <time>2017-11-16T12:01:10Z</time>
      </trkpt>
      <trkpt lat="47.13931" lon="6.22009">
        <ele>580</ele>
        <time>2017-11-16T12:01:16Z</time>
      </trkpt>
      <trkpt lat="47.13927" lon="6.22005">
        <ele>581</ele>
        <time>2017-11-16T12:01:21Z</time>
      </trkpt>
      <trkpt lat="47.13922" lon="6.22001">
        <ele>580</ele>
        <time>2017-11-16T12:01:27Z</time>
      </trkpt>
      <trkpt lat="47.13918" lon="6.22">
        <ele>579</ele>
        <time>2017-11-16T12:01:33Z</time>
      </trkpt>
      <trkpt lat="47.13913" lon="6.21997">
        <ele>578</ele>
        <time>2017-11-16T12:01:38Z</time>
      </trkpt>
      <trkpt lat="47.13908" lon="6.21997">
        <ele>578</ele>
        <time>2017-11-16T12:01:44Z</time>
      </trkpt>
      <trkpt lat="47.13903" lon="6.21998">
        <ele>578</ele>
        <time>2017-11-16T12:01:49Z</time>
      </trkpt>
      <trkpt lat="47.13899" lon="6.21999">
        <ele>578</ele>
        <time>2017-11-16T12:01:54Z</time>
      </trkpt>
      <trkpt lat="47.13888" lon="6.22001">
        <ele>577</ele>
        <time>2017-11-16T12:02:03Z</time>
      </trkpt>
      <trkpt lat="47.13884" lon="6.22004">
        <ele>577</ele>
        <time>2017-11-16T12:02:08Z</time>
      </trkpt>
      <trkpt lat="47.1388" lon="6.22006">
        <ele>576</ele>
        <time>2017-11-16T12:02:13Z</time>
      </trkpt>
      <trkpt lat="47.13874" lon="6.22006">
        <ele>576</ele>
        <time>2017-11-16T12:02:18Z</time>
      </trkpt>
      <trkpt lat="47.13869" lon="6.22008">
        <ele>576</ele>
        <time>2017-11-16T12:02:23Z</time>
      </trkpt>
      <trkpt lat="47.1386" lon="6.22012">
        <ele>577</ele>
        <time>2017-11-16T12:02:34Z</time>
      </trkpt>
      <trkpt lat="47.13856" lon="6.22016">
        <ele>577</ele>
        <time>2017-11-16T12:02:38Z</time>
      </trkpt>
      <trkpt lat="47.13846" lon="6.2202">
        <ele>576</ele>
        <time>2017-11-16T12:02:46Z</time>
      </trkpt>
      <trkpt lat="47.13837" lon="6.22026">
        <ele>574</ele>
        <time>2017-11-16T12:02:54Z</time>
      </trkpt>
      <trkpt lat="47.13834" lon="6.22032">
        <ele>573</ele>
        <time>2017-11-16T12:02:59Z</time>
      </trkpt>
      <trkpt lat="47.13831" lon="6.22039">
        <ele>572</ele>
        <time>2017-11-16T12:03:04Z</time>
      </trkpt>
      <trkpt lat="47.13829" lon="6.22046">
        <ele>571</ele>
        <time>2017-11-16T12:03:08Z</time>
      </trkpt>
      <trkpt lat="47.13827" lon="6.22053">
        <ele>571</ele>
        <time>2017-11-16T12:03:14Z</time>
      </trkpt>
      <trkpt lat="47.13826" lon="6.22068">
        <ele>569</ele>
        <time>2017-11-16T12:03:24Z</time>
      </trkpt>
      <trkpt lat="47.13816" lon="6.22118">
        <ele>563</ele>
        <time>2017-11-16T12:03:56Z</time>
      </trkpt>
      <trkpt lat="47.13808" lon="6.22153">
        <ele>558</ele>
        <time>2017-11-16T12:04:19Z</time>
      </trkpt>
      <trkpt lat="47.13805" lon="6.2216">
        <ele>558</ele>
        <time>2017-11-16T12:04:24Z</time>
      </trkpt>
      <trkpt lat="47.13803" lon="6.22167">
        <ele>558</ele>
        <time>2017-11-16T12:04:29Z</time>
      </trkpt>
      <trkpt lat="47.13797" lon="6.22187">
        <ele>556</ele>
        <time>2017-11-16T12:04:46Z</time>
      </trkpt>
      <trkpt lat="47.13795" lon="6.22203">
        <ele>554</ele>
        <time>2017-11-16T12:04:54Z</time>
      </trkpt>
      <trkpt lat="47.13796" lon="6.22209">
        <ele>554</ele>
        <time>2017-11-16T12:04:59Z</time>
      </trkpt>
      <trkpt lat="47.13793" lon="6.22216">
        <ele>553</ele>
        <time>2017-11-16T12:05:04Z</time>
      </trkpt>
      <trkpt lat="47.1379" lon="6.22221">
        <ele>552</ele>
        <time>2017-11-16T12:05:09Z</time>
      </trkpt>
      <trkpt lat="47.13786" lon="6.22227">
        <ele>551</ele>
        <time>2017-11-16T12:05:14Z</time>
      </trkpt>
      <trkpt lat="47.13783" lon="6.22233">
        <ele>548</ele>
        <time>2017-11-16T12:05:20Z</time>
      </trkpt>
      <trkpt lat="47.1378" lon="6.22255">
        <ele>546</ele>
        <time>2017-11-16T12:05:35Z</time>
      </trkpt>
      <trkpt lat="47.13779" lon="6.22262">
        <ele>546</ele>
        <time>2017-11-16T12:05:41Z</time>
      </trkpt>
      <trkpt lat="47.13777" lon="6.22269">
        <ele>546</ele>
        <time>2017-11-16T12:05:45Z</time>
      </trkpt>
      <trkpt lat="47.13775" lon="6.22276">
        <ele>545</ele>
        <time>2017-11-16T12:05:49Z</time>
      </trkpt>
      <trkpt lat="47.13778" lon="6.22328">
        <ele>539</ele>
        <time>2017-11-16T12:06:23Z</time>
      </trkpt>
      <trkpt lat="47.1378" lon="6.2235">
        <ele>536</ele>
        <time>2017-11-16T12:06:37Z</time>
      </trkpt>
      <trkpt lat="47.1379" lon="6.22392">
        <ele>533</ele>
        <time>2017-11-16T12:07:06Z</time>
      </trkpt>
      <trkpt lat="47.13793" lon="6.22398">
        <ele>531</ele>
        <time>2017-11-16T12:07:13Z</time>
      </trkpt>
      <trkpt lat="47.13802" lon="6.22416">
        <ele>530</ele>
        <time>2017-11-16T12:07:27Z</time>
      </trkpt>
      <trkpt lat="47.13806" lon="6.22421">
        <ele>530</ele>
        <time>2017-11-16T12:07:33Z</time>
      </trkpt>
      <trkpt lat="47.13808" lon="6.22427">
        <ele>530</ele>
        <time>2017-11-16T12:07:37Z</time>
      </trkpt>
      <trkpt lat="47.13811" lon="6.22433">
        <ele>529</ele>
        <time>2017-11-16T12:07:43Z</time>
      </trkpt>
      <trkpt lat="47.13812" lon="6.22439">
        <ele>528</ele>
        <time>2017-11-16T12:07:48Z</time>
      </trkpt>
      <trkpt lat="47.13812" lon="6.22452">
        <ele>525</ele>
        <time>2017-11-16T12:08:06Z</time>
      </trkpt>
      <trkpt lat="47.13805" lon="6.22453">
        <ele>522</ele>
        <time>2017-11-16T12:08:25Z</time>
      </trkpt>
      <trkpt lat="47.13796" lon="6.22451">
        <ele>521</ele>
        <time>2017-11-16T12:08:36Z</time>
      </trkpt>
      <trkpt lat="47.13791" lon="6.22452">
        <ele>520</ele>
        <time>2017-11-16T12:08:41Z</time>
      </trkpt>
      <trkpt lat="47.1379" lon="6.22444">
        <ele>521</ele>
        <time>2017-11-16T12:08:54Z</time>
      </trkpt>
      <trkpt lat="47.13792" lon="6.22437">
        <ele>521</ele>
        <time>2017-11-16T12:09:00Z</time>
      </trkpt>
      <trkpt lat="47.13787" lon="6.22432">
        <ele>521</ele>
        <time>2017-11-16T12:09:39Z</time>
      </trkpt>
      <trkpt lat="47.13782" lon="6.22429">
        <ele>522</ele>
        <time>2017-11-16T12:09:45Z</time>
      </trkpt>
      <trkpt lat="47.13778" lon="6.22424">
        <ele>522</ele>
        <time>2017-11-16T12:09:50Z</time>
      </trkpt>
      <trkpt lat="47.13772" lon="6.22414">
        <ele>523</ele>
        <time>2017-11-16T12:10:00Z</time>
      </trkpt>
      <trkpt lat="47.13768" lon="6.2241">
        <ele>523</ele>
        <time>2017-11-16T12:10:05Z</time>
      </trkpt>
      <trkpt lat="47.13764" lon="6.224">
        <ele>524</ele>
        <time>2017-11-16T12:10:22Z</time>
      </trkpt>
      <trkpt lat="47.1376" lon="6.22395">
        <ele>523</ele>
        <time>2017-11-16T12:10:46Z</time>
      </trkpt>
      <trkpt lat="47.13757" lon="6.2239">
        <ele>522</ele>
        <time>2017-11-16T12:10:57Z</time>
      </trkpt>
      <trkpt lat="47.13753" lon="6.22384">
        <ele>521</ele>
        <time>2017-11-16T12:11:02Z</time>
      </trkpt>
      <trkpt lat="47.13749" lon="6.22378">
        <ele>521</ele>
        <time>2017-11-16T12:11:08Z</time>
      </trkpt>
      <trkpt lat="47.13745" lon="6.22374">
        <ele>522</ele>
        <time>2017-11-16T12:11:14Z</time>
      </trkpt>
      <trkpt lat="47.13742" lon="6.22369">
        <ele>523</ele>
        <time>2017-11-16T12:11:22Z</time>
      </trkpt>
      <trkpt lat="47.13738" lon="6.22365">
        <ele>523</ele>
        <time>2017-11-16T12:11:28Z</time>
      </trkpt>
      <trkpt lat="47.13735" lon="6.22357">
        <ele>525</ele>
        <time>2017-11-16T12:11:55Z</time>
      </trkpt>
      <trkpt lat="47.13728" lon="6.22341">
        <ele>526</ele>
        <time>2017-11-16T12:12:16Z</time>
      </trkpt>
      <trkpt lat="47.13716" lon="6.22327">
        <ele>526</ele>
        <time>2017-11-16T12:12:30Z</time>
      </trkpt>
      <trkpt lat="47.13712" lon="6.22322">
        <ele>527</ele>
        <time>2017-11-16T12:12:36Z</time>
      </trkpt>
      <trkpt lat="47.13706" lon="6.22312">
        <ele>527</ele>
        <time>2017-11-16T12:12:53Z</time>
      </trkpt>
      <trkpt lat="47.137" lon="6.22301">
        <ele>527</ele>
        <time>2017-11-16T12:13:03Z</time>
      </trkpt>
      <trkpt lat="47.13694" lon="6.22295">
        <ele>527</ele>
        <time>2017-11-16T12:13:18Z</time>
      </trkpt>
      <trkpt lat="47.13682" lon="6.22262">
        <ele>526</ele>
        <time>2017-11-16T12:13:40Z</time>
      </trkpt>
      <trkpt lat="47.1368" lon="6.22255">
        <ele>526</ele>
        <time>2017-11-16T12:13:46Z</time>
      </trkpt>
      <trkpt lat="47.13678" lon="6.22247">
        <ele>526</ele>
        <time>2017-11-16T12:13:51Z</time>
      </trkpt>
      <trkpt lat="47.13672" lon="6.22219">
        <ele>526</ele>
        <time>2017-11-16T12:14:07Z</time>
      </trkpt>
      <trkpt lat="47.1367" lon="6.22212">
        <ele>525</ele>
        <time>2017-11-16T12:14:12Z</time>
      </trkpt>
      <trkpt lat="47.13668" lon="6.22195">
        <ele>525</ele>
        <time>2017-11-16T12:14:20Z</time>
      </trkpt>
      <trkpt lat="47.13667" lon="6.22188">
        <ele>525</ele>
        <time>2017-11-16T12:14:24Z</time>
      </trkpt>
      <trkpt lat="47.13665" lon="6.22182">
        <ele>526</ele>
        <time>2017-11-16T12:14:28Z</time>
      </trkpt>
      <trkpt lat="47.13666" lon="6.22173">
        <ele>527</ele>
        <time>2017-11-16T12:14:47Z</time>
      </trkpt>
      <trkpt lat="47.13665" lon="6.22159">
        <ele>527</ele>
        <time>2017-11-16T12:15:00Z</time>
      </trkpt>
      <trkpt lat="47.13663" lon="6.22153">
        <ele>527</ele>
        <time>2017-11-16T12:15:08Z</time>
      </trkpt>
      <trkpt lat="47.13662" lon="6.22146">
        <ele>527</ele>
        <time>2017-11-16T12:15:16Z</time>
      </trkpt>
      <trkpt lat="47.13662" lon="6.22139">
        <ele>527</ele>
        <time>2017-11-16T12:15:20Z</time>
      </trkpt>
      <trkpt lat="47.13659" lon="6.22132">
        <ele>527</ele>
        <time>2017-11-16T12:15:25Z</time>
      </trkpt>
      <trkpt lat="47.13659" lon="6.22125">
        <ele>528</ele>
        <time>2017-11-16T12:15:30Z</time>
      </trkpt>
      <trkpt lat="47.13656" lon="6.22118">
        <ele>528</ele>
        <time>2017-11-16T12:15:35Z</time>
      </trkpt>
      <trkpt lat="47.13651" lon="6.22099">
        <ele>528</ele>
        <time>2017-11-16T12:15:49Z</time>
      </trkpt>
      <trkpt lat="47.13648" lon="6.22085">
        <ele>527</ele>
        <time>2017-11-16T12:15:57Z</time>
      </trkpt>
      <trkpt lat="47.13643" lon="6.2206">
        <ele>526</ele>
        <time>2017-11-16T12:16:12Z</time>
      </trkpt>
      <trkpt lat="47.13642" lon="6.22045">
        <ele>526</ele>
        <time>2017-11-16T12:16:22Z</time>
      </trkpt>
      <trkpt lat="47.13646" lon="6.22027">
        <ele>524</ele>
        <time>2017-11-16T12:17:50Z</time>
      </trkpt>
      <trkpt lat="47.13642" lon="6.22006">
        <ele>521</ele>
        <time>2017-11-16T12:18:05Z</time>
      </trkpt>
      <trkpt lat="47.13638" lon="6.21985">
        <ele>523</ele>
        <time>2017-11-16T12:18:17Z</time>
      </trkpt>
      <trkpt lat="47.13639" lon="6.2197">
        <ele>524</ele>
        <time>2017-11-16T12:18:38Z</time>
      </trkpt>
      <trkpt lat="47.13643" lon="6.21966">
        <ele>523</ele>
        <time>2017-11-16T12:19:20Z</time>
      </trkpt>
      <trkpt lat="47.1364" lon="6.21959">
        <ele>523</ele>
        <time>2017-11-16T12:19:31Z</time>
      </trkpt>
      <trkpt lat="47.13642" lon="6.21951">
        <ele>523</ele>
        <time>2017-11-16T12:19:35Z</time>
      </trkpt>
      <trkpt lat="47.13643" lon="6.21938">
        <ele>523</ele>
        <time>2017-11-16T12:19:44Z</time>
      </trkpt>
      <trkpt lat="47.1364" lon="6.21917">
        <ele>523</ele>
        <time>2017-11-16T12:19:56Z</time>
      </trkpt>
      <trkpt lat="47.13638" lon="6.2191">
        <ele>524</ele>
        <time>2017-11-16T12:20:00Z</time>
      </trkpt>
      <trkpt lat="47.13634" lon="6.21905">
        <ele>524</ele>
        <time>2017-11-16T12:20:05Z</time>
      </trkpt>
      <trkpt lat="47.1363" lon="6.21902">
        <ele>524</ele>
        <time>2017-11-16T12:20:09Z</time>
      </trkpt>
      <trkpt lat="47.13627" lon="6.21895">
        <ele>524</ele>
        <time>2017-11-16T12:20:13Z</time>
      </trkpt>
      <trkpt lat="47.13626" lon="6.21887">
        <ele>524</ele>
        <time>2017-11-16T12:20:17Z</time>
      </trkpt>
      <trkpt lat="47.13626" lon="6.2188">
        <ele>525</ele>
        <time>2017-11-16T12:20:21Z</time>
      </trkpt>
      <trkpt lat="47.13623" lon="6.21876">
        <ele>525</ele>
        <time>2017-11-16T12:20:26Z</time>
      </trkpt>
      <trkpt lat="47.13615" lon="6.21845">
        <ele>524</ele>
        <time>2017-11-16T12:20:45Z</time>
      </trkpt>
      <trkpt lat="47.13612" lon="6.21839">
        <ele>524</ele>
        <time>2017-11-16T12:20:49Z</time>
      </trkpt>
      <trkpt lat="47.13607" lon="6.21833">
        <ele>525</ele>
        <time>2017-11-16T12:20:53Z</time>
      </trkpt>
      <trkpt lat="47.13589" lon="6.21819">
        <ele>523</ele>
        <time>2017-11-16T12:21:09Z</time>
      </trkpt>
      <trkpt lat="47.13581" lon="6.2181">
        <ele>523</ele>
        <time>2017-11-16T12:21:18Z</time>
      </trkpt>
      <trkpt lat="47.13573" lon="6.21808">
        <ele>521</ele>
        <time>2017-11-16T12:21:45Z</time>
      </trkpt>
      <trkpt lat="47.1357" lon="6.21802">
        <ele>521</ele>
        <time>2017-11-16T12:21:51Z</time>
      </trkpt>
      <trkpt lat="47.13562" lon="6.21794">
        <ele>523</ele>
        <time>2017-11-16T12:22:08Z</time>
      </trkpt>
      <trkpt lat="47.13557" lon="6.21795">
        <ele>524</ele>
        <time>2017-11-16T12:22:14Z</time>
      </trkpt>
      <trkpt lat="47.13547" lon="6.21798">
        <ele>523</ele>
        <time>2017-11-16T12:22:25Z</time>
      </trkpt>
      <trkpt lat="47.13542" lon="6.21799">
        <ele>523</ele>
        <time>2017-11-16T12:22:30Z</time>
      </trkpt>
      <trkpt lat="47.13533" lon="6.21797">
        <ele>523</ele>
        <time>2017-11-16T12:22:38Z</time>
      </trkpt>
      <trkpt lat="47.13528" lon="6.21796">
        <ele>523</ele>
        <time>2017-11-16T12:22:44Z</time>
      </trkpt>
      <trkpt lat="47.13524" lon="6.21792">
        <ele>525</ele>
        <time>2017-11-16T12:22:50Z</time>
      </trkpt>
      <trkpt lat="47.1352" lon="6.21793">
        <ele>526</ele>
        <time>2017-11-16T12:22:56Z</time>
      </trkpt>
      <trkpt lat="47.13515" lon="6.21793">
        <ele>527</ele>
        <time>2017-11-16T12:23:02Z</time>
      </trkpt>
      <trkpt lat="47.13513" lon="6.21786">
        <ele>526</ele>
        <time>2017-11-16T12:23:41Z</time>
      </trkpt>
      <trkpt lat="47.13509" lon="6.21781">
        <ele>525</ele>
        <time>2017-11-16T12:23:46Z</time>
      </trkpt>
      <trkpt lat="47.13504" lon="6.21782">
        <ele>524</ele>
        <time>2017-11-16T12:23:52Z</time>
      </trkpt>
      <trkpt lat="47.13494" lon="6.21779">
        <ele>522</ele>
        <time>2017-11-16T12:24:00Z</time>
      </trkpt>
      <trkpt lat="47.13489" lon="6.21778">
        <ele>522</ele>
        <time>2017-11-16T12:24:04Z</time>
      </trkpt>
      <trkpt lat="47.13484" lon="6.21776">
        <ele>523</ele>
        <time>2017-11-16T12:24:08Z</time>
      </trkpt>
      <trkpt lat="47.13476" lon="6.21769">
        <ele>525</ele>
        <time>2017-11-16T12:24:18Z</time>
      </trkpt>
      <trkpt lat="47.13472" lon="6.21763">
        <ele>526</ele>
        <time>2017-11-16T12:24:22Z</time>
      </trkpt>
      <trkpt lat="47.13468" lon="6.21759">
        <ele>526</ele>
        <time>2017-11-16T12:24:26Z</time>
      </trkpt>
      <trkpt lat="47.13463" lon="6.21757">
        <ele>526</ele>
        <time>2017-11-16T12:24:31Z</time>
      </trkpt>
      <trkpt lat="47.13443" lon="6.21756">
        <ele>523</ele>
        <time>2017-11-16T12:24:48Z</time>
      </trkpt>
      <trkpt lat="47.13434" lon="6.21762">
        <ele>523</ele>
        <time>2017-11-16T12:24:56Z</time>
      </trkpt>
      <trkpt lat="47.13429" lon="6.21763">
        <ele>522</ele>
        <time>2017-11-16T12:25:01Z</time>
      </trkpt>
      <trkpt lat="47.13424" lon="6.21762">
        <ele>522</ele>
        <time>2017-11-16T12:25:06Z</time>
      </trkpt>
      <trkpt lat="47.13416" lon="6.21757">
        <ele>523</ele>
        <time>2017-11-16T12:25:14Z</time>
      </trkpt>
      <trkpt lat="47.13412" lon="6.21754">
        <ele>523</ele>
        <time>2017-11-16T12:25:18Z</time>
      </trkpt>
      <trkpt lat="47.13406" lon="6.21741">
        <ele>524</ele>
        <time>2017-11-16T12:25:28Z</time>
      </trkpt>
      <trkpt lat="47.13404" lon="6.21734">
        <ele>525</ele>
        <time>2017-11-16T12:25:33Z</time>
      </trkpt>
      <trkpt lat="47.13406" lon="6.21727">
        <ele>525</ele>
        <time>2017-11-16T12:25:38Z</time>
      </trkpt>
      <trkpt lat="47.13409" lon="6.2172">
        <ele>525</ele>
        <time>2017-11-16T12:25:43Z</time>
      </trkpt>
      <trkpt lat="47.13409" lon="6.21708">
        <ele>527</ele>
        <time>2017-11-16T12:26:00Z</time>
      </trkpt>
      <trkpt lat="47.13411" lon="6.21695">
        <ele>528</ele>
        <time>2017-11-16T12:28:27Z</time>
      </trkpt>
      <trkpt lat="47.13406" lon="6.21707">
        <ele>529</ele>
        <time>2017-11-16T12:28:59Z</time>
      </trkpt>
      <trkpt lat="47.13416" lon="6.21702">
        <ele>532</ele>
        <time>2017-11-16T12:30:27Z</time>
      </trkpt>
      <trkpt lat="47.13425" lon="6.21702">
        <ele>532</ele>
        <time>2017-11-16T12:30:45Z</time>
      </trkpt>
      <trkpt lat="47.13433" lon="6.21696">
        <ele>537</ele>
        <time>2017-11-16T12:31:01Z</time>
      </trkpt>
      <trkpt lat="47.13441" lon="6.21689">
        <ele>537</ele>
        <time>2017-11-16T12:31:16Z</time>
      </trkpt>
      <trkpt lat="47.13446" lon="6.21677">
        <ele>536</ele>
        <time>2017-11-16T12:31:27Z</time>
      </trkpt>
      <trkpt lat="47.1345" lon="6.21663">
        <ele>536</ele>
        <time>2017-11-16T12:31:42Z</time>
      </trkpt>
      <trkpt lat="47.13457" lon="6.21652">
        <ele>540</ele>
        <time>2017-11-16T12:31:59Z</time>
      </trkpt>
      <trkpt lat="47.13466" lon="6.21648">
        <ele>545</ele>
        <time>2017-11-16T12:32:35Z</time>
      </trkpt>
      <trkpt lat="47.13482" lon="6.21644">
        <ele>546</ele>
        <time>2017-11-16T12:33:01Z</time>
      </trkpt>
      <trkpt lat="47.13487" lon="6.21632">
        <ele>548</ele>
        <time>2017-11-16T12:33:12Z</time>
      </trkpt>
      <trkpt lat="47.13492" lon="6.21606">
        <ele>549</ele>
        <time>2017-11-16T12:33:33Z</time>
      </trkpt>
      <trkpt lat="47.13493" lon="6.21593">
        <ele>549</ele>
        <time>2017-11-16T12:33:44Z</time>
      </trkpt>
      <trkpt lat="47.13499" lon="6.21582">
        <ele>549</ele>
        <time>2017-11-16T12:33:54Z</time>
      </trkpt>
      <trkpt lat="47.13498" lon="6.21538">
        <ele>548</ele>
        <time>2017-11-16T12:34:15Z</time>
      </trkpt>
      <trkpt lat="47.13497" lon="6.21525">
        <ele>547</ele>
        <time>2017-11-16T12:34:23Z</time>
      </trkpt>
      <trkpt lat="47.13495" lon="6.21511">
        <ele>546</ele>
        <time>2017-11-16T12:34:31Z</time>
      </trkpt>
      <trkpt lat="47.13491" lon="6.21504">
        <ele>545</ele>
        <time>2017-11-16T12:34:36Z</time>
      </trkpt>
      <trkpt lat="47.13489" lon="6.21498">
        <ele>545</ele>
        <time>2017-11-16T12:34:40Z</time>
      </trkpt>
      <trkpt lat="47.13492" lon="6.21482">
        <ele>544</ele>
        <time>2017-11-16T12:34:48Z</time>
      </trkpt>
      <trkpt lat="47.13493" lon="6.21476">
        <ele>544</ele>
        <time>2017-11-16T12:34:52Z</time>
      </trkpt>
      <trkpt lat="47.13494" lon="6.21469">
        <ele>544</ele>
        <time>2017-11-16T12:34:57Z</time>
      </trkpt>
      <trkpt lat="47.13495" lon="6.21462">
        <ele>545</ele>
        <time>2017-11-16T12:35:03Z</time>
      </trkpt>
      <trkpt lat="47.13498" lon="6.21456">
        <ele>545</ele>
        <time>2017-11-16T12:35:08Z</time>
      </trkpt>
      <trkpt lat="47.135" lon="6.21443">
        <ele>546</ele>
        <time>2017-11-16T12:35:18Z</time>
      </trkpt>
      <trkpt lat="47.13506" lon="6.21431">
        <ele>546</ele>
        <time>2017-11-16T12:35:27Z</time>
      </trkpt>
      <trkpt lat="47.13508" lon="6.21423">
        <ele>546</ele>
        <time>2017-11-16T12:35:32Z</time>
      </trkpt>
      <trkpt lat="47.13511" lon="6.21417">
        <ele>546</ele>
        <time>2017-11-16T12:35:36Z</time>
      </trkpt>
      <trkpt lat="47.13517" lon="6.21396">
        <ele>546</ele>
        <time>2017-11-16T12:35:48Z</time>
      </trkpt>
      <trkpt lat="47.13527" lon="6.21379">
        <ele>546</ele>
        <time>2017-11-16T12:36:04Z</time>
      </trkpt>
      <trkpt lat="47.13528" lon="6.21372">
        <ele>545</ele>
        <time>2017-11-16T12:36:09Z</time>
      </trkpt>
      <trkpt lat="47.13531" lon="6.21366">
        <ele>545</ele>
        <time>2017-11-16T12:36:13Z</time>
      </trkpt>
      <trkpt lat="47.13532" lon="6.21359">
        <ele>544</ele>
        <time>2017-11-16T12:36:18Z</time>
      </trkpt>
      <trkpt lat="47.13536" lon="6.21353">
        <ele>544</ele>
        <time>2017-11-16T12:36:23Z</time>
      </trkpt>
      <trkpt lat="47.13541" lon="6.2134">
        <ele>544</ele>
        <time>2017-11-16T12:36:31Z</time>
      </trkpt>
      <trkpt lat="47.13547" lon="6.21329">
        <ele>545</ele>
        <time>2017-11-16T12:36:37Z</time>
      </trkpt>
      <trkpt lat="47.13553" lon="6.21319">
        <ele>545</ele>
        <time>2017-11-16T12:36:44Z</time>
      </trkpt>
      <trkpt lat="47.1356" lon="6.21312">
        <ele>546</ele>
        <time>2017-11-16T12:36:52Z</time>
      </trkpt>
      <trkpt lat="47.13576" lon="6.21278">
        <ele>548</ele>
        <time>2017-11-16T12:37:16Z</time>
      </trkpt>
      <trkpt lat="47.13579" lon="6.21265">
        <ele>548</ele>
        <time>2017-11-16T12:37:25Z</time>
      </trkpt>
      <trkpt lat="47.13585" lon="6.2125">
        <ele>547</ele>
        <time>2017-11-16T12:37:45Z</time>
      </trkpt>
      <trkpt lat="47.1358" lon="6.21239">
        <ele>545</ele>
        <time>2017-11-16T12:38:13Z</time>
      </trkpt>
      <trkpt lat="47.13586" lon="6.2122">
        <ele>544</ele>
        <time>2017-11-16T12:39:44Z</time>
      </trkpt>
      <trkpt lat="47.13592" lon="6.21209">
        <ele>544</ele>
        <time>2017-11-16T12:39:54Z</time>
      </trkpt>
      <trkpt lat="47.13596" lon="6.21197">
        <ele>544</ele>
        <time>2017-11-16T12:40:06Z</time>
      </trkpt>
      <trkpt lat="47.13598" lon="6.21182">
        <ele>544</ele>
        <time>2017-11-16T12:40:16Z</time>
      </trkpt>
      <trkpt lat="47.13602" lon="6.21127">
        <ele>546</ele>
        <time>2017-11-16T12:40:53Z</time>
      </trkpt>
      <trkpt lat="47.13601" lon="6.21113">
        <ele>547</ele>
        <time>2017-11-16T12:41:03Z</time>
      </trkpt>
      <trkpt lat="47.13604" lon="6.2107">
        <ele>547</ele>
        <time>2017-11-16T12:41:31Z</time>
      </trkpt>
      <trkpt lat="47.13603" lon="6.21057">
        <ele>548</ele>
        <time>2017-11-16T12:41:40Z</time>
      </trkpt>
      <trkpt lat="47.13605" lon="6.21044">
        <ele>548</ele>
        <time>2017-11-16T12:41:50Z</time>
      </trkpt>
      <trkpt lat="47.13606" lon="6.21031">
        <ele>549</ele>
        <time>2017-11-16T12:42:03Z</time>
      </trkpt>
      <trkpt lat="47.13601" lon="6.21019">
        <ele>549</ele>
        <time>2017-11-16T12:42:13Z</time>
      </trkpt>
      <trkpt lat="47.13597" lon="6.20997">
        <ele>546</ele>
        <time>2017-11-16T12:42:25Z</time>
      </trkpt>
      <trkpt lat="47.13594" lon="6.20992">
        <ele>545</ele>
        <time>2017-11-16T12:42:30Z</time>
      </trkpt>
      <trkpt lat="47.13588" lon="6.20982">
        <ele>545</ele>
        <time>2017-11-16T12:42:40Z</time>
      </trkpt>
      <trkpt lat="47.13581" lon="6.20969">
        <ele>546</ele>
        <time>2017-11-16T12:42:51Z</time>
      </trkpt>
      <trkpt lat="47.13574" lon="6.20958">
        <ele>545</ele>
        <time>2017-11-16T12:43:02Z</time>
      </trkpt>
      <trkpt lat="47.13567" lon="6.20948">
        <ele>545</ele>
        <time>2017-11-16T12:43:10Z</time>
      </trkpt>
      <trkpt lat="47.13563" lon="6.20945">
        <ele>545</ele>
        <time>2017-11-16T12:43:14Z</time>
      </trkpt>
      <trkpt lat="47.13559" lon="6.20938">
        <ele>545</ele>
        <time>2017-11-16T12:43:18Z</time>
      </trkpt>
      <trkpt lat="47.13554" lon="6.20935">
        <ele>545</ele>
        <time>2017-11-16T12:43:25Z</time>
      </trkpt>
      <trkpt lat="47.13549" lon="6.20938">
        <ele>543</ele>
        <time>2017-11-16T12:43:45Z</time>
      </trkpt>
      <trkpt lat="47.13544" lon="6.2094">
        <ele>542</ele>
        <time>2017-11-16T12:44:15Z</time>
      </trkpt>
      <trkpt lat="47.13548" lon="6.20945">
        <ele>543</ele>
        <time>2017-11-16T12:45:03Z</time>
      </trkpt>
      <trkpt lat="47.1354" lon="6.20948">
        <ele>547</ele>
        <time>2017-11-16T12:47:31Z</time>
      </trkpt>
      <trkpt lat="47.13536" lon="6.20943">
        <ele>548</ele>
        <time>2017-11-16T12:47:35Z</time>
      </trkpt>
      <trkpt lat="47.13531" lon="6.20941">
        <ele>548</ele>
        <time>2017-11-16T12:47:39Z</time>
      </trkpt>
      <trkpt lat="47.13526" lon="6.20941">
        <ele>548</ele>
        <time>2017-11-16T12:47:44Z</time>
      </trkpt>
      <trkpt lat="47.13521" lon="6.20937">
        <ele>548</ele>
        <time>2017-11-16T12:47:49Z</time>
      </trkpt>
      <trkpt lat="47.13513" lon="6.20926">
        <ele>548</ele>
        <time>2017-11-16T12:47:57Z</time>
      </trkpt>
      <trkpt lat="47.13508" lon="6.20922">
        <ele>548</ele>
        <time>2017-11-16T12:48:01Z</time>
      </trkpt>
      <trkpt lat="47.13504" lon="6.20919">
        <ele>547</ele>
        <time>2017-11-16T12:48:04Z</time>
      </trkpt>
      <trkpt lat="47.13491" lon="6.20908">
        <ele>545</ele>
        <time>2017-11-16T12:48:17Z</time>
      </trkpt>
      <trkpt lat="47.13482" lon="6.209">
        <ele>545</ele>
        <time>2017-11-16T12:48:25Z</time>
      </trkpt>
      <trkpt lat="47.13455" lon="6.20879">
        <ele>546</ele>
        <time>2017-11-16T12:48:51Z</time>
      </trkpt>
      <trkpt lat="47.13451" lon="6.20875">
        <ele>545</ele>
        <time>2017-11-16T12:48:55Z</time>
      </trkpt>
      <trkpt lat="47.13439" lon="6.20863">
        <ele>545</ele>
        <time>2017-11-16T12:49:07Z</time>
      </trkpt>
      <trkpt lat="47.13435" lon="6.2086">
        <ele>544</ele>
        <time>2017-11-16T12:49:12Z</time>
      </trkpt>
      <trkpt lat="47.13427" lon="6.2085">
        <ele>544</ele>
        <time>2017-11-16T12:49:20Z</time>
      </trkpt>
      <trkpt lat="47.13422" lon="6.20846">
        <ele>544</ele>
        <time>2017-11-16T12:49:24Z</time>
      </trkpt>
      <trkpt lat="47.13419" lon="6.20841">
        <ele>544</ele>
        <time>2017-11-16T12:49:28Z</time>
      </trkpt>
      <trkpt lat="47.13416" lon="6.20834">
        <ele>545</ele>
        <time>2017-11-16T12:49:33Z</time>
      </trkpt>
      <trkpt lat="47.13412" lon="6.20829">
        <ele>545</ele>
        <time>2017-11-16T12:49:38Z</time>
      </trkpt>
      <trkpt lat="47.1341" lon="6.20824">
        <ele>545</ele>
        <time>2017-11-16T12:49:43Z</time>
      </trkpt>
      <trkpt lat="47.13401" lon="6.20823">
        <ele>545</ele>
        <time>2017-11-16T12:51:25Z</time>
      </trkpt>
      <trkpt lat="47.13397" lon="6.20818">
        <ele>545</ele>
        <time>2017-11-16T12:51:30Z</time>
      </trkpt>
      <trkpt lat="47.13383" lon="6.20811">
        <ele>546</ele>
        <time>2017-11-16T12:51:43Z</time>
      </trkpt>
      <trkpt lat="47.13378" lon="6.20809">
        <ele>546</ele>
        <time>2017-11-16T12:51:47Z</time>
      </trkpt>
      <trkpt lat="47.13351" lon="6.20787">
        <ele>547</ele>
        <time>2017-11-16T12:52:09Z</time>
      </trkpt>
      <trkpt lat="47.13346" lon="6.20785">
        <ele>547</ele>
        <time>2017-11-16T12:52:13Z</time>
      </trkpt>
      <trkpt lat="47.13337" lon="6.20777">
        <ele>547</ele>
        <time>2017-11-16T12:52:21Z</time>
      </trkpt>
      <trkpt lat="47.13323" lon="6.20771">
        <ele>546</ele>
        <time>2017-11-16T12:52:35Z</time>
      </trkpt>
      <trkpt lat="47.13318" lon="6.20771">
        <ele>547</ele>
        <time>2017-11-16T12:52:40Z</time>
      </trkpt>
      <trkpt lat="47.13309" lon="6.2076">
        <ele>546</ele>
        <time>2017-11-16T12:53:00Z</time>
      </trkpt>
      <trkpt lat="47.13305" lon="6.20756">
        <ele>547</ele>
        <time>2017-11-16T12:53:09Z</time>
      </trkpt>
      <trkpt lat="47.13301" lon="6.20749">
        <ele>547</ele>
        <time>2017-11-16T12:53:22Z</time>
      </trkpt>
      <trkpt lat="47.13293" lon="6.20741">
        <ele>546</ele>
        <time>2017-11-16T12:53:33Z</time>
      </trkpt>
      <trkpt lat="47.13279" lon="6.20721">
        <ele>546</ele>
        <time>2017-11-16T12:53:51Z</time>
      </trkpt>
      <trkpt lat="47.1327" lon="6.20713">
        <ele>545</ele>
        <time>2017-11-16T12:54:05Z</time>
      </trkpt>
      <trkpt lat="47.13275" lon="6.20706">
        <ele>544</ele>
        <time>2017-11-16T12:54:27Z</time>
      </trkpt>
      <trkpt lat="47.13273" lon="6.20699">
        <ele>544</ele>
        <time>2017-11-16T12:54:34Z</time>
      </trkpt>
      <trkpt lat="47.13269" lon="6.20694">
        <ele>543</ele>
        <time>2017-11-16T12:54:44Z</time>
      </trkpt>
      <trkpt lat="47.13268" lon="6.20688">
        <ele>543</ele>
        <time>2017-11-16T12:54:50Z</time>
      </trkpt>
      <trkpt lat="47.13267" lon="6.2068">
        <ele>544</ele>
        <time>2017-11-16T12:54:57Z</time>
      </trkpt>
      <trkpt lat="47.13263" lon="6.20674">
        <ele>545</ele>
        <time>2017-11-16T12:55:02Z</time>
      </trkpt>
      <trkpt lat="47.13255" lon="6.20666">
        <ele>545</ele>
        <time>2017-11-16T12:55:09Z</time>
      </trkpt>
      <trkpt lat="47.13234" lon="6.20666">
        <ele>547</ele>
        <time>2017-11-16T12:55:28Z</time>
      </trkpt>
      <trkpt lat="47.13229" lon="6.20667">
        <ele>547</ele>
        <time>2017-11-16T12:55:33Z</time>
      </trkpt>
      <trkpt lat="47.13218" lon="6.20669">
        <ele>548</ele>
        <time>2017-11-16T12:55:45Z</time>
      </trkpt>
      <trkpt lat="47.13201" lon="6.20668">
        <ele>552</ele>
        <time>2017-11-16T12:56:18Z</time>
      </trkpt>
      <trkpt lat="47.13192" lon="6.20668">
        <ele>552</ele>
        <time>2017-11-16T12:56:26Z</time>
      </trkpt>
      <trkpt lat="47.13187" lon="6.20667">
        <ele>553</ele>
        <time>2017-11-16T12:56:30Z</time>
      </trkpt>
      <trkpt lat="47.13182" lon="6.20667">
        <ele>553</ele>
        <time>2017-11-16T12:56:35Z</time>
      </trkpt>
      <trkpt lat="47.13178" lon="6.20664">
        <ele>553</ele>
        <time>2017-11-16T12:56:45Z</time>
      </trkpt>
      <trkpt lat="47.13178" lon="6.20656">
        <ele>553</ele>
        <time>2017-11-16T12:56:55Z</time>
      </trkpt>
      <trkpt lat="47.13179" lon="6.20646">
        <ele>555</ele>
        <time>2017-11-16T12:57:14Z</time>
      </trkpt>
      <trkpt lat="47.13196" lon="6.20631">
        <ele>557</ele>
        <time>2017-11-16T12:57:37Z</time>
      </trkpt>
      <trkpt lat="47.13203" lon="6.2062">
        <ele>559</ele>
        <time>2017-11-16T12:57:47Z</time>
      </trkpt>
      <trkpt lat="47.13207" lon="6.20617">
        <ele>559</ele>
        <time>2017-11-16T12:57:52Z</time>
      </trkpt>
      <trkpt lat="47.13212" lon="6.20614">
        <ele>560</ele>
        <time>2017-11-16T12:57:57Z</time>
      </trkpt>
      <trkpt lat="47.13217" lon="6.20613">
        <ele>560</ele>
        <time>2017-11-16T12:58:02Z</time>
      </trkpt>
      <trkpt lat="47.13227" lon="6.20608">
        <ele>562</ele>
        <time>2017-11-16T12:58:19Z</time>
      </trkpt>
      <trkpt lat="47.13231" lon="6.20605">
        <ele>563</ele>
        <time>2017-11-16T12:58:23Z</time>
      </trkpt>
      <trkpt lat="47.13237" lon="6.20603">
        <ele>562</ele>
        <time>2017-11-16T12:58:28Z</time>
      </trkpt>
      <trkpt lat="47.13242" lon="6.20602">
        <ele>562</ele>
        <time>2017-11-16T12:58:32Z</time>
      </trkpt>
      <trkpt lat="47.13282" lon="6.20592">
        <ele>565</ele>
        <time>2017-11-16T12:59:07Z</time>
      </trkpt>
      <trkpt lat="47.13292" lon="6.20589">
        <ele>567</ele>
        <time>2017-11-16T12:59:17Z</time>
      </trkpt>
      <trkpt lat="47.13293" lon="6.20582">
        <ele>567</ele>
        <time>2017-11-16T12:59:21Z</time>
      </trkpt>
      <trkpt lat="47.13291" lon="6.20575">
        <ele>568</ele>
        <time>2017-11-16T12:59:25Z</time>
      </trkpt>
      <trkpt lat="47.13289" lon="6.20561">
        <ele>568</ele>
        <time>2017-11-16T12:59:33Z</time>
      </trkpt>
      <trkpt lat="47.13288" lon="6.2054">
        <ele>568</ele>
        <time>2017-11-16T12:59:53Z</time>
      </trkpt>
      <trkpt lat="47.13288" lon="6.20519">
        <ele>568</ele>
        <time>2017-11-16T13:00:05Z</time>
      </trkpt>
      <trkpt lat="47.13289" lon="6.20512">
        <ele>569</ele>
        <time>2017-11-16T13:00:10Z</time>
      </trkpt>
      <trkpt lat="47.1329" lon="6.2049">
        <ele>569</ele>
        <time>2017-11-16T13:00:23Z</time>
      </trkpt>
      <trkpt lat="47.13295" lon="6.20469">
        <ele>571</ele>
        <time>2017-11-16T13:00:38Z</time>
      </trkpt>
      <trkpt lat="47.13297" lon="6.20462">
        <ele>571</ele>
        <time>2017-11-16T13:00:43Z</time>
      </trkpt>
      <trkpt lat="47.13298" lon="6.20455">
        <ele>570</ele>
        <time>2017-11-16T13:00:47Z</time>
      </trkpt>
      <trkpt lat="47.13304" lon="6.20436">
        <ele>569</ele>
        <time>2017-11-16T13:00:59Z</time>
      </trkpt>
      <trkpt lat="47.13306" lon="6.2043">
        <ele>569</ele>
        <time>2017-11-16T13:01:03Z</time>
      </trkpt>
      <trkpt lat="47.13306" lon="6.20421">
        <ele>569</ele>
        <time>2017-11-16T13:01:18Z</time>
      </trkpt>
      <trkpt lat="47.13306" lon="6.20406">
        <ele>568</ele>
        <time>2017-11-16T13:01:31Z</time>
      </trkpt>
      <trkpt lat="47.13315" lon="6.20372">
        <ele>567</ele>
        <time>2017-11-16T13:01:53Z</time>
      </trkpt>
      <trkpt lat="47.1332" lon="6.20361">
        <ele>566</ele>
        <time>2017-11-16T13:02:03Z</time>
      </trkpt>
      <trkpt lat="47.13324" lon="6.20356">
        <ele>566</ele>
        <time>2017-11-16T13:02:08Z</time>
      </trkpt>
      <trkpt lat="47.13327" lon="6.20351">
        <ele>566</ele>
        <time>2017-11-16T13:02:13Z</time>
      </trkpt>
      <trkpt lat="47.13332" lon="6.20336">
        <ele>567</ele>
        <time>2017-11-16T13:02:23Z</time>
      </trkpt>
      <trkpt lat="47.1334" lon="6.20327">
        <ele>567</ele>
        <time>2017-11-16T13:02:35Z</time>
      </trkpt>
      <trkpt lat="47.13343" lon="6.20322">
        <ele>567</ele>
        <time>2017-11-16T13:02:39Z</time>
      </trkpt>
      <trkpt lat="47.13343" lon="6.20314">
        <ele>568</ele>
        <time>2017-11-16T13:02:45Z</time>
      </trkpt>
      <trkpt lat="47.1334" lon="6.20307">
        <ele>568</ele>
        <time>2017-11-16T13:02:50Z</time>
      </trkpt>
      <trkpt lat="47.13338" lon="6.203">
        <ele>568</ele>
        <time>2017-11-16T13:02:54Z</time>
      </trkpt>
      <trkpt lat="47.13331" lon="6.20281">
        <ele>569</ele>
        <time>2017-11-16T13:03:07Z</time>
      </trkpt>
      <trkpt lat="47.13319" lon="6.20231">
        <ele>569</ele>
        <time>2017-11-16T13:03:38Z</time>
      </trkpt>
      <trkpt lat="47.13315" lon="6.20209">
        <ele>568</ele>
        <time>2017-11-16T13:03:52Z</time>
      </trkpt>
      <trkpt lat="47.13314" lon="6.20202">
        <ele>568</ele>
        <time>2017-11-16T13:03:57Z</time>
      </trkpt>
      <trkpt lat="47.13303" lon="6.20146">
        <ele>566</ele>
        <time>2017-11-16T13:04:32Z</time>
      </trkpt>
      <trkpt lat="47.13297" lon="6.2011">
        <ele>567</ele>
        <time>2017-11-16T13:04:54Z</time>
      </trkpt>
      <trkpt lat="47.13289" lon="6.20076">
        <ele>565</ele>
        <time>2017-11-16T13:05:14Z</time>
      </trkpt>
      <trkpt lat="47.13279" lon="6.20051">
        <ele>565</ele>
        <time>2017-11-16T13:05:30Z</time>
      </trkpt>
      <trkpt lat="47.13269" lon="6.20034">
        <ele>564</ele>
        <time>2017-11-16T13:05:43Z</time>
      </trkpt>
      <trkpt lat="47.13262" lon="6.20025">
        <ele>563</ele>
        <time>2017-11-16T13:05:52Z</time>
      </trkpt>
      <trkpt lat="47.13257" lon="6.20022">
        <ele>562</ele>
        <time>2017-11-16T13:06:35Z</time>
      </trkpt>
      <trkpt lat="47.13252" lon="6.20021">
        <ele>563</ele>
        <time>2017-11-16T13:06:42Z</time>
      </trkpt>
      <trkpt lat="47.1324" lon="6.20018">
        <ele>560</ele>
        <time>2017-11-16T13:07:00Z</time>
      </trkpt>
      <trkpt lat="47.13235" lon="6.20013">
        <ele>560</ele>
        <time>2017-11-16T13:07:04Z</time>
      </trkpt>
      <trkpt lat="47.13234" lon="6.20006">
        <ele>559</ele>
        <time>2017-11-16T13:07:09Z</time>
      </trkpt>
      <trkpt lat="47.13234" lon="6.19998">
        <ele>560</ele>
        <time>2017-11-16T13:07:14Z</time>
      </trkpt>
      <trkpt lat="47.13233" lon="6.1999">
        <ele>560</ele>
        <time>2017-11-16T13:07:19Z</time>
      </trkpt>
      <trkpt lat="47.13229" lon="6.1997">
        <ele>558</ele>
        <time>2017-11-16T13:07:32Z</time>
      </trkpt>
      <trkpt lat="47.13226" lon="6.19964">
        <ele>558</ele>
        <time>2017-11-16T13:07:36Z</time>
      </trkpt>
      <trkpt lat="47.13219" lon="6.19955">
        <ele>558</ele>
        <time>2017-11-16T13:07:42Z</time>
      </trkpt>
      <trkpt lat="47.13214" lon="6.19949">
        <ele>558</ele>
        <time>2017-11-16T13:07:46Z</time>
      </trkpt>
      <trkpt lat="47.13205" lon="6.1994">
        <ele>557</ele>
        <time>2017-11-16T13:07:54Z</time>
      </trkpt>
      <trkpt lat="47.13202" lon="6.19934">
        <ele>557</ele>
        <time>2017-11-16T13:07:58Z</time>
      </trkpt>
      <trkpt lat="47.13199" lon="6.19928">
        <ele>557</ele>
        <time>2017-11-16T13:08:02Z</time>
      </trkpt>
      <trkpt lat="47.13198" lon="6.19921">
        <ele>557</ele>
        <time>2017-11-16T13:08:06Z</time>
      </trkpt>
      <trkpt lat="47.13198" lon="6.19906">
        <ele>557</ele>
        <time>2017-11-16T13:08:14Z</time>
      </trkpt>
      <trkpt lat="47.13199" lon="6.19898">
        <ele>557</ele>
        <time>2017-11-16T13:08:18Z</time>
      </trkpt>
      <trkpt lat="47.13202" lon="6.19884">
        <ele>557</ele>
        <time>2017-11-16T13:08:26Z</time>
      </trkpt>
      <trkpt lat="47.13207" lon="6.19854">
        <ele>558</ele>
        <time>2017-11-16T13:08:42Z</time>
      </trkpt>
      <trkpt lat="47.1321" lon="6.19815">
        <ele>558</ele>
        <time>2017-11-16T13:09:02Z</time>
      </trkpt>
      <trkpt lat="47.13213" lon="6.19802">
        <ele>558</ele>
        <time>2017-11-16T13:09:10Z</time>
      </trkpt>
      <trkpt lat="47.13214" lon="6.19795">
        <ele>558</ele>
        <time>2017-11-16T13:09:14Z</time>
      </trkpt>
      <trkpt lat="47.13214" lon="6.19786">
        <ele>559</ele>
        <time>2017-11-16T13:09:19Z</time>
      </trkpt>
      <trkpt lat="47.13212" lon="6.19764">
        <ele>560</ele>
        <time>2017-11-16T13:09:30Z</time>
      </trkpt>
      <trkpt lat="47.1321" lon="6.19758">
        <ele>560</ele>
        <time>2017-11-16T13:09:35Z</time>
      </trkpt>
      <trkpt lat="47.13208" lon="6.1975">
        <ele>560</ele>
        <time>2017-11-16T13:09:39Z</time>
      </trkpt>
      <trkpt lat="47.13196" lon="6.19724">
        <ele>559</ele>
        <time>2017-11-16T13:09:56Z</time>
      </trkpt>
      <trkpt lat="47.13194" lon="6.19718">
        <ele>559</ele>
        <time>2017-11-16T13:10:00Z</time>
      </trkpt>
      <trkpt lat="47.13188" lon="6.19705">
        <ele>558</ele>
        <time>2017-11-16T13:10:09Z</time>
      </trkpt>
      <trkpt lat="47.13186" lon="6.19699">
        <ele>559</ele>
        <time>2017-11-16T13:10:12Z</time>
      </trkpt>
      <trkpt lat="47.13183" lon="6.19694">
        <ele>558</ele>
        <time>2017-11-16T13:10:16Z</time>
      </trkpt>
      <trkpt lat="47.13182" lon="6.19687">
        <ele>558</ele>
        <time>2017-11-16T13:10:24Z</time>
      </trkpt>
      <trkpt lat="47.13176" lon="6.19675">
        <ele>558</ele>
        <time>2017-11-16T13:10:30Z</time>
      </trkpt>
      <trkpt lat="47.13173" lon="6.19669">
        <ele>558</ele>
        <time>2017-11-16T13:10:33Z</time>
      </trkpt>
      <trkpt lat="47.13165" lon="6.19659">
        <ele>556</ele>
        <time>2017-11-16T13:10:40Z</time>
      </trkpt>
      <trkpt lat="47.1316" lon="6.19646">
        <ele>556</ele>
        <time>2017-11-16T13:10:47Z</time>
      </trkpt>
      <trkpt lat="47.13158" lon="6.19623">
        <ele>557</ele>
        <time>2017-11-16T13:11:01Z</time>
      </trkpt>
      <trkpt lat="47.13156" lon="6.19609">
        <ele>559</ele>
        <time>2017-11-16T13:11:09Z</time>
      </trkpt>
      <trkpt lat="47.1316" lon="6.19551">
        <ele>562</ele>
        <time>2017-11-16T13:11:40Z</time>
      </trkpt>
      <trkpt lat="47.1316" lon="6.19523">
        <ele>562</ele>
        <time>2017-11-16T13:11:55Z</time>
      </trkpt>
      <trkpt lat="47.13159" lon="6.19508">
        <ele>562</ele>
        <time>2017-11-16T13:12:02Z</time>
      </trkpt>
      <trkpt lat="47.13164" lon="6.19495">
        <ele>562</ele>
        <time>2017-11-16T13:12:09Z</time>
      </trkpt>
      <trkpt lat="47.13167" lon="6.19467">
        <ele>562</ele>
        <time>2017-11-16T13:12:27Z</time>
      </trkpt>
      <trkpt lat="47.13171" lon="6.19455">
        <ele>561</ele>
        <time>2017-11-16T13:12:35Z</time>
      </trkpt>
      <trkpt lat="47.13175" lon="6.19415">
        <ele>559</ele>
        <time>2017-11-16T13:13:06Z</time>
      </trkpt>
      <trkpt lat="47.13173" lon="6.19402">
        <ele>556</ele>
        <time>2017-11-16T13:13:14Z</time>
      </trkpt>
      <trkpt lat="47.13169" lon="6.19375">
        <ele>554</ele>
        <time>2017-11-16T13:13:26Z</time>
      </trkpt>
      <trkpt lat="47.1316" lon="6.1935">
        <ele>552</ele>
        <time>2017-11-16T13:13:41Z</time>
      </trkpt>
      <trkpt lat="47.13158" lon="6.19336">
        <ele>551</ele>
        <time>2017-11-16T13:13:51Z</time>
      </trkpt>
      <trkpt lat="47.13167" lon="6.19333">
        <ele>550</ele>
        <time>2017-11-16T13:14:06Z</time>
      </trkpt>
      <trkpt lat="47.13155" lon="6.19313">
        <ele>550</ele>
        <time>2017-11-16T13:14:16Z</time>
      </trkpt>
      <trkpt lat="47.13153" lon="6.19298">
        <ele>550</ele>
        <time>2017-11-16T13:14:22Z</time>
      </trkpt>
      <trkpt lat="47.13144" lon="6.19273">
        <ele>550</ele>
        <time>2017-11-16T13:14:33Z</time>
      </trkpt>
      <trkpt lat="47.13134" lon="6.19267">
        <ele>550</ele>
        <time>2017-11-16T13:14:41Z</time>
      </trkpt>
      <trkpt lat="47.13129" lon="6.19255">
        <ele>548</ele>
        <time>2017-11-16T13:14:53Z</time>
      </trkpt>
      <trkpt lat="47.13123" lon="6.1923">
        <ele>547</ele>
        <time>2017-11-16T13:15:10Z</time>
      </trkpt>
      <trkpt lat="47.13117" lon="6.19218">
        <ele>546</ele>
        <time>2017-11-16T13:15:18Z</time>
      </trkpt>
      <trkpt lat="47.13112" lon="6.19206">
        <ele>544</ele>
        <time>2017-11-16T13:15:33Z</time>
      </trkpt>
      <trkpt lat="47.13108" lon="6.1918">
        <ele>542</ele>
        <time>2017-11-16T13:15:48Z</time>
      </trkpt>
      <trkpt lat="47.131" lon="6.19154">
        <ele>542</ele>
        <time>2017-11-16T13:16:05Z</time>
      </trkpt>
      <trkpt lat="47.13093" lon="6.19103">
        <ele>538</ele>
        <time>2017-11-16T13:16:40Z</time>
      </trkpt>
      <trkpt lat="47.13089" lon="6.19089">
        <ele>538</ele>
        <time>2017-11-16T13:16:47Z</time>
      </trkpt>
      <trkpt lat="47.13083" lon="6.19033">
        <ele>537</ele>
        <time>2017-11-16T13:17:22Z</time>
      </trkpt>
      <trkpt lat="47.13082" lon="6.18989">
        <ele>534</ele>
        <time>2017-11-16T13:17:46Z</time>
      </trkpt>
      <trkpt lat="47.13086" lon="6.18989">
        <ele>528</ele>
        <time>2017-11-16T13:18:35Z</time>
      </trkpt>
      <trkpt lat="47.13073" lon="6.18985">
        <ele>527</ele>
        <time>2017-11-16T13:18:51Z</time>
      </trkpt>
      <trkpt lat="47.13077" lon="6.18972">
        <ele>525</ele>
        <time>2017-11-16T13:19:04Z</time>
      </trkpt>
      <trkpt lat="47.13062" lon="6.18947">
        <ele>517</ele>
        <time>2017-11-16T13:20:28Z</time>
      </trkpt>
      <trkpt lat="47.13062" lon="6.1894">
        <ele>518</ele>
        <time>2017-11-16T13:20:50Z</time>
      </trkpt>
      <trkpt lat="47.13072" lon="6.18942">
        <ele>517</ele>
        <time>2017-11-16T13:20:58Z</time>
      </trkpt>
      <trkpt lat="47.131" lon="6.18951">
        <ele>519</ele>
        <time>2017-11-16T13:21:28Z</time>
      </trkpt>
      <trkpt lat="47.1311" lon="6.18947">
        <ele>518</ele>
        <time>2017-11-16T13:21:46Z</time>
      </trkpt>
      <trkpt lat="47.13115" lon="6.18936">
        <ele>517</ele>
        <time>2017-11-16T13:22:04Z</time>
      </trkpt>
      <trkpt lat="47.13122" lon="6.18921">
        <ele>518</ele>
        <time>2017-11-16T13:22:29Z</time>
      </trkpt>
      <trkpt lat="47.1312" lon="6.18906">
        <ele>517</ele>
        <time>2017-11-16T13:22:46Z</time>
      </trkpt>
      <trkpt lat="47.13132" lon="6.18906">
        <ele>516</ele>
        <time>2017-11-16T13:23:14Z</time>
      </trkpt>
      <trkpt lat="47.13138" lon="6.18894">
        <ele>517</ele>
        <time>2017-11-16T13:23:41Z</time>
      </trkpt>
      <trkpt lat="47.13129" lon="6.18887">
        <ele>517</ele>
        <time>2017-11-16T13:24:01Z</time>
      </trkpt>
      <trkpt lat="47.13135" lon="6.18864">
        <ele>516</ele>
        <time>2017-11-16T13:24:41Z</time>
      </trkpt>
      <trkpt lat="47.13137" lon="6.18851">
        <ele>519</ele>
        <time>2017-11-16T13:25:04Z</time>
      </trkpt>
      <trkpt lat="47.13112" lon="6.1884">
        <ele>520</ele>
        <time>2017-11-16T13:27:23Z</time>
      </trkpt>
      <trkpt lat="47.13115" lon="6.18854">
        <ele>521</ele>
        <time>2017-11-16T13:27:57Z</time>
      </trkpt>
      <trkpt lat="47.13124" lon="6.18885">
        <ele>524</ele>
        <time>2017-11-16T13:28:37Z</time>
      </trkpt>
      <trkpt lat="47.13112" lon="6.18891">
        <ele>522</ele>
        <time>2017-11-16T13:29:12Z</time>
      </trkpt>
      <trkpt lat="47.13113" lon="6.18913">
        <ele>518</ele>
        <time>2017-11-16T13:29:48Z</time>
      </trkpt>
      <trkpt lat="47.13103" lon="6.18918">
        <ele>519</ele>
        <time>2017-11-16T13:30:48Z</time>
      </trkpt>
      <trkpt lat="47.13082" lon="6.18929">
        <ele>515</ele>
        <time>2017-11-16T13:31:25Z</time>
      </trkpt>
      <trkpt lat="47.13076" lon="6.18941">
        <ele>513</ele>
        <time>2017-11-16T13:31:40Z</time>
      </trkpt>
      <trkpt lat="47.13067" lon="6.18942">
        <ele>513</ele>
        <time>2017-11-16T13:31:47Z</time>
      </trkpt>
      <trkpt lat="47.13057" lon="6.18944">
        <ele>514</ele>
        <time>2017-11-16T13:31:57Z</time>
      </trkpt>
      <trkpt lat="47.13048" lon="6.18942">
        <ele>514</ele>
        <time>2017-11-16T13:32:09Z</time>
      </trkpt>
      <trkpt lat="47.13035" lon="6.18952">
        <ele>515</ele>
        <time>2017-11-16T13:32:37Z</time>
      </trkpt>
      <trkpt lat="47.13032" lon="6.18968">
        <ele>515</ele>
        <time>2017-11-16T13:32:48Z</time>
      </trkpt>
      <trkpt lat="47.13029" lon="6.18981">
        <ele>515</ele>
        <time>2017-11-16T13:32:57Z</time>
      </trkpt>
      <trkpt lat="47.13025" lon="6.18994">
        <ele>517</ele>
        <time>2017-11-16T13:33:06Z</time>
      </trkpt>
      <trkpt lat="47.12999" lon="6.19014">
        <ele>518</ele>
        <time>2017-11-16T13:33:29Z</time>
      </trkpt>
      <trkpt lat="47.1299" lon="6.19014">
        <ele>520</ele>
        <time>2017-11-16T13:33:37Z</time>
      </trkpt>
      <trkpt lat="47.12983" lon="6.19004">
        <ele>521</ele>
        <time>2017-11-16T13:33:47Z</time>
      </trkpt>
      <trkpt lat="47.12989" lon="6.18994">
        <ele>522</ele>
        <time>2017-11-16T13:33:56Z</time>
      </trkpt>
      <trkpt lat="47.12998" lon="6.18992">
        <ele>522</ele>
        <time>2017-11-16T13:34:02Z</time>
      </trkpt>
      <trkpt lat="47.13005" lon="6.18982">
        <ele>524</ele>
        <time>2017-11-16T13:34:12Z</time>
      </trkpt>
      <trkpt lat="47.13014" lon="6.18975">
        <ele>525</ele>
        <time>2017-11-16T13:34:20Z</time>
      </trkpt>
      <trkpt lat="47.1302" lon="6.18965">
        <ele>527</ele>
        <time>2017-11-16T13:34:26Z</time>
      </trkpt>
      <trkpt lat="47.13023" lon="6.18951">
        <ele>527</ele>
        <time>2017-11-16T13:34:36Z</time>
      </trkpt>
      <trkpt lat="47.13023" lon="6.18937">
        <ele>529</ele>
        <time>2017-11-16T13:34:43Z</time>
      </trkpt>
      <trkpt lat="47.13021" lon="6.18924">
        <ele>530</ele>
        <time>2017-11-16T13:34:50Z</time>
      </trkpt>
      <trkpt lat="47.13017" lon="6.1892">
        <ele>530</ele>
        <time>2017-11-16T13:34:54Z</time>
      </trkpt>
      <trkpt lat="47.13013" lon="6.18916">
        <ele>531</ele>
        <time>2017-11-16T13:34:58Z</time>
      </trkpt>
      <trkpt lat="47.13009" lon="6.18913">
        <ele>532</ele>
        <time>2017-11-16T13:35:03Z</time>
      </trkpt>
      <trkpt lat="47.13005" lon="6.18907">
        <ele>532</ele>
        <time>2017-11-16T13:35:09Z</time>
      </trkpt>
      <trkpt lat="47.13006" lon="6.189">
        <ele>533</ele>
        <time>2017-11-16T13:35:15Z</time>
      </trkpt>
      <trkpt lat="47.1301" lon="6.18887">
        <ele>534</ele>
        <time>2017-11-16T13:35:24Z</time>
      </trkpt>
      <trkpt lat="47.13014" lon="6.18874">
        <ele>535</ele>
        <time>2017-11-16T13:35:36Z</time>
      </trkpt>
      <trkpt lat="47.13013" lon="6.18852">
        <ele>536</ele>
        <time>2017-11-16T13:35:48Z</time>
      </trkpt>
      <trkpt lat="47.13009" lon="6.1883">
        <ele>537</ele>
        <time>2017-11-16T13:36:02Z</time>
      </trkpt>
      <trkpt lat="47.13008" lon="6.18823">
        <ele>537</ele>
        <time>2017-11-16T13:36:06Z</time>
      </trkpt>
      <trkpt lat="47.13006" lon="6.18792">
        <ele>537</ele>
        <time>2017-11-16T13:36:25Z</time>
      </trkpt>
      <trkpt lat="47.13002" lon="6.18778">
        <ele>536</ele>
        <time>2017-11-16T13:36:32Z</time>
      </trkpt>
      <trkpt lat="47.13001" lon="6.18772">
        <ele>536</ele>
        <time>2017-11-16T13:36:37Z</time>
      </trkpt>
      <trkpt lat="47.13" lon="6.18765">
        <ele>538</ele>
        <time>2017-11-16T13:36:42Z</time>
      </trkpt>
      <trkpt lat="47.12998" lon="6.18759">
        <ele>539</ele>
        <time>2017-11-16T13:36:46Z</time>
      </trkpt>
      <trkpt lat="47.12969" lon="6.18694">
        <ele>544</ele>
        <time>2017-11-16T13:37:24Z</time>
      </trkpt>
      <trkpt lat="47.12951" lon="6.18673">
        <ele>543</ele>
        <time>2017-11-16T13:37:48Z</time>
      </trkpt>
      <trkpt lat="47.12948" lon="6.18667">
        <ele>543</ele>
        <time>2017-11-16T13:37:52Z</time>
      </trkpt>
      <trkpt lat="47.12946" lon="6.18661">
        <ele>543</ele>
        <time>2017-11-16T13:37:57Z</time>
      </trkpt>
      <trkpt lat="47.12948" lon="6.18653">
        <ele>543</ele>
        <time>2017-11-16T13:38:01Z</time>
      </trkpt>
      <trkpt lat="47.12947" lon="6.18647">
        <ele>542</ele>
        <time>2017-11-16T13:38:05Z</time>
      </trkpt>
      <trkpt lat="47.12929" lon="6.1858">
        <ele>544</ele>
        <time>2017-11-16T13:38:38Z</time>
      </trkpt>
      <trkpt lat="47.12925" lon="6.18576">
        <ele>544</ele>
        <time>2017-11-16T13:38:42Z</time>
      </trkpt>
      <trkpt lat="47.12901" lon="6.18563">
        <ele>542</ele>
        <time>2017-11-16T13:39:03Z</time>
      </trkpt>
      <trkpt lat="47.12895" lon="6.1856">
        <ele>542</ele>
        <time>2017-11-16T13:39:07Z</time>
      </trkpt>
      <trkpt lat="47.1289" lon="6.18558">
        <ele>541</ele>
        <time>2017-11-16T13:39:11Z</time>
      </trkpt>
      <trkpt lat="47.12885" lon="6.18556">
        <ele>541</ele>
        <time>2017-11-16T13:39:15Z</time>
      </trkpt>
      <trkpt lat="47.1288" lon="6.18555">
        <ele>542</ele>
        <time>2017-11-16T13:39:19Z</time>
      </trkpt>
      <trkpt lat="47.12847" lon="6.18539">
        <ele>542</ele>
        <time>2017-11-16T13:39:48Z</time>
      </trkpt>
      <trkpt lat="47.1284" lon="6.18536">
        <ele>541</ele>
        <time>2017-11-16T13:40:00Z</time>
      </trkpt>
      <trkpt lat="47.12826" lon="6.18522">
        <ele>540</ele>
        <time>2017-11-16T13:40:12Z</time>
      </trkpt>
      <trkpt lat="47.12822" lon="6.1852">
        <ele>540</ele>
        <time>2017-11-16T13:40:17Z</time>
      </trkpt>
      <trkpt lat="47.12818" lon="6.18516">
        <ele>539</ele>
        <time>2017-11-16T13:40:23Z</time>
      </trkpt>
      <trkpt lat="47.12815" lon="6.1851">
        <ele>539</ele>
        <time>2017-11-16T13:40:53Z</time>
      </trkpt>
      <trkpt lat="47.12816" lon="6.18503">
        <ele>538</ele>
        <time>2017-11-16T13:41:00Z</time>
      </trkpt>
      <trkpt lat="47.12822" lon="6.18491">
        <ele>537</ele>
        <time>2017-11-16T13:41:10Z</time>
      </trkpt>
      <trkpt lat="47.12825" lon="6.18483">
        <ele>536</ele>
        <time>2017-11-16T13:41:15Z</time>
      </trkpt>
      <trkpt lat="47.12829" lon="6.1848">
        <ele>534</ele>
        <time>2017-11-16T13:41:19Z</time>
      </trkpt>
      <trkpt lat="47.12842" lon="6.18464">
        <ele>533</ele>
        <time>2017-11-16T13:41:31Z</time>
      </trkpt>
      <trkpt lat="47.12845" lon="6.18458">
        <ele>533</ele>
        <time>2017-11-16T13:41:35Z</time>
      </trkpt>
      <trkpt lat="47.12848" lon="6.18453">
        <ele>533</ele>
        <time>2017-11-16T13:41:39Z</time>
      </trkpt>
      <trkpt lat="47.12852" lon="6.18447">
        <ele>533</ele>
        <time>2017-11-16T13:41:43Z</time>
      </trkpt>
      <trkpt lat="47.12859" lon="6.18437">
        <ele>533</ele>
        <time>2017-11-16T13:41:51Z</time>
      </trkpt>
      <trkpt lat="47.12863" lon="6.18423">
        <ele>534</ele>
        <time>2017-11-16T13:42:00Z</time>
      </trkpt>
      <trkpt lat="47.12866" lon="6.18417">
        <ele>534</ele>
        <time>2017-11-16T13:42:04Z</time>
      </trkpt>
      <trkpt lat="47.12869" lon="6.18402">
        <ele>534</ele>
        <time>2017-11-16T13:42:13Z</time>
      </trkpt>
      <trkpt lat="47.1287" lon="6.18395">
        <ele>534</ele>
        <time>2017-11-16T13:42:18Z</time>
      </trkpt>
      <trkpt lat="47.12871" lon="6.18382">
        <ele>534</ele>
        <time>2017-11-16T13:42:40Z</time>
      </trkpt>
      <trkpt lat="47.12872" lon="6.18358">
        <ele>536</ele>
        <time>2017-11-16T13:42:52Z</time>
      </trkpt>
      <trkpt lat="47.12873" lon="6.18352">
        <ele>535</ele>
        <time>2017-11-16T13:42:57Z</time>
      </trkpt>
      <trkpt lat="47.12876" lon="6.18345">
        <ele>535</ele>
        <time>2017-11-16T13:43:02Z</time>
      </trkpt>
      <trkpt lat="47.12876" lon="6.18339">
        <ele>535</ele>
        <time>2017-11-16T13:43:06Z</time>
      </trkpt>
      <trkpt lat="47.12878" lon="6.18316">
        <ele>536</ele>
        <time>2017-11-16T13:43:19Z</time>
      </trkpt>
      <trkpt lat="47.12878" lon="6.18309">
        <ele>537</ele>
        <time>2017-11-16T13:43:26Z</time>
      </trkpt>
      <trkpt lat="47.12879" lon="6.18294">
        <ele>538</ele>
        <time>2017-11-16T13:43:34Z</time>
      </trkpt>
      <trkpt lat="47.12878" lon="6.18272">
        <ele>538</ele>
        <time>2017-11-16T13:43:45Z</time>
      </trkpt>
      <trkpt lat="47.12875" lon="6.18257">
        <ele>538</ele>
        <time>2017-11-16T13:43:54Z</time>
      </trkpt>
      <trkpt lat="47.12873" lon="6.1825">
        <ele>538</ele>
        <time>2017-11-16T13:43:58Z</time>
      </trkpt>
      <trkpt lat="47.12872" lon="6.18228">
        <ele>540</ele>
        <time>2017-11-16T13:44:14Z</time>
      </trkpt>
      <trkpt lat="47.12872" lon="6.1822">
        <ele>540</ele>
        <time>2017-11-16T13:44:19Z</time>
      </trkpt>
      <trkpt lat="47.12866" lon="6.182">
        <ele>540</ele>
        <time>2017-11-16T13:44:31Z</time>
      </trkpt>
      <trkpt lat="47.12866" lon="6.18192">
        <ele>541</ele>
        <time>2017-11-16T13:44:36Z</time>
      </trkpt>
      <trkpt lat="47.12862" lon="6.18171">
        <ele>541</ele>
        <time>2017-11-16T13:44:47Z</time>
      </trkpt>
      <trkpt lat="47.12864" lon="6.18164">
        <ele>541</ele>
        <time>2017-11-16T13:44:51Z</time>
      </trkpt>
      <trkpt lat="47.12864" lon="6.18157">
        <ele>540</ele>
        <time>2017-11-16T13:44:55Z</time>
      </trkpt>
      <trkpt lat="47.12864" lon="6.18148">
        <ele>540</ele>
        <time>2017-11-16T13:44:59Z</time>
      </trkpt>
      <trkpt lat="47.12866" lon="6.18141">
        <ele>540</ele>
        <time>2017-11-16T13:45:03Z</time>
      </trkpt>
      <trkpt lat="47.12866" lon="6.18134">
        <ele>540</ele>
        <time>2017-11-16T13:45:07Z</time>
      </trkpt>
      <trkpt lat="47.12867" lon="6.18126">
        <ele>540</ele>
        <time>2017-11-16T13:45:11Z</time>
      </trkpt>
      <trkpt lat="47.12867" lon="6.18118">
        <ele>540</ele>
        <time>2017-11-16T13:45:15Z</time>
      </trkpt>
      <trkpt lat="47.12866" lon="6.18111">
        <ele>541</ele>
        <time>2017-11-16T13:45:19Z</time>
      </trkpt>
      <trkpt lat="47.12867" lon="6.18103">
        <ele>541</ele>
        <time>2017-11-16T13:45:23Z</time>
      </trkpt>
      <trkpt lat="47.12866" lon="6.18094">
        <ele>541</ele>
        <time>2017-11-16T13:45:27Z</time>
      </trkpt>
      <trkpt lat="47.12864" lon="6.18079">
        <ele>540</ele>
        <time>2017-11-16T13:45:35Z</time>
      </trkpt>
      <trkpt lat="47.12857" lon="6.18061">
        <ele>539</ele>
        <time>2017-11-16T13:45:47Z</time>
      </trkpt>
      <trkpt lat="47.12854" lon="6.18054">
        <ele>539</ele>
        <time>2017-11-16T13:45:52Z</time>
      </trkpt>
      <trkpt lat="47.12852" lon="6.18032">
        <ele>539</ele>
        <time>2017-11-16T13:46:06Z</time>
      </trkpt>
      <trkpt lat="47.12849" lon="6.18024">
        <ele>539</ele>
        <time>2017-11-16T13:46:10Z</time>
      </trkpt>
      <trkpt lat="47.12843" lon="6.18012">
        <ele>539</ele>
        <time>2017-11-16T13:46:17Z</time>
      </trkpt>
      <trkpt lat="47.12835" lon="6.17992">
        <ele>538</ele>
        <time>2017-11-16T13:46:28Z</time>
      </trkpt>
      <trkpt lat="47.12814" lon="6.17958">
        <ele>537</ele>
        <time>2017-11-16T13:46:52Z</time>
      </trkpt>
      <trkpt lat="47.12813" lon="6.17951">
        <ele>536</ele>
        <time>2017-11-16T13:46:57Z</time>
      </trkpt>
      <trkpt lat="47.12815" lon="6.17944">
        <ele>535</ele>
        <time>2017-11-16T13:47:01Z</time>
      </trkpt>
      <trkpt lat="47.12814" lon="6.17936">
        <ele>535</ele>
        <time>2017-11-16T13:47:06Z</time>
      </trkpt>
      <trkpt lat="47.12814" lon="6.17928">
        <ele>535</ele>
        <time>2017-11-16T13:47:13Z</time>
      </trkpt>
      <trkpt lat="47.12813" lon="6.17922">
        <ele>535</ele>
        <time>2017-11-16T13:47:21Z</time>
      </trkpt>
      <trkpt lat="47.1281" lon="6.17917">
        <ele>534</ele>
        <time>2017-11-16T13:47:29Z</time>
      </trkpt>
      <trkpt lat="47.12806" lon="6.17922">
        <ele>531</ele>
        <time>2017-11-16T13:49:15Z</time>
      </trkpt>
      <trkpt lat="47.12809" lon="6.17929">
        <ele>529</ele>
        <time>2017-11-16T13:49:37Z</time>
      </trkpt>
      <trkpt lat="47.12814" lon="6.17928">
        <ele>530</ele>
        <time>2017-11-16T13:51:45Z</time>
      </trkpt>
      <trkpt lat="47.12821" lon="6.17953">
        <ele>527</ele>
        <time>2017-11-16T13:54:57Z</time>
      </trkpt>
      <trkpt lat="47.12819" lon="6.1796">
        <ele>527</ele>
        <time>2017-11-16T13:55:03Z</time>
      </trkpt>
      <trkpt lat="47.1282" lon="6.17967">
        <ele>527</ele>
        <time>2017-11-16T13:55:08Z</time>
      </trkpt>
      <trkpt lat="47.12828" lon="6.17974">
        <ele>525</ele>
        <time>2017-11-16T13:55:22Z</time>
      </trkpt>
      <trkpt lat="47.12832" lon="6.17979">
        <ele>525</ele>
        <time>2017-11-16T13:55:27Z</time>
      </trkpt>
      <trkpt lat="47.1284" lon="6.1799">
        <ele>524</ele>
        <time>2017-11-16T13:55:38Z</time>
      </trkpt>
      <trkpt lat="47.12842" lon="6.17996">
        <ele>524</ele>
        <time>2017-11-16T13:55:43Z</time>
      </trkpt>
      <trkpt lat="47.12846" lon="6.1801">
        <ele>525</ele>
        <time>2017-11-16T13:55:52Z</time>
      </trkpt>
      <trkpt lat="47.12851" lon="6.18021">
        <ele>526</ele>
        <time>2017-11-16T13:56:02Z</time>
      </trkpt>
      <trkpt lat="47.12862" lon="6.18069">
        <ele>527</ele>
        <time>2017-11-16T13:56:33Z</time>
      </trkpt>
      <trkpt lat="47.12864" lon="6.18111">
        <ele>528</ele>
        <time>2017-11-16T13:56:57Z</time>
      </trkpt>
      <trkpt lat="47.12862" lon="6.18133">
        <ele>531</ele>
        <time>2017-11-16T13:57:10Z</time>
      </trkpt>
      <trkpt lat="47.12859" lon="6.18171">
        <ele>534</ele>
        <time>2017-11-16T13:57:34Z</time>
      </trkpt>
      <trkpt lat="47.12859" lon="6.18177">
        <ele>534</ele>
        <time>2017-11-16T13:57:39Z</time>
      </trkpt>
      <trkpt lat="47.12862" lon="6.18199">
        <ele>534</ele>
        <time>2017-11-16T13:57:53Z</time>
      </trkpt>
      <trkpt lat="47.12863" lon="6.18206">
        <ele>534</ele>
        <time>2017-11-16T13:57:57Z</time>
      </trkpt>
      <trkpt lat="47.12865" lon="6.18213">
        <ele>536</ele>
        <time>2017-11-16T13:58:03Z</time>
      </trkpt>
      <trkpt lat="47.12868" lon="6.18219">
        <ele>536</ele>
        <time>2017-11-16T13:58:08Z</time>
      </trkpt>
      <trkpt lat="47.12873" lon="6.18217">
        <ele>537</ele>
        <time>2017-11-16T13:58:17Z</time>
      </trkpt>
      <trkpt lat="47.12883" lon="6.18217">
        <ele>538</ele>
        <time>2017-11-16T13:58:25Z</time>
      </trkpt>
      <trkpt lat="47.12887" lon="6.18214">
        <ele>538</ele>
        <time>2017-11-16T13:58:30Z</time>
      </trkpt>
      <trkpt lat="47.12891" lon="6.18209">
        <ele>538</ele>
        <time>2017-11-16T13:58:34Z</time>
      </trkpt>
      <trkpt lat="47.12895" lon="6.18204">
        <ele>538</ele>
        <time>2017-11-16T13:58:38Z</time>
      </trkpt>
      <trkpt lat="47.12901" lon="6.18201">
        <ele>537</ele>
        <time>2017-11-16T13:58:42Z</time>
      </trkpt>
      <trkpt lat="47.12905" lon="6.182">
        <ele>538</ele>
        <time>2017-11-16T13:58:45Z</time>
      </trkpt>
      <trkpt lat="47.12914" lon="6.18196">
        <ele>540</ele>
        <time>2017-11-16T13:58:54Z</time>
      </trkpt>
      <trkpt lat="47.12922" lon="6.18187">
        <ele>541</ele>
        <time>2017-11-16T13:59:03Z</time>
      </trkpt>
      <trkpt lat="47.12927" lon="6.18187">
        <ele>541</ele>
        <time>2017-11-16T13:59:09Z</time>
      </trkpt>
      <trkpt lat="47.1293" lon="6.18193">
        <ele>542</ele>
        <time>2017-11-16T13:59:14Z</time>
      </trkpt>
      <trkpt lat="47.12961" lon="6.18222">
        <ele>546</ele>
        <time>2017-11-16T13:59:46Z</time>
      </trkpt>
      <trkpt lat="47.12963" lon="6.18228">
        <ele>546</ele>
        <time>2017-11-16T13:59:50Z</time>
      </trkpt>
      <trkpt lat="47.12967" lon="6.18233">
        <ele>546</ele>
        <time>2017-11-16T13:59:54Z</time>
      </trkpt>
      <trkpt lat="47.12969" lon="6.1824">
        <ele>547</ele>
        <time>2017-11-16T13:59:58Z</time>
      </trkpt>
      <trkpt lat="47.12973" lon="6.18244">
        <ele>547</ele>
        <time>2017-11-16T14:00:04Z</time>
      </trkpt>
      <trkpt lat="47.12978" lon="6.18243">
        <ele>548</ele>
        <time>2017-11-16T14:00:08Z</time>
      </trkpt>
      <trkpt lat="47.12988" lon="6.18246">
        <ele>548</ele>
        <time>2017-11-16T14:00:16Z</time>
      </trkpt>
      <trkpt lat="47.13011" lon="6.18251">
        <ele>547</ele>
        <time>2017-11-16T14:00:36Z</time>
      </trkpt>
      <trkpt lat="47.13019" lon="6.18258">
        <ele>545</ele>
        <time>2017-11-16T14:00:46Z</time>
      </trkpt>
      <trkpt lat="47.13032" lon="6.18278">
        <ele>545</ele>
        <time>2017-11-16T14:01:01Z</time>
      </trkpt>
      <trkpt lat="47.13047" lon="6.18296">
        <ele>545</ele>
        <time>2017-11-16T14:01:16Z</time>
      </trkpt>
      <trkpt lat="47.13056" lon="6.18301">
        <ele>544</ele>
        <time>2017-11-16T14:01:24Z</time>
      </trkpt>
      <trkpt lat="47.13064" lon="6.18309">
        <ele>543</ele>
        <time>2017-11-16T14:01:33Z</time>
      </trkpt>
      <trkpt lat="47.13074" lon="6.18311">
        <ele>543</ele>
        <time>2017-11-16T14:01:40Z</time>
      </trkpt>
      <trkpt lat="47.13099" lon="6.1833">
        <ele>538</ele>
        <time>2017-11-16T14:02:11Z</time>
      </trkpt>
      <trkpt lat="47.13109" lon="6.18336">
        <ele>536</ele>
        <time>2017-11-16T14:02:21Z</time>
      </trkpt>
      <trkpt lat="47.1312" lon="6.18344">
        <ele>535</ele>
        <time>2017-11-16T14:02:28Z</time>
      </trkpt>
      <trkpt lat="47.13124" lon="6.18356">
        <ele>532</ele>
        <time>2017-11-16T14:02:42Z</time>
      </trkpt>
      <trkpt lat="47.13127" lon="6.18369">
        <ele>532</ele>
        <time>2017-11-16T14:02:50Z</time>
      </trkpt>
      <trkpt lat="47.13144" lon="6.18388">
        <ele>531</ele>
        <time>2017-11-16T14:03:04Z</time>
      </trkpt>
      <trkpt lat="47.1315" lon="6.184">
        <ele>530</ele>
        <time>2017-11-16T14:03:11Z</time>
      </trkpt>
      <trkpt lat="47.13161" lon="6.18421">
        <ele>530</ele>
        <time>2017-11-16T14:03:33Z</time>
      </trkpt>
      <trkpt lat="47.13169" lon="6.18429">
        <ele>530</ele>
        <time>2017-11-16T14:03:39Z</time>
      </trkpt>
      <trkpt lat="47.13171" lon="6.18443">
        <ele>528</ele>
        <time>2017-11-16T14:03:46Z</time>
      </trkpt>
      <trkpt lat="47.13192" lon="6.18491">
        <ele>524</ele>
        <time>2017-11-16T14:04:19Z</time>
      </trkpt>
      <trkpt lat="47.13202" lon="6.18493">
        <ele>523</ele>
        <time>2017-11-16T14:04:24Z</time>
      </trkpt>
      <trkpt lat="47.13223" lon="6.1852">
        <ele>518</ele>
        <time>2017-11-16T14:04:57Z</time>
      </trkpt>
      <trkpt lat="47.13232" lon="6.18527">
        <ele>517</ele>
        <time>2017-11-16T14:05:05Z</time>
      </trkpt>
      <trkpt lat="47.13245" lon="6.18546">
        <ele>512</ele>
        <time>2017-11-16T14:05:32Z</time>
      </trkpt>
      <trkpt lat="47.13254" lon="6.18552">
        <ele>508</ele>
        <time>2017-11-16T14:05:43Z</time>
      </trkpt>
      <trkpt lat="47.13269" lon="6.18569">
        <ele>505</ele>
        <time>2017-11-16T14:06:09Z</time>
      </trkpt>
      <trkpt lat="47.13278" lon="6.18572">
        <ele>503</ele>
        <time>2017-11-16T14:06:17Z</time>
      </trkpt>
      <trkpt lat="47.13295" lon="6.18585">
        <ele>498</ele>
        <time>2017-11-16T14:06:38Z</time>
      </trkpt>
      <trkpt lat="47.13296" lon="6.18577">
        <ele>492</ele>
        <time>2017-11-16T14:08:04Z</time>
      </trkpt>
      <trkpt lat="47.13294" lon="6.18563">
        <ele>490</ele>
        <time>2017-11-16T14:08:15Z</time>
      </trkpt>
      <trkpt lat="47.13293" lon="6.18549">
        <ele>486</ele>
        <time>2017-11-16T14:08:24Z</time>
      </trkpt>
      <trkpt lat="47.1328" lon="6.18497">
        <ele>480</ele>
        <time>2017-11-16T14:09:01Z</time>
      </trkpt>
      <trkpt lat="47.13275" lon="6.18484">
        <ele>480</ele>
        <time>2017-11-16T14:09:10Z</time>
      </trkpt>
      <trkpt lat="47.13267" lon="6.18445">
        <ele>476</ele>
        <time>2017-11-16T14:09:48Z</time>
      </trkpt>
      <trkpt lat="47.13253" lon="6.18406">
        <ele>472</ele>
        <time>2017-11-16T14:10:21Z</time>
      </trkpt>
      <trkpt lat="47.13248" lon="6.18394">
        <ele>470</ele>
        <time>2017-11-16T14:10:29Z</time>
      </trkpt>
      <trkpt lat="47.13245" lon="6.18366">
        <ele>470</ele>
        <time>2017-11-16T14:10:47Z</time>
      </trkpt>
      <trkpt lat="47.13235" lon="6.18343">
        <ele>467</ele>
        <time>2017-11-16T14:11:05Z</time>
      </trkpt>
      <trkpt lat="47.13233" lon="6.18329">
        <ele>467</ele>
        <time>2017-11-16T14:11:14Z</time>
      </trkpt>
      <trkpt lat="47.13216" lon="6.18278">
        <ele>464</ele>
        <time>2017-11-16T14:11:50Z</time>
      </trkpt>
      <trkpt lat="47.1321" lon="6.18268">
        <ele>463</ele>
        <time>2017-11-16T14:11:58Z</time>
      </trkpt>
      <trkpt lat="47.13194" lon="6.18231">
        <ele>458</ele>
        <time>2017-11-16T14:12:29Z</time>
      </trkpt>
      <trkpt lat="47.13184" lon="6.18213">
        <ele>457</ele>
        <time>2017-11-16T14:12:42Z</time>
      </trkpt>
      <trkpt lat="47.13179" lon="6.18202">
        <ele>458</ele>
        <time>2017-11-16T14:12:49Z</time>
      </trkpt>
      <trkpt lat="47.13172" lon="6.18193">
        <ele>457</ele>
        <time>2017-11-16T14:12:55Z</time>
      </trkpt>
      <trkpt lat="47.13164" lon="6.18186">
        <ele>456</ele>
        <time>2017-11-16T14:13:01Z</time>
      </trkpt>
      <trkpt lat="47.13158" lon="6.18174">
        <ele>456</ele>
        <time>2017-11-16T14:13:10Z</time>
      </trkpt>
      <trkpt lat="47.13149" lon="6.18168">
        <ele>455</ele>
        <time>2017-11-16T14:13:21Z</time>
      </trkpt>
      <trkpt lat="47.13141" lon="6.18157">
        <ele>455</ele>
        <time>2017-11-16T14:13:29Z</time>
      </trkpt>
      <trkpt lat="47.13134" lon="6.18147">
        <ele>455</ele>
        <time>2017-11-16T14:13:36Z</time>
      </trkpt>
      <trkpt lat="47.13127" lon="6.18137">
        <ele>453</ele>
        <time>2017-11-16T14:13:44Z</time>
      </trkpt>
      <trkpt lat="47.13114" lon="6.18132">
        <ele>451</ele>
        <time>2017-11-16T14:14:03Z</time>
      </trkpt>
      <trkpt lat="47.13104" lon="6.1811">
        <ele>450</ele>
        <time>2017-11-16T14:14:22Z</time>
      </trkpt>
      <trkpt lat="47.13081" lon="6.18083">
        <ele>450</ele>
        <time>2017-11-16T14:14:49Z</time>
      </trkpt>
      <trkpt lat="47.1307" lon="6.18061">
        <ele>452</ele>
        <time>2017-11-16T14:15:04Z</time>
      </trkpt>
      <trkpt lat="47.13062" lon="6.18051">
        <ele>452</ele>
        <time>2017-11-16T14:15:15Z</time>
      </trkpt>
      <trkpt lat="47.13058" lon="6.18038">
        <ele>452</ele>
        <time>2017-11-16T14:15:23Z</time>
      </trkpt>
      <trkpt lat="47.13051" lon="6.18028">
        <ele>452</ele>
        <time>2017-11-16T14:15:31Z</time>
      </trkpt>
      <trkpt lat="47.13046" lon="6.18017">
        <ele>451</ele>
        <time>2017-11-16T14:15:39Z</time>
      </trkpt>
      <trkpt lat="47.13025" lon="6.17985">
        <ele>447</ele>
        <time>2017-11-16T14:16:04Z</time>
      </trkpt>
      <trkpt lat="47.13018" lon="6.17978">
        <ele>446</ele>
        <time>2017-11-16T14:16:12Z</time>
      </trkpt>
      <trkpt lat="47.13011" lon="6.17969">
        <ele>443</ele>
        <time>2017-11-16T14:16:22Z</time>
      </trkpt>
      <trkpt lat="47.13006" lon="6.17957">
        <ele>441</ele>
        <time>2017-11-16T14:16:33Z</time>
      </trkpt>
      <trkpt lat="47.12998" lon="6.17949">
        <ele>440</ele>
        <time>2017-11-16T14:16:40Z</time>
      </trkpt>
      <trkpt lat="47.12992" lon="6.17938">
        <ele>439</ele>
        <time>2017-11-16T14:16:47Z</time>
      </trkpt>
      <trkpt lat="47.12985" lon="6.17929">
        <ele>439</ele>
        <time>2017-11-16T14:16:55Z</time>
      </trkpt>
      <trkpt lat="47.12978" lon="6.1792">
        <ele>439</ele>
        <time>2017-11-16T14:17:01Z</time>
      </trkpt>
      <trkpt lat="47.12952" lon="6.17881">
        <ele>435</ele>
        <time>2017-11-16T14:17:38Z</time>
      </trkpt>
      <trkpt lat="47.12929" lon="6.17838">
        <ele>433</ele>
        <time>2017-11-16T14:18:13Z</time>
      </trkpt>
      <trkpt lat="47.12906" lon="6.17786">
        <ele>427</ele>
        <time>2017-11-16T14:18:51Z</time>
      </trkpt>
      <trkpt lat="47.12902" lon="6.17774">
        <ele>426</ele>
        <time>2017-11-16T14:18:58Z</time>
      </trkpt>
      <trkpt lat="47.12896" lon="6.17764">
        <ele>425</ele>
        <time>2017-11-16T14:19:07Z</time>
      </trkpt>
      <trkpt lat="47.12895" lon="6.1775">
        <ele>423</ele>
        <time>2017-11-16T14:19:22Z</time>
      </trkpt>
      <trkpt lat="47.12878" lon="6.17702">
        <ele>413</ele>
        <time>2017-11-16T14:20:01Z</time>
      </trkpt>
      <trkpt lat="47.1287" lon="6.17678">
        <ele>408</ele>
        <time>2017-11-16T14:20:22Z</time>
      </trkpt>
      <trkpt lat="47.12853" lon="6.17643">
        <ele>399</ele>
        <time>2017-11-16T14:20:53Z</time>
      </trkpt>
      <trkpt lat="47.12852" lon="6.17628">
        <ele>397</ele>
        <time>2017-11-16T14:21:03Z</time>
      </trkpt>
      <trkpt lat="47.1284" lon="6.17575">
        <ele>389</ele>
        <time>2017-11-16T14:21:41Z</time>
      </trkpt>
      <trkpt lat="47.12839" lon="6.1756">
        <ele>388</ele>
        <time>2017-11-16T14:21:59Z</time>
      </trkpt>
      <trkpt lat="47.12852" lon="6.17539">
        <ele>386</ele>
        <time>2017-11-16T14:22:15Z</time>
      </trkpt>
      <trkpt lat="47.12868" lon="6.17524">
        <ele>387</ele>
        <time>2017-11-16T14:22:31Z</time>
      </trkpt>
      <trkpt lat="47.12875" lon="6.17516">
        <ele>387</ele>
        <time>2017-11-16T14:22:38Z</time>
      </trkpt>
      <trkpt lat="47.12883" lon="6.17505">
        <ele>386</ele>
        <time>2017-11-16T14:22:46Z</time>
      </trkpt>
      <trkpt lat="47.12894" lon="6.17472">
        <ele>373</ele>
        <time>2017-11-16T14:24:32Z</time>
      </trkpt>
      <trkpt lat="47.12885" lon="6.17447">
        <ele>370</ele>
        <time>2017-11-16T14:25:02Z</time>
      </trkpt>
      <trkpt lat="47.1288" lon="6.17426">
        <ele>369</ele>
        <time>2017-11-16T14:25:13Z</time>
      </trkpt>
      <trkpt lat="47.12873" lon="6.17402">
        <ele>369</ele>
        <time>2017-11-16T14:25:26Z</time>
      </trkpt>
      <trkpt lat="47.1287" lon="6.17388">
        <ele>369</ele>
        <time>2017-11-16T14:25:32Z</time>
      </trkpt>
      <trkpt lat="47.12868" lon="6.17375">
        <ele>369</ele>
        <time>2017-11-16T14:25:40Z</time>
      </trkpt>
      <trkpt lat="47.12866" lon="6.17361">
        <ele>369</ele>
        <time>2017-11-16T14:25:50Z</time>
      </trkpt>
      <trkpt lat="47.12864" lon="6.17348">
        <ele>369</ele>
        <time>2017-11-16T14:26:00Z</time>
      </trkpt>
      <trkpt lat="47.1286" lon="6.17336">
        <ele>370</ele>
        <time>2017-11-16T14:26:10Z</time>
      </trkpt>
      <trkpt lat="47.12849" lon="6.17296">
        <ele>370</ele>
        <time>2017-11-16T14:26:34Z</time>
      </trkpt>
      <trkpt lat="47.12846" lon="6.17256">
        <ele>370</ele>
        <time>2017-11-16T14:26:57Z</time>
      </trkpt>
      <trkpt lat="47.12848" lon="6.17242">
        <ele>370</ele>
        <time>2017-11-16T14:27:06Z</time>
      </trkpt>
      <trkpt lat="47.1285" lon="6.17228">
        <ele>370</ele>
        <time>2017-11-16T14:27:14Z</time>
      </trkpt>
      <trkpt lat="47.1285" lon="6.17214">
        <ele>370</ele>
        <time>2017-11-16T14:27:23Z</time>
      </trkpt>
      <trkpt lat="47.12861" lon="6.17175">
        <ele>371</ele>
        <time>2017-11-16T14:27:47Z</time>
      </trkpt>
      <trkpt lat="47.1286" lon="6.1714">
        <ele>371</ele>
        <time>2017-11-16T14:28:06Z</time>
      </trkpt>
      <trkpt lat="47.12861" lon="6.17127">
        <ele>370</ele>
        <time>2017-11-16T14:28:15Z</time>
      </trkpt>
      <trkpt lat="47.12856" lon="6.17116">
        <ele>370</ele>
        <time>2017-11-16T14:28:24Z</time>
      </trkpt>
      <trkpt lat="47.12852" lon="6.17095">
        <ele>369</ele>
        <time>2017-11-16T14:28:47Z</time>
      </trkpt>
      <trkpt lat="47.12853" lon="6.17087">
        <ele>368</ele>
        <time>2017-11-16T14:28:52Z</time>
      </trkpt>
      <trkpt lat="47.12853" lon="6.17079">
        <ele>369</ele>
        <time>2017-11-16T14:28:57Z</time>
      </trkpt>
      <trkpt lat="47.12855" lon="6.17065">
        <ele>370</ele>
        <time>2017-11-16T14:29:07Z</time>
      </trkpt>
      <trkpt lat="47.12855" lon="6.17057">
        <ele>370</ele>
        <time>2017-11-16T14:29:12Z</time>
      </trkpt>
      <trkpt lat="47.12855" lon="6.17049">
        <ele>370</ele>
        <time>2017-11-16T14:29:17Z</time>
      </trkpt>
      <trkpt lat="47.12859" lon="6.17029">
        <ele>370</ele>
        <time>2017-11-16T14:29:30Z</time>
      </trkpt>
      <trkpt lat="47.12859" lon="6.17022">
        <ele>369</ele>
        <time>2017-11-16T14:29:35Z</time>
      </trkpt>
      <trkpt lat="47.12859" lon="6.17015">
        <ele>369</ele>
        <time>2017-11-16T14:29:39Z</time>
      </trkpt>
      <trkpt lat="47.12861" lon="6.17007">
        <ele>369</ele>
        <time>2017-11-16T14:29:44Z</time>
      </trkpt>
      <trkpt lat="47.12862" lon="6.17">
        <ele>369</ele>
        <time>2017-11-16T14:29:47Z</time>
      </trkpt>
      <trkpt lat="47.12861" lon="6.16992">
        <ele>369</ele>
        <time>2017-11-16T14:29:52Z</time>
      </trkpt>
      <trkpt lat="47.12863" lon="6.16985">
        <ele>368</ele>
        <time>2017-11-16T14:29:57Z</time>
      </trkpt>
      <trkpt lat="47.12867" lon="6.16983">
        <ele>369</ele>
        <time>2017-11-16T14:30:01Z</time>
      </trkpt>
      <trkpt lat="47.12867" lon="6.1698">
        <ele>369</ele>
        <time>2017-11-16T14:30:35Z</time>
      </trkpt>
      <trkpt lat="47.1286" lon="6.16962">
        <ele>369</ele>
        <time>2017-11-16T14:30:54Z</time>
      </trkpt>
      <trkpt lat="47.12858" lon="6.16945">
        <ele>370</ele>
        <time>2017-11-16T14:31:01Z</time>
      </trkpt>
      <trkpt lat="47.12856" lon="6.16929">
        <ele>369</ele>
        <time>2017-11-16T14:31:09Z</time>
      </trkpt>
      <trkpt lat="47.12855" lon="6.16921">
        <ele>369</ele>
        <time>2017-11-16T14:31:13Z</time>
      </trkpt>
      <trkpt lat="47.12859" lon="6.16891">
        <ele>370</ele>
        <time>2017-11-16T14:31:30Z</time>
      </trkpt>
      <trkpt lat="47.12862" lon="6.16858">
        <ele>369</ele>
        <time>2017-11-16T14:31:46Z</time>
      </trkpt>
      <trkpt lat="47.12865" lon="6.16847">
        <ele>368</ele>
        <time>2017-11-16T14:31:57Z</time>
      </trkpt>
      <trkpt lat="47.12867" lon="6.1684">
        <ele>368</ele>
        <time>2017-11-16T14:32:01Z</time>
      </trkpt>
      <trkpt lat="47.12868" lon="6.16833">
        <ele>368</ele>
        <time>2017-11-16T14:32:05Z</time>
      </trkpt>
      <trkpt lat="47.12868" lon="6.16826">
        <ele>368</ele>
        <time>2017-11-16T14:32:09Z</time>
      </trkpt>
      <trkpt lat="47.12871" lon="6.16818">
        <ele>367</ele>
        <time>2017-11-16T14:32:13Z</time>
      </trkpt>
      <trkpt lat="47.12874" lon="6.16794">
        <ele>366</ele>
        <time>2017-11-16T14:32:24Z</time>
      </trkpt>
      <trkpt lat="47.12875" lon="6.16779">
        <ele>364</ele>
        <time>2017-11-16T14:32:32Z</time>
      </trkpt>
      <trkpt lat="47.12875" lon="6.16765">
        <ele>364</ele>
        <time>2017-11-16T14:33:01Z</time>
      </trkpt>
      <trkpt lat="47.12886" lon="6.16724">
        <ele>364</ele>
        <time>2017-11-16T14:33:22Z</time>
      </trkpt>
      <trkpt lat="47.12893" lon="6.16699">
        <ele>366</ele>
        <time>2017-11-16T14:33:35Z</time>
      </trkpt>
      <trkpt lat="47.12896" lon="6.16685">
        <ele>366</ele>
        <time>2017-11-16T14:33:43Z</time>
      </trkpt>
      <trkpt lat="47.12898" lon="6.16672">
        <ele>365</ele>
        <time>2017-11-16T14:33:52Z</time>
      </trkpt>
      <trkpt lat="47.12916" lon="6.16607">
        <ele>364</ele>
        <time>2017-11-16T14:34:27Z</time>
      </trkpt>
      <trkpt lat="47.12919" lon="6.16593">
        <ele>365</ele>
        <time>2017-11-16T14:34:34Z</time>
      </trkpt>
      <trkpt lat="47.1293" lon="6.16553">
        <ele>365</ele>
        <time>2017-11-16T14:34:56Z</time>
      </trkpt>
      <trkpt lat="47.12932" lon="6.1654">
        <ele>365</ele>
        <time>2017-11-16T14:35:03Z</time>
      </trkpt>
      <trkpt lat="47.12935" lon="6.16526">
        <ele>364</ele>
        <time>2017-11-16T14:35:12Z</time>
      </trkpt>
      <trkpt lat="47.12937" lon="6.16512">
        <ele>362</ele>
        <time>2017-11-16T14:35:20Z</time>
      </trkpt>
      <trkpt lat="47.12939" lon="6.16499">
        <ele>362</ele>
        <time>2017-11-16T14:35:27Z</time>
      </trkpt>
      <trkpt lat="47.12951" lon="6.16477">
        <ele>361</ele>
        <time>2017-11-16T14:35:42Z</time>
      </trkpt>
      <trkpt lat="47.12958" lon="6.16467">
        <ele>361</ele>
        <time>2017-11-16T14:35:50Z</time>
      </trkpt>
      <trkpt lat="47.12966" lon="6.16461">
        <ele>361</ele>
        <time>2017-11-16T14:35:56Z</time>
      </trkpt>
      <trkpt lat="47.12975" lon="6.16456">
        <ele>361</ele>
        <time>2017-11-16T14:36:03Z</time>
      </trkpt>
      <trkpt lat="47.12984" lon="6.16454">
        <ele>361</ele>
        <time>2017-11-16T14:36:15Z</time>
      </trkpt>
      <trkpt lat="47.12994" lon="6.16457">
        <ele>363</ele>
        <time>2017-11-16T14:36:47Z</time>
      </trkpt>
      <trkpt lat="47.13003" lon="6.16457">
        <ele>363</ele>
        <time>2017-11-16T14:36:56Z</time>
      </trkpt>
      <trkpt lat="47.13023" lon="6.16429">
        <ele>366</ele>
        <time>2017-11-16T14:37:24Z</time>
      </trkpt>
      <trkpt lat="47.13027" lon="6.16415">
        <ele>366</ele>
        <time>2017-11-16T14:37:32Z</time>
      </trkpt>
      <trkpt lat="47.13028" lon="6.16401">
        <ele>366</ele>
        <time>2017-11-16T14:37:40Z</time>
      </trkpt>
      <trkpt lat="47.13038" lon="6.16392">
        <ele>366</ele>
        <time>2017-11-16T14:38:08Z</time>
      </trkpt>
      <trkpt lat="47.13035" lon="6.16382">
        <ele>366</ele>
        <time>2017-11-16T14:40:46Z</time>
      </trkpt>
      <trkpt lat="47.13035" lon="6.16368">
        <ele>366</ele>
        <time>2017-11-16T14:40:55Z</time>
      </trkpt>
      <trkpt lat="47.13042" lon="6.16343">
        <ele>365</ele>
        <time>2017-11-16T14:41:10Z</time>
      </trkpt>
      <trkpt lat="47.13043" lon="6.16329">
        <ele>365</ele>
        <time>2017-11-16T14:41:17Z</time>
      </trkpt>
      <trkpt lat="47.13057" lon="6.16277">
        <ele>364</ele>
        <time>2017-11-16T14:41:50Z</time>
      </trkpt>
      <trkpt lat="47.1307" lon="6.16224">
        <ele>363</ele>
        <time>2017-11-16T14:42:22Z</time>
      </trkpt>
      <trkpt lat="47.13074" lon="6.16214">
        <ele>363</ele>
        <time>2017-11-16T14:42:28Z</time>
      </trkpt>
      <trkpt lat="47.13076" lon="6.16208">
        <ele>364</ele>
        <time>2017-11-16T14:42:32Z</time>
      </trkpt>
      <trkpt lat="47.13078" lon="6.16202">
        <ele>364</ele>
        <time>2017-11-16T14:42:36Z</time>
      </trkpt>
      <trkpt lat="47.1308" lon="6.16196">
        <ele>364</ele>
        <time>2017-11-16T14:42:40Z</time>
      </trkpt>
      <trkpt lat="47.13081" lon="6.16181">
        <ele>363</ele>
        <time>2017-11-16T14:42:51Z</time>
      </trkpt>
      <trkpt lat="47.13081" lon="6.16173">
        <ele>363</ele>
        <time>2017-11-16T14:42:55Z</time>
      </trkpt>
      <trkpt lat="47.13079" lon="6.16157">
        <ele>363</ele>
        <time>2017-11-16T14:43:03Z</time>
      </trkpt>
      <trkpt lat="47.13079" lon="6.1615">
        <ele>363</ele>
        <time>2017-11-16T14:43:07Z</time>
      </trkpt>
      <trkpt lat="47.1308" lon="6.16141">
        <ele>363</ele>
        <time>2017-11-16T14:43:11Z</time>
      </trkpt>
      <trkpt lat="47.13083" lon="6.16126">
        <ele>364</ele>
        <time>2017-11-16T14:43:19Z</time>
      </trkpt>
      <trkpt lat="47.13093" lon="6.16107">
        <ele>364</ele>
        <time>2017-11-16T14:43:32Z</time>
      </trkpt>
      <trkpt lat="47.13097" lon="6.16102">
        <ele>365</ele>
        <time>2017-11-16T14:43:35Z</time>
      </trkpt>
      <trkpt lat="47.13106" lon="6.16083">
        <ele>367</ele>
        <time>2017-11-16T14:43:47Z</time>
      </trkpt>
      <trkpt lat="47.13108" lon="6.16076">
        <ele>367</ele>
        <time>2017-11-16T14:43:51Z</time>
      </trkpt>
      <trkpt lat="47.13111" lon="6.1607">
        <ele>367</ele>
        <time>2017-11-16T14:43:55Z</time>
      </trkpt>
      <trkpt lat="47.13113" lon="6.16062">
        <ele>367</ele>
        <time>2017-11-16T14:44:00Z</time>
      </trkpt>
      <trkpt lat="47.13122" lon="6.16028">
        <ele>367</ele>
        <time>2017-11-16T14:44:21Z</time>
      </trkpt>
      <trkpt lat="47.13128" lon="6.16015">
        <ele>367</ele>
        <time>2017-11-16T14:44:29Z</time>
      </trkpt>
      <trkpt lat="47.13129" lon="6.16008">
        <ele>368</ele>
        <time>2017-11-16T14:44:38Z</time>
      </trkpt>
      <trkpt lat="47.13134" lon="6.15986">
        <ele>367</ele>
        <time>2017-11-16T14:44:54Z</time>
      </trkpt>
      <trkpt lat="47.1314" lon="6.15967">
        <ele>367</ele>
        <time>2017-11-16T14:45:05Z</time>
      </trkpt>
      <trkpt lat="47.13148" lon="6.15939">
        <ele>367</ele>
        <time>2017-11-16T14:45:21Z</time>
      </trkpt>
      <trkpt lat="47.13155" lon="6.15917">
        <ele>368</ele>
        <time>2017-11-16T14:45:33Z</time>
      </trkpt>
      <trkpt lat="47.13157" lon="6.1591">
        <ele>368</ele>
        <time>2017-11-16T14:45:37Z</time>
      </trkpt>
      <trkpt lat="47.13159" lon="6.15902">
        <ele>367</ele>
        <time>2017-11-16T14:45:42Z</time>
      </trkpt>
      <trkpt lat="47.13162" lon="6.15888">
        <ele>367</ele>
        <time>2017-11-16T14:45:50Z</time>
      </trkpt>
      <trkpt lat="47.13166" lon="6.15855">
        <ele>366</ele>
        <time>2017-11-16T14:46:23Z</time>
      </trkpt>
      <trkpt lat="47.13176" lon="6.15804">
        <ele>363</ele>
        <time>2017-11-16T14:46:50Z</time>
      </trkpt>
      <trkpt lat="47.13178" lon="6.1579">
        <ele>364</ele>
        <time>2017-11-16T14:46:58Z</time>
      </trkpt>
      <trkpt lat="47.13185" lon="6.15762">
        <ele>366</ele>
        <time>2017-11-16T14:47:14Z</time>
      </trkpt>
      <trkpt lat="47.13194" lon="6.15742">
        <ele>366</ele>
        <time>2017-11-16T14:47:26Z</time>
      </trkpt>
      <trkpt lat="47.13197" lon="6.15735">
        <ele>365</ele>
        <time>2017-11-16T14:47:31Z</time>
      </trkpt>
      <trkpt lat="47.13218" lon="6.157">
        <ele>364</ele>
        <time>2017-11-16T14:47:56Z</time>
      </trkpt>
      <trkpt lat="47.13225" lon="6.1569">
        <ele>365</ele>
        <time>2017-11-16T14:48:04Z</time>
      </trkpt>
      <trkpt lat="47.1323" lon="6.15685">
        <ele>365</ele>
        <time>2017-11-16T14:48:08Z</time>
      </trkpt>
      <trkpt lat="47.13238" lon="6.15675">
        <ele>364</ele>
        <time>2017-11-16T14:48:16Z</time>
      </trkpt>
      <trkpt lat="47.13257" lon="6.15649">
        <ele>363</ele>
        <time>2017-11-16T14:48:37Z</time>
      </trkpt>
      <trkpt lat="47.1326" lon="6.15643">
        <ele>362</ele>
        <time>2017-11-16T14:48:42Z</time>
      </trkpt>
      <trkpt lat="47.13267" lon="6.15631">
        <ele>362</ele>
        <time>2017-11-16T14:48:51Z</time>
      </trkpt>
      <trkpt lat="47.13279" lon="6.15599">
        <ele>361</ele>
        <time>2017-11-16T14:49:14Z</time>
      </trkpt>
      <trkpt lat="47.13283" lon="6.15593">
        <ele>360</ele>
        <time>2017-11-16T14:49:18Z</time>
      </trkpt>
      <trkpt lat="47.1329" lon="6.15573">
        <ele>360</ele>
        <time>2017-11-16T14:49:30Z</time>
      </trkpt>
      <trkpt lat="47.13293" lon="6.1556">
        <ele>359</ele>
        <time>2017-11-16T14:49:38Z</time>
      </trkpt>
      <trkpt lat="47.13298" lon="6.15548">
        <ele>358</ele>
        <time>2017-11-16T14:49:45Z</time>
      </trkpt>
      <trkpt lat="47.13303" lon="6.15536">
        <ele>358</ele>
        <time>2017-11-16T14:49:52Z</time>
      </trkpt>
      <trkpt lat="47.13305" lon="6.15521">
        <ele>357</ele>
        <time>2017-11-16T14:50:00Z</time>
      </trkpt>
      <trkpt lat="47.13309" lon="6.15509">
        <ele>357</ele>
        <time>2017-11-16T14:50:07Z</time>
      </trkpt>
      <trkpt lat="47.13311" lon="6.15502">
        <ele>356</ele>
        <time>2017-11-16T14:50:11Z</time>
      </trkpt>
      <trkpt lat="47.13312" lon="6.15487">
        <ele>355</ele>
        <time>2017-11-16T14:50:19Z</time>
      </trkpt>
      <trkpt lat="47.13323" lon="6.15437">
        <ele>353</ele>
        <time>2017-11-16T14:50:47Z</time>
      </trkpt>
      <trkpt lat="47.13325" lon="6.1543">
        <ele>353</ele>
        <time>2017-11-16T14:50:51Z</time>
      </trkpt>
      <trkpt lat="47.13327" lon="6.15423">
        <ele>353</ele>
        <time>2017-11-16T14:50:55Z</time>
      </trkpt>
      <trkpt lat="47.1333" lon="6.15409">
        <ele>353</ele>
        <time>2017-11-16T14:51:03Z</time>
      </trkpt>
      <trkpt lat="47.1334" lon="6.15391">
        <ele>353</ele>
        <time>2017-11-16T14:51:15Z</time>
      </trkpt>
      <trkpt lat="47.13341" lon="6.15384">
        <ele>353</ele>
        <time>2017-11-16T14:51:19Z</time>
      </trkpt>
      <trkpt lat="47.13356" lon="6.15359">
        <ele>353</ele>
        <time>2017-11-16T14:51:35Z</time>
      </trkpt>
      <trkpt lat="47.1336" lon="6.15354">
        <ele>354</ele>
        <time>2017-11-16T14:51:39Z</time>
      </trkpt>
      <trkpt lat="47.13362" lon="6.15347">
        <ele>354</ele>
        <time>2017-11-16T14:51:44Z</time>
      </trkpt>
      <trkpt lat="47.13365" lon="6.15341">
        <ele>354</ele>
        <time>2017-11-16T14:51:48Z</time>
      </trkpt>
      <trkpt lat="47.13378" lon="6.15329">
        <ele>356</ele>
        <time>2017-11-16T14:52:02Z</time>
      </trkpt>
      <trkpt lat="47.13381" lon="6.15323">
        <ele>356</ele>
        <time>2017-11-16T14:52:06Z</time>
      </trkpt>
      <trkpt lat="47.13383" lon="6.15316">
        <ele>355</ele>
        <time>2017-11-16T14:52:10Z</time>
      </trkpt>
      <trkpt lat="47.13386" lon="6.1531">
        <ele>355</ele>
        <time>2017-11-16T14:52:14Z</time>
      </trkpt>
      <trkpt lat="47.1339" lon="6.15305">
        <ele>355</ele>
        <time>2017-11-16T14:52:17Z</time>
      </trkpt>
      <trkpt lat="47.13395" lon="6.15292">
        <ele>355</ele>
        <time>2017-11-16T14:52:25Z</time>
      </trkpt>
      <trkpt lat="47.13397" lon="6.15284">
        <ele>355</ele>
        <time>2017-11-16T14:52:30Z</time>
      </trkpt>
      <trkpt lat="47.13399" lon="6.15277">
        <ele>355</ele>
        <time>2017-11-16T14:52:34Z</time>
      </trkpt>
      <trkpt lat="47.13411" lon="6.15251">
        <ele>357</ele>
        <time>2017-11-16T14:52:51Z</time>
      </trkpt>
      <trkpt lat="47.13419" lon="6.15241">
        <ele>358</ele>
        <time>2017-11-16T14:53:01Z</time>
      </trkpt>
      <trkpt lat="47.13423" lon="6.15238">
        <ele>358</ele>
        <time>2017-11-16T14:53:06Z</time>
      </trkpt>
      <trkpt lat="47.13433" lon="6.15233">
        <ele>358</ele>
        <time>2017-11-16T14:53:16Z</time>
      </trkpt>
      <trkpt lat="47.13454" lon="6.15231">
        <ele>359</ele>
        <time>2017-11-16T14:53:29Z</time>
      </trkpt>
      <trkpt lat="47.13459" lon="6.15232">
        <ele>359</ele>
        <time>2017-11-16T14:53:33Z</time>
      </trkpt>
      <trkpt lat="47.13464" lon="6.15235">
        <ele>360</ele>
        <time>2017-11-16T14:53:37Z</time>
      </trkpt>
      <trkpt lat="47.13467" lon="6.1524">
        <ele>360</ele>
        <time>2017-11-16T14:53:40Z</time>
      </trkpt>
      <trkpt lat="47.13472" lon="6.15241">
        <ele>361</ele>
        <time>2017-11-16T14:53:43Z</time>
      </trkpt>
      <trkpt lat="47.13476" lon="6.1524">
        <ele>361</ele>
        <time>2017-11-16T14:53:46Z</time>
      </trkpt>
      <trkpt lat="47.13486" lon="6.15246">
        <ele>362</ele>
        <time>2017-11-16T14:53:54Z</time>
      </trkpt>
      <trkpt lat="47.13492" lon="6.15256">
        <ele>363</ele>
        <time>2017-11-16T14:54:03Z</time>
      </trkpt>
      <trkpt lat="47.13503" lon="6.15258">
        <ele>366</ele>
        <time>2017-11-16T14:54:11Z</time>
      </trkpt>
      <trkpt lat="47.13511" lon="6.15261">
        <ele>367</ele>
        <time>2017-11-16T14:55:01Z</time>
      </trkpt>
      <trkpt lat="47.13513" lon="6.15254">
        <ele>367</ele>
        <time>2017-11-16T14:55:14Z</time>
      </trkpt>
      <trkpt lat="47.13517" lon="6.15251">
        <ele>366</ele>
        <time>2017-11-16T14:55:19Z</time>
      </trkpt>
      <trkpt lat="47.13522" lon="6.1525">
        <ele>365</ele>
        <time>2017-11-16T14:55:22Z</time>
      </trkpt>
      <trkpt lat="47.13526" lon="6.15253">
        <ele>365</ele>
        <time>2017-11-16T14:55:25Z</time>
      </trkpt>
      <trkpt lat="47.13529" lon="6.15259">
        <ele>365</ele>
        <time>2017-11-16T14:55:29Z</time>
      </trkpt>
      <trkpt lat="47.13536" lon="6.15269">
        <ele>368</ele>
        <time>2017-11-16T14:55:39Z</time>
      </trkpt>
      <trkpt lat="47.13541" lon="6.15273">
        <ele>369</ele>
        <time>2017-11-16T14:55:43Z</time>
      </trkpt>
      <trkpt lat="47.13549" lon="6.15284">
        <ele>369</ele>
        <time>2017-11-16T14:55:50Z</time>
      </trkpt>
      <trkpt lat="47.13552" lon="6.15289">
        <ele>370</ele>
        <time>2017-11-16T14:55:53Z</time>
      </trkpt>
      <trkpt lat="47.13553" lon="6.15296">
        <ele>370</ele>
        <time>2017-11-16T14:55:56Z</time>
      </trkpt>
      <trkpt lat="47.13555" lon="6.15302">
        <ele>370</ele>
        <time>2017-11-16T14:55:59Z</time>
      </trkpt>
      <trkpt lat="47.13585" lon="6.15346">
        <ele>374</ele>
        <time>2017-11-16T14:56:31Z</time>
      </trkpt>
      <trkpt lat="47.13588" lon="6.15354">
        <ele>374</ele>
        <time>2017-11-16T14:56:35Z</time>
      </trkpt>
      <trkpt lat="47.13592" lon="6.15358">
        <ele>374</ele>
        <time>2017-11-16T14:56:39Z</time>
      </trkpt>
      <trkpt lat="47.13597" lon="6.15371">
        <ele>374</ele>
        <time>2017-11-16T14:56:47Z</time>
      </trkpt>
      <trkpt lat="47.13604" lon="6.1538">
        <ele>374</ele>
        <time>2017-11-16T14:56:55Z</time>
      </trkpt>
      <trkpt lat="47.13608" lon="6.15385">
        <ele>375</ele>
        <time>2017-11-16T14:56:59Z</time>
      </trkpt>
      <trkpt lat="47.13611" lon="6.15391">
        <ele>375</ele>
        <time>2017-11-16T14:57:03Z</time>
      </trkpt>
      <trkpt lat="47.13614" lon="6.15396">
        <ele>374</ele>
        <time>2017-11-16T14:57:07Z</time>
      </trkpt>
      <trkpt lat="47.13619" lon="6.15399">
        <ele>374</ele>
        <time>2017-11-16T14:57:11Z</time>
      </trkpt>
      <trkpt lat="47.13624" lon="6.15412">
        <ele>374</ele>
        <time>2017-11-16T14:57:19Z</time>
      </trkpt>
      <trkpt lat="47.13627" lon="6.15419">
        <ele>375</ele>
        <time>2017-11-16T14:57:24Z</time>
      </trkpt>
      <trkpt lat="47.13636" lon="6.15455">
        <ele>376</ele>
        <time>2017-11-16T14:57:43Z</time>
      </trkpt>
      <trkpt lat="47.13643" lon="6.15465">
        <ele>376</ele>
        <time>2017-11-16T14:57:51Z</time>
      </trkpt>
      <trkpt lat="47.13645" lon="6.15472">
        <ele>375</ele>
        <time>2017-11-16T14:57:55Z</time>
      </trkpt>
      <trkpt lat="47.13648" lon="6.15478">
        <ele>375</ele>
        <time>2017-11-16T14:57:58Z</time>
      </trkpt>
      <trkpt lat="47.13649" lon="6.15502">
        <ele>376</ele>
        <time>2017-11-16T14:58:07Z</time>
      </trkpt>
      <trkpt lat="47.1365" lon="6.15509">
        <ele>375</ele>
        <time>2017-11-16T14:58:11Z</time>
      </trkpt>
      <trkpt lat="47.13652" lon="6.15531">
        <ele>376</ele>
        <time>2017-11-16T14:58:22Z</time>
      </trkpt>
      <trkpt lat="47.13655" lon="6.15536">
        <ele>376</ele>
        <time>2017-11-16T14:58:27Z</time>
      </trkpt>
      <trkpt lat="47.13658" lon="6.15551">
        <ele>376</ele>
        <time>2017-11-16T14:58:36Z</time>
      </trkpt>
      <trkpt lat="47.13661" lon="6.15567">
        <ele>376</ele>
        <time>2017-11-16T14:58:44Z</time>
      </trkpt>
      <trkpt lat="47.13664" lon="6.15573">
        <ele>376</ele>
        <time>2017-11-16T14:58:48Z</time>
      </trkpt>
      <trkpt lat="47.13663" lon="6.1558">
        <ele>377</ele>
        <time>2017-11-16T14:58:51Z</time>
      </trkpt>
      <trkpt lat="47.1367" lon="6.15601">
        <ele>377</ele>
        <time>2017-11-16T14:59:03Z</time>
      </trkpt>
      <trkpt lat="47.13673" lon="6.15606">
        <ele>377</ele>
        <time>2017-11-16T14:59:07Z</time>
      </trkpt>
      <trkpt lat="47.13676" lon="6.15613">
        <ele>377</ele>
        <time>2017-11-16T14:59:11Z</time>
      </trkpt>
      <trkpt lat="47.13678" lon="6.15625">
        <ele>377</ele>
        <time>2017-11-16T14:59:16Z</time>
      </trkpt>
      <trkpt lat="47.13679" lon="6.15633">
        <ele>378</ele>
        <time>2017-11-16T14:59:21Z</time>
      </trkpt>
      <trkpt lat="47.13681" lon="6.15648">
        <ele>378</ele>
        <time>2017-11-16T14:59:28Z</time>
      </trkpt>
      <trkpt lat="47.13689" lon="6.15675">
        <ele>377</ele>
        <time>2017-11-16T14:59:44Z</time>
      </trkpt>
      <trkpt lat="47.13696" lon="6.15684">
        <ele>376</ele>
        <time>2017-11-16T14:59:52Z</time>
      </trkpt>
      <trkpt lat="47.13699" lon="6.15699">
        <ele>377</ele>
        <time>2017-11-16T14:59:59Z</time>
      </trkpt>
      <trkpt lat="47.13716" lon="6.15765">
        <ele>379</ele>
        <time>2017-11-16T15:00:35Z</time>
      </trkpt>
      <trkpt lat="47.13725" lon="6.15791">
        <ele>380</ele>
        <time>2017-11-16T15:00:51Z</time>
      </trkpt>
      <trkpt lat="47.13733" lon="6.15816">
        <ele>383</ele>
        <time>2017-11-16T15:01:07Z</time>
      </trkpt>
      <trkpt lat="47.1374" lon="6.15826">
        <ele>386</ele>
        <time>2017-11-16T15:01:17Z</time>
      </trkpt>
      <trkpt lat="47.13747" lon="6.15836">
        <ele>386</ele>
        <time>2017-11-16T15:01:27Z</time>
      </trkpt>
      <trkpt lat="47.13756" lon="6.15834">
        <ele>387</ele>
        <time>2017-11-16T15:01:43Z</time>
      </trkpt>
    </trkseg>
  </trk>
</gpx>